<?xml version='1.0' encoding='UTF-8'?>
<gpx version="1.1" creator="https://www.komoot.de" xmlns="http://www.topografix.com/GPX/1/1" xmlns:xsi="http://www.w3.org/2001/XMLSchema-instance" xsi:schemaLocation="http://www.topografix.com/GPX/1/1 http://www.topografix.com/GPX/1/1/gpx.xsd">
  <metadata>
    <name>69_930HogschuerHuetten</name>
    <author>
      <link href="https://www.komoot.de">
        <text>komoot</text>
        <type>text/html</type>
      </link>
    </author>
  </metadata>
  <trk>
    <name>69_930HogschuerHuetten</name>
    <trkseg>
      <trkpt lat="47.541371" lon="7.870823">
        <ele>341.037041</ele>
        <time>2021-11-19T22:14:24.696Z</time>
      </trkpt>
      <trkpt lat="47.541410" lon="7.870791">
        <ele>341.037041</ele>
        <time>2021-11-19T22:14:25.341Z</time>
      </trkpt>
      <trkpt lat="47.541576" lon="7.870664">
        <ele>341.037041</ele>
        <time>2021-11-19T22:14:29.484Z</time>
      </trkpt>
      <trkpt lat="47.541796" lon="7.871042">
        <ele>341.037041</ele>
        <time>2021-11-19T22:14:36.586Z</time>
      </trkpt>
      <trkpt lat="47.541953" lon="7.871286">
        <ele>341.037041</ele>
        <time>2021-11-19T22:14:41.408Z</time>
      </trkpt>
      <trkpt lat="47.542039" lon="7.871556">
        <ele>341.409863</ele>
        <time>2021-11-19T22:14:45.792Z</time>
      </trkpt>
      <trkpt lat="47.542067" lon="7.871664">
        <ele>341.706688</ele>
        <time>2021-11-19T22:14:47.482Z</time>
      </trkpt>
      <trkpt lat="47.542091" lon="7.871721">
        <ele>341.879047</ele>
        <time>2021-11-19T22:14:48.070Z</time>
      </trkpt>
      <trkpt lat="47.542218" lon="7.871866">
        <ele>342.488465</ele>
        <time>2021-11-19T22:14:53.176Z</time>
      </trkpt>
      <trkpt lat="47.542394" lon="7.872341">
        <ele>343.878665</ele>
        <time>2021-11-19T22:15:03.228Z</time>
      </trkpt>
      <trkpt lat="47.542436" lon="7.872494">
        <ele>344.302426</ele>
        <time>2021-11-19T22:15:06.619Z</time>
      </trkpt>
      <trkpt lat="47.542537" lon="7.872430">
        <ele>344.719942</ele>
        <time>2021-11-19T22:15:08.732Z</time>
      </trkpt>
      <trkpt lat="47.542714" lon="7.872334">
        <ele>345.436340</ele>
        <time>2021-11-19T22:15:15.688Z</time>
      </trkpt>
      <trkpt lat="47.542814" lon="7.872280">
        <ele>345.840875</ele>
        <time>2021-11-19T22:15:18.702Z</time>
      </trkpt>
      <trkpt lat="47.542919" lon="7.872226">
        <ele>346.263315</ele>
        <time>2021-11-19T22:15:22.540Z</time>
      </trkpt>
      <trkpt lat="47.543013" lon="7.872182">
        <ele>346.637992</ele>
        <time>2021-11-19T22:15:26.047Z</time>
      </trkpt>
      <trkpt lat="47.543233" lon="7.872082">
        <ele>347.512625</ele>
        <time>2021-11-19T22:15:33.286Z</time>
      </trkpt>
      <trkpt lat="47.543251" lon="7.872152">
        <ele>347.704807</ele>
        <time>2021-11-19T22:15:36.659Z</time>
      </trkpt>
      <trkpt lat="47.543332" lon="7.872237">
        <ele>348.225145</ele>
        <time>2021-11-19T22:15:39.964Z</time>
      </trkpt>
      <trkpt lat="47.544390" lon="7.872423">
        <ele>355.047651</ele>
        <time>2021-11-19T22:16:21.684Z</time>
      </trkpt>
      <trkpt lat="47.544883" lon="7.872555">
        <ele>358.255752</ele>
        <time>2021-11-19T22:16:44.093Z</time>
      </trkpt>
      <trkpt lat="47.545131" lon="7.872664">
        <ele>359.925405</ele>
        <time>2021-11-19T22:16:55.097Z</time>
      </trkpt>
      <trkpt lat="47.545375" lon="7.872836">
        <ele>361.699389</ele>
        <time>2021-11-19T22:17:06.038Z</time>
      </trkpt>
      <trkpt lat="47.545478" lon="7.872968">
        <ele>362.593498</ele>
        <time>2021-11-19T22:17:12.845Z</time>
      </trkpt>
      <trkpt lat="47.545515" lon="7.873015">
        <ele>362.913475</ele>
        <time>2021-11-19T22:17:14.802Z</time>
      </trkpt>
      <trkpt lat="47.545746" lon="7.873302">
        <ele>364.892731</ele>
        <time>2021-11-19T22:17:28.001Z</time>
      </trkpt>
      <trkpt lat="47.545934" lon="7.873549">
        <ele>366.542407</ele>
        <time>2021-11-19T22:17:38.102Z</time>
      </trkpt>
      <trkpt lat="47.546077" lon="7.873763">
        <ele>367.876833</ele>
        <time>2021-11-19T22:17:47.298Z</time>
      </trkpt>
      <trkpt lat="47.546135" lon="7.873859">
        <ele>368.447772</ele>
        <time>2021-11-19T22:17:50.537Z</time>
      </trkpt>
      <trkpt lat="47.546309" lon="7.874154">
        <ele>370.183822</ele>
        <time>2021-11-19T22:18:01.652Z</time>
      </trkpt>
      <trkpt lat="47.547126" lon="7.875801">
        <ele>375.871051</ele>
        <time>2021-11-19T22:18:47.413Z</time>
      </trkpt>
      <trkpt lat="47.547574" lon="7.876801">
        <ele>377.869326</ele>
        <time>2021-11-19T22:19:06.408Z</time>
      </trkpt>
      <trkpt lat="47.547992" lon="7.877974">
        <ele>377.151282</ele>
        <time>2021-11-19T22:19:19.209Z</time>
      </trkpt>
      <trkpt lat="47.548234" lon="7.878638">
        <ele>376.742788</ele>
        <time>2021-11-19T22:19:24.521Z</time>
      </trkpt>
      <trkpt lat="47.548422" lon="7.878959">
        <ele>376.079314</ele>
        <time>2021-11-19T22:19:27.364Z</time>
      </trkpt>
      <trkpt lat="47.548718" lon="7.879258">
        <ele>374.591339</ele>
        <time>2021-11-19T22:19:30.902Z</time>
      </trkpt>
      <trkpt lat="47.549140" lon="7.879391">
        <ele>372.799378</ele>
        <time>2021-11-19T22:19:35.089Z</time>
      </trkpt>
      <trkpt lat="47.549318" lon="7.879398">
        <ele>372.059809</ele>
        <time>2021-11-19T22:19:36.716Z</time>
      </trkpt>
      <trkpt lat="47.549327" lon="7.879547">
        <ele>371.640437</ele>
        <time>2021-11-19T22:19:37.702Z</time>
      </trkpt>
      <trkpt lat="47.549726" lon="7.880786">
        <ele>367.968936</ele>
        <time>2021-11-19T22:19:46.637Z</time>
      </trkpt>
      <trkpt lat="47.549927" lon="7.881490">
        <ele>366.106135</ele>
        <time>2021-11-19T22:19:51.669Z</time>
      </trkpt>
      <trkpt lat="47.550234" lon="7.883221">
        <ele>361.575666</ele>
        <time>2021-11-19T22:20:04.070Z</time>
      </trkpt>
      <trkpt lat="47.550332" lon="7.884727">
        <ele>357.202116</ele>
        <time>2021-11-19T22:20:13.914Z</time>
      </trkpt>
      <trkpt lat="47.550391" lon="7.885109">
        <ele>356.069335</ele>
        <time>2021-11-19T22:20:16.446Z</time>
      </trkpt>
      <trkpt lat="47.550548" lon="7.885799">
        <ele>353.648311</ele>
        <time>2021-11-19T22:20:21.051Z</time>
      </trkpt>
      <trkpt lat="47.550677" lon="7.886476">
        <ele>350.961444</ele>
        <time>2021-11-19T22:20:25.481Z</time>
      </trkpt>
      <trkpt lat="47.550758" lon="7.887295">
        <ele>347.799882</ele>
        <time>2021-11-19T22:20:30.623Z</time>
      </trkpt>
      <trkpt lat="47.550789" lon="7.887816">
        <ele>345.802216</ele>
        <time>2021-11-19T22:20:33.855Z</time>
      </trkpt>
      <trkpt lat="47.550831" lon="7.888611">
        <ele>342.541358</ele>
        <time>2021-11-19T22:20:38.811Z</time>
      </trkpt>
      <trkpt lat="47.550833" lon="7.889069">
        <ele>340.605128</ele>
        <time>2021-11-19T22:20:41.621Z</time>
      </trkpt>
      <trkpt lat="47.550915" lon="7.890600">
        <ele>334.112502</ele>
        <time>2021-11-19T22:20:51.014Z</time>
      </trkpt>
      <trkpt lat="47.550904" lon="7.891725">
        <ele>330.731498</ele>
        <time>2021-11-19T22:20:58.018Z</time>
      </trkpt>
      <trkpt lat="47.550892" lon="7.893176">
        <ele>326.631105</ele>
        <time>2021-11-19T22:21:07.630Z</time>
      </trkpt>
      <trkpt lat="47.550908" lon="7.894308">
        <ele>325.197207</ele>
        <time>2021-11-19T22:21:16.835Z</time>
      </trkpt>
      <trkpt lat="47.550878" lon="7.895158">
        <ele>324.462459</ele>
        <time>2021-11-19T22:21:24.020Z</time>
      </trkpt>
      <trkpt lat="47.550838" lon="7.895509">
        <ele>324.155177</ele>
        <time>2021-11-19T22:21:27.184Z</time>
      </trkpt>
      <trkpt lat="47.550660" lon="7.896255">
        <ele>323.255516</ele>
        <time>2021-11-19T22:21:33.673Z</time>
      </trkpt>
      <trkpt lat="47.550639" lon="7.896345">
        <ele>323.084810</ele>
        <time>2021-11-19T22:21:34.860Z</time>
      </trkpt>
      <trkpt lat="47.550648" lon="7.896481">
        <ele>322.839844</ele>
        <time>2021-11-19T22:21:35.815Z</time>
      </trkpt>
      <trkpt lat="47.550819" lon="7.898109">
        <ele>319.886325</ele>
        <time>2021-11-19T22:21:47.563Z</time>
      </trkpt>
      <trkpt lat="47.550801" lon="7.900244">
        <ele>314.347506</ele>
        <time>2021-11-19T22:22:01.400Z</time>
      </trkpt>
      <trkpt lat="47.550769" lon="7.901362">
        <ele>311.146564</ele>
        <time>2021-11-19T22:22:08.672Z</time>
      </trkpt>
      <trkpt lat="47.550757" lon="7.901591">
        <ele>310.578705</ele>
        <time>2021-11-19T22:22:10.808Z</time>
      </trkpt>
      <trkpt lat="47.550688" lon="7.902451">
        <ele>308.437562</ele>
        <time>2021-11-19T22:22:19.242Z</time>
      </trkpt>
      <trkpt lat="47.550498" lon="7.903445">
        <ele>305.883445</ele>
        <time>2021-11-19T22:22:29.492Z</time>
      </trkpt>
      <trkpt lat="47.550302" lon="7.904164">
        <ele>303.959554</ele>
        <time>2021-11-19T22:22:36.752Z</time>
      </trkpt>
      <trkpt lat="47.550025" lon="7.904774">
        <ele>302.123814</ele>
        <time>2021-11-19T22:22:43.677Z</time>
      </trkpt>
      <trkpt lat="47.549868" lon="7.905010">
        <ele>301.296423</ele>
        <time>2021-11-19T22:22:46.809Z</time>
      </trkpt>
      <trkpt lat="47.549867" lon="7.905155">
        <ele>300.934352</ele>
        <time>2021-11-19T22:22:48.206Z</time>
      </trkpt>
      <trkpt lat="47.550067" lon="7.905245">
        <ele>300.161096</ele>
        <time>2021-11-19T22:22:51.131Z</time>
      </trkpt>
      <trkpt lat="47.550283" lon="7.905413">
        <ele>299.258610</ele>
        <time>2021-11-19T22:22:54.581Z</time>
      </trkpt>
      <trkpt lat="47.550497" lon="7.905558">
        <ele>298.388078</ele>
        <time>2021-11-19T22:22:57.939Z</time>
      </trkpt>
      <trkpt lat="47.549539" lon="7.908625">
        <ele>293.142243</ele>
        <time>2021-11-19T22:23:22.376Z</time>
      </trkpt>
      <trkpt lat="47.549520" lon="7.908678">
        <ele>293.084862</ele>
        <time>2021-11-19T22:23:22.881Z</time>
      </trkpt>
      <trkpt lat="47.549346" lon="7.909256">
        <ele>292.479725</ele>
        <time>2021-11-19T22:23:28.052Z</time>
      </trkpt>
      <trkpt lat="47.549195" lon="7.909756">
        <ele>291.955972</ele>
        <time>2021-11-19T22:23:32.523Z</time>
      </trkpt>
      <trkpt lat="47.549102" lon="7.910058">
        <ele>291.638576</ele>
        <time>2021-11-19T22:23:35.217Z</time>
      </trkpt>
      <trkpt lat="47.549012" lon="7.910340">
        <ele>291.340314</ele>
        <time>2021-11-19T22:23:37.733Z</time>
      </trkpt>
      <trkpt lat="47.548412" lon="7.912168">
        <ele>289.794125</ele>
        <time>2021-11-19T22:23:54.075Z</time>
      </trkpt>
      <trkpt lat="47.548027" lon="7.913334">
        <ele>289.060139</ele>
        <time>2021-11-19T22:24:04.836Z</time>
      </trkpt>
      <trkpt lat="47.547994" lon="7.913433">
        <ele>289.034169</ele>
        <time>2021-11-19T22:24:05.756Z</time>
      </trkpt>
      <trkpt lat="47.547423" lon="7.915080">
        <ele>288.598673</ele>
        <time>2021-11-19T22:24:23.233Z</time>
      </trkpt>
      <trkpt lat="47.547113" lon="7.915971">
        <ele>288.749143</ele>
        <time>2021-11-19T22:24:33.680Z</time>
      </trkpt>
      <trkpt lat="47.547091" lon="7.916039">
        <ele>288.770624</ele>
        <time>2021-11-19T22:24:34.704Z</time>
      </trkpt>
      <trkpt lat="47.547032" lon="7.916218">
        <ele>288.827370</ele>
        <time>2021-11-19T22:24:36.907Z</time>
      </trkpt>
      <trkpt lat="47.546821" lon="7.916867">
        <ele>289.032575</ele>
        <time>2021-11-19T22:24:45.016Z</time>
      </trkpt>
      <trkpt lat="47.546262" lon="7.919081">
        <ele>289.677177</ele>
        <time>2021-11-19T22:25:12.528Z</time>
      </trkpt>
      <trkpt lat="47.546128" lon="7.919617">
        <ele>289.828557</ele>
        <time>2021-11-19T22:25:17.996Z</time>
      </trkpt>
      <trkpt lat="47.545973" lon="7.920313">
        <ele>290.065396</ele>
        <time>2021-11-19T22:25:26.459Z</time>
      </trkpt>
      <trkpt lat="47.545913" lon="7.920765">
        <ele>290.444532</ele>
        <time>2021-11-19T22:25:30.633Z</time>
      </trkpt>
      <trkpt lat="47.545881" lon="7.921096">
        <ele>290.719736</ele>
        <time>2021-11-19T22:25:34.649Z</time>
      </trkpt>
      <trkpt lat="47.545810" lon="7.921755">
        <ele>291.268982</ele>
        <time>2021-11-19T22:25:43.558Z</time>
      </trkpt>
      <trkpt lat="47.545778" lon="7.921947">
        <ele>291.431750</ele>
        <time>2021-11-19T22:25:47.167Z</time>
      </trkpt>
      <trkpt lat="47.545714" lon="7.922249">
        <ele>291.692270</ele>
        <time>2021-11-19T22:25:50.365Z</time>
      </trkpt>
      <trkpt lat="47.545699" lon="7.922325">
        <ele>291.757439</ele>
        <time>2021-11-19T22:25:51.563Z</time>
      </trkpt>
      <trkpt lat="47.545690" lon="7.922369">
        <ele>291.795279</ele>
        <time>2021-11-19T22:25:53.661Z</time>
      </trkpt>
      <trkpt lat="47.545641" lon="7.922610">
        <ele>292.002434</ele>
        <time>2021-11-19T22:25:56.015Z</time>
      </trkpt>
      <trkpt lat="47.545587" lon="7.922895">
        <ele>292.340844</ele>
        <time>2021-11-19T22:26:01.811Z</time>
      </trkpt>
      <trkpt lat="47.545553" lon="7.923142">
        <ele>292.937130</ele>
        <time>2021-11-19T22:26:04.458Z</time>
      </trkpt>
      <trkpt lat="47.545536" lon="7.923407">
        <ele>293.566794</ele>
        <time>2021-11-19T22:26:10.348Z</time>
      </trkpt>
      <trkpt lat="47.545521" lon="7.923709">
        <ele>294.283086</ele>
        <time>2021-11-19T22:26:14.501Z</time>
      </trkpt>
      <trkpt lat="47.545481" lon="7.924396">
        <ele>295.914173</ele>
        <time>2021-11-19T22:26:29.104Z</time>
      </trkpt>
      <trkpt lat="47.545466" lon="7.924880">
        <ele>297.060250</ele>
        <time>2021-11-19T22:26:40.411Z</time>
      </trkpt>
      <trkpt lat="47.545446" lon="7.925350">
        <ele>298.174211</ele>
        <time>2021-11-19T22:26:50.786Z</time>
      </trkpt>
      <trkpt lat="47.545417" lon="7.925848">
        <ele>299.086883</ele>
        <time>2021-11-19T22:27:01.265Z</time>
      </trkpt>
      <trkpt lat="47.545409" lon="7.926773">
        <ele>300.587327</ele>
        <time>2021-11-19T22:27:18.466Z</time>
      </trkpt>
      <trkpt lat="47.545407" lon="7.927001">
        <ele>300.957167</ele>
        <time>2021-11-19T22:27:22.275Z</time>
      </trkpt>
      <trkpt lat="47.545406" lon="7.927306">
        <ele>301.451874</ele>
        <time>2021-11-19T22:27:26.879Z</time>
      </trkpt>
      <trkpt lat="47.545421" lon="7.927686">
        <ele>302.069275</ele>
        <time>2021-11-19T22:27:32.415Z</time>
      </trkpt>
      <trkpt lat="47.545475" lon="7.928419">
        <ele>302.578019</ele>
        <time>2021-11-19T22:27:41.732Z</time>
      </trkpt>
      <trkpt lat="47.545563" lon="7.929641">
        <ele>301.491429</ele>
        <time>2021-11-19T22:27:51.612Z</time>
      </trkpt>
      <trkpt lat="47.545661" lon="7.930955">
        <ele>300.322640</ele>
        <time>2021-11-19T22:28:01.008Z</time>
      </trkpt>
      <trkpt lat="47.545696" lon="7.931497">
        <ele>299.841509</ele>
        <time>2021-11-19T22:28:04.976Z</time>
      </trkpt>
      <trkpt lat="47.545721" lon="7.931992">
        <ele>299.402875</ele>
        <time>2021-11-19T22:28:08.769Z</time>
      </trkpt>
      <trkpt lat="47.545724" lon="7.932758">
        <ele>298.725980</ele>
        <time>2021-11-19T22:28:14.978Z</time>
      </trkpt>
      <trkpt lat="47.545702" lon="7.933290">
        <ele>298.254992</ele>
        <time>2021-11-19T22:28:19.621Z</time>
      </trkpt>
      <trkpt lat="47.545674" lon="7.933625">
        <ele>298.211644</ele>
        <time>2021-11-19T22:28:22.822Z</time>
      </trkpt>
      <trkpt lat="47.545457" lon="7.935110">
        <ele>299.104415</ele>
        <time>2021-11-19T22:28:40.957Z</time>
      </trkpt>
      <trkpt lat="47.545074" lon="7.936484">
        <ele>300.280314</ele>
        <time>2021-11-19T22:29:02.484Z</time>
      </trkpt>
      <trkpt lat="47.544903" lon="7.936917">
        <ele>300.869914</ele>
        <time>2021-11-19T22:29:09.800Z</time>
      </trkpt>
      <trkpt lat="47.544705" lon="7.937395">
        <ele>301.529050</ele>
        <time>2021-11-19T22:29:17.984Z</time>
      </trkpt>
      <trkpt lat="47.544472" lon="7.937932">
        <ele>302.279328</ele>
        <time>2021-11-19T22:29:27.392Z</time>
      </trkpt>
      <trkpt lat="47.543826" lon="7.939433">
        <ele>304.339424</ele>
        <time>2021-11-19T22:29:54.273Z</time>
      </trkpt>
      <trkpt lat="47.543435" lon="7.940670">
        <ele>305.887785</ele>
        <time>2021-11-19T22:30:14.234Z</time>
      </trkpt>
      <trkpt lat="47.543161" lon="7.942213">
        <ele>306.536788</ele>
        <time>2021-11-19T22:30:35.083Z</time>
      </trkpt>
      <trkpt lat="47.543007" lon="7.943867">
        <ele>306.248953</ele>
        <time>2021-11-19T22:30:50.627Z</time>
      </trkpt>
      <trkpt lat="47.542913" lon="7.945267">
        <ele>304.671799</ele>
        <time>2021-11-19T22:31:01.393Z</time>
      </trkpt>
      <trkpt lat="47.542872" lon="7.945781">
        <ele>304.091592</ele>
        <time>2021-11-19T22:31:04.987Z</time>
      </trkpt>
      <trkpt lat="47.542875" lon="7.946089">
        <ele>303.642879</ele>
        <time>2021-11-19T22:31:07.114Z</time>
      </trkpt>
      <trkpt lat="47.542902" lon="7.946514">
        <ele>302.944686</ele>
        <time>2021-11-19T22:31:09.982Z</time>
      </trkpt>
      <trkpt lat="47.542943" lon="7.946806">
        <ele>302.456874</ele>
        <time>2021-11-19T22:31:12.004Z</time>
      </trkpt>
      <trkpt lat="47.542974" lon="7.946965">
        <ele>302.186187</ele>
        <time>2021-11-19T22:31:13.243Z</time>
      </trkpt>
      <trkpt lat="47.542979" lon="7.946989">
        <ele>302.145107</ele>
        <time>2021-11-19T22:31:13.399Z</time>
      </trkpt>
      <trkpt lat="47.543007" lon="7.947104">
        <ele>301.945154</ele>
        <time>2021-11-19T22:31:14.266Z</time>
      </trkpt>
      <trkpt lat="47.543087" lon="7.947317">
        <ele>301.546483</ele>
        <time>2021-11-19T22:31:15.965Z</time>
      </trkpt>
      <trkpt lat="47.543191" lon="7.947615">
        <ele>300.997796</ele>
        <time>2021-11-19T22:31:18.473Z</time>
      </trkpt>
      <trkpt lat="47.543191" lon="7.947615">
        <ele>300.997796</ele>
        <time>2021-11-19T22:31:18.479Z</time>
      </trkpt>
      <trkpt lat="47.543242" lon="7.947745">
        <ele>300.751872</ele>
        <time>2021-11-19T22:31:19.608Z</time>
      </trkpt>
      <trkpt lat="47.543273" lon="7.947816">
        <ele>300.613573</ele>
        <time>2021-11-19T22:31:20.243Z</time>
      </trkpt>
      <trkpt lat="47.543358" lon="7.947967">
        <ele>300.291998</ele>
        <time>2021-11-19T22:31:21.728Z</time>
      </trkpt>
      <trkpt lat="47.543455" lon="7.948127">
        <ele>299.940262</ele>
        <time>2021-11-19T22:31:23.338Z</time>
      </trkpt>
      <trkpt lat="47.543532" lon="7.948214">
        <ele>299.705624</ele>
        <time>2021-11-19T22:31:24.433Z</time>
      </trkpt>
      <trkpt lat="47.543579" lon="7.948287">
        <ele>299.609907</ele>
        <time>2021-11-19T22:31:25.223Z</time>
      </trkpt>
      <trkpt lat="47.543760" lon="7.948548">
        <ele>299.579361</ele>
        <time>2021-11-19T22:31:28.072Z</time>
      </trkpt>
      <trkpt lat="47.543864" lon="7.948694">
        <ele>299.562034</ele>
        <time>2021-11-19T22:31:29.814Z</time>
      </trkpt>
      <trkpt lat="47.544239" lon="7.949202">
        <ele>299.500583</ele>
        <time>2021-11-19T22:31:37.012Z</time>
      </trkpt>
      <trkpt lat="47.544521" lon="7.949558">
        <ele>299.455778</ele>
        <time>2021-11-19T22:31:43.185Z</time>
      </trkpt>
      <trkpt lat="47.544901" lon="7.950044">
        <ele>299.397865</ele>
        <time>2021-11-19T22:31:52.581Z</time>
      </trkpt>
      <trkpt lat="47.545166" lon="7.950366">
        <ele>299.476426</ele>
        <time>2021-11-19T22:31:59.131Z</time>
      </trkpt>
      <trkpt lat="47.545434" lon="7.950668">
        <ele>299.553608</ele>
        <time>2021-11-19T22:32:04.921Z</time>
      </trkpt>
      <trkpt lat="47.545542" lon="7.950842">
        <ele>299.590182</ele>
        <time>2021-11-19T22:32:07.347Z</time>
      </trkpt>
      <trkpt lat="47.545667" lon="7.950979">
        <ele>299.625823</ele>
        <time>2021-11-19T22:32:09.952Z</time>
      </trkpt>
      <trkpt lat="47.545737" lon="7.951055">
        <ele>299.645716</ele>
        <time>2021-11-19T22:32:11.206Z</time>
      </trkpt>
      <trkpt lat="47.545876" lon="7.951233">
        <ele>299.687830</ele>
        <time>2021-11-19T22:32:13.598Z</time>
      </trkpt>
      <trkpt lat="47.546112" lon="7.951485">
        <ele>299.754513</ele>
        <time>2021-11-19T22:32:18.141Z</time>
      </trkpt>
      <trkpt lat="47.546164" lon="7.951520">
        <ele>299.767605</ele>
        <time>2021-11-19T22:32:18.775Z</time>
      </trkpt>
      <trkpt lat="47.546212" lon="7.951535">
        <ele>299.778849</ele>
        <time>2021-11-19T22:32:19.541Z</time>
      </trkpt>
      <trkpt lat="47.546231" lon="7.951558">
        <ele>299.784473</ele>
        <time>2021-11-19T22:32:20.270Z</time>
      </trkpt>
      <trkpt lat="47.546421" lon="7.951793">
        <ele>299.747625</ele>
        <time>2021-11-19T22:32:23.451Z</time>
      </trkpt>
      <trkpt lat="47.546634" lon="7.952024">
        <ele>299.635972</ele>
        <time>2021-11-19T22:32:26.985Z</time>
      </trkpt>
      <trkpt lat="47.546695" lon="7.952091">
        <ele>299.603854</ele>
        <time>2021-11-19T22:32:27.940Z</time>
      </trkpt>
      <trkpt lat="47.546776" lon="7.952185">
        <ele>299.560333</ele>
        <time>2021-11-19T22:32:29.127Z</time>
      </trkpt>
      <trkpt lat="47.546935" lon="7.952372">
        <ele>299.474465</ele>
        <time>2021-11-19T22:32:32.062Z</time>
      </trkpt>
      <trkpt lat="47.547090" lon="7.952543">
        <ele>299.392724</ele>
        <time>2021-11-19T22:32:34.700Z</time>
      </trkpt>
      <trkpt lat="47.547400" lon="7.952910">
        <ele>299.224881</ele>
        <time>2021-11-19T22:32:40.002Z</time>
      </trkpt>
      <trkpt lat="47.547458" lon="7.952975">
        <ele>299.194120</ele>
        <time>2021-11-19T22:32:40.920Z</time>
      </trkpt>
      <trkpt lat="47.547550" lon="7.953078">
        <ele>299.145345</ele>
        <time>2021-11-19T22:32:42.412Z</time>
      </trkpt>
      <trkpt lat="47.547624" lon="7.953160">
        <ele>299.106259</ele>
        <time>2021-11-19T22:32:43.653Z</time>
      </trkpt>
      <trkpt lat="47.547797" lon="7.953355">
        <ele>298.991758</ele>
        <time>2021-11-19T22:32:46.658Z</time>
      </trkpt>
      <trkpt lat="47.547871" lon="7.953437">
        <ele>298.926136</ele>
        <time>2021-11-19T22:32:47.953Z</time>
      </trkpt>
      <trkpt lat="47.547994" lon="7.953584">
        <ele>298.813915</ele>
        <time>2021-11-19T22:32:50.134Z</time>
      </trkpt>
      <trkpt lat="47.548115" lon="7.953729">
        <ele>298.703401</ele>
        <time>2021-11-19T22:32:52.283Z</time>
      </trkpt>
      <trkpt lat="47.548251" lon="7.953895">
        <ele>298.578270</ele>
        <time>2021-11-19T22:32:54.684Z</time>
      </trkpt>
      <trkpt lat="47.548335" lon="7.953779">
        <ele>298.496726</ele>
        <time>2021-11-19T22:32:56.590Z</time>
      </trkpt>
      <trkpt lat="47.548927" lon="7.953464">
        <ele>298.050044</ele>
        <time>2021-11-19T22:33:08.135Z</time>
      </trkpt>
      <trkpt lat="47.549296" lon="7.953268">
        <ele>297.771679</ele>
        <time>2021-11-19T22:33:14.937Z</time>
      </trkpt>
      <trkpt lat="47.549442" lon="7.953195">
        <ele>297.491796</ele>
        <time>2021-11-19T22:33:17.488Z</time>
      </trkpt>
      <trkpt lat="47.549640" lon="7.953086">
        <ele>297.105122</ele>
        <time>2021-11-19T22:33:21.202Z</time>
      </trkpt>
      <trkpt lat="47.549673" lon="7.953076">
        <ele>297.043461</ele>
        <time>2021-11-19T22:33:21.761Z</time>
      </trkpt>
      <trkpt lat="47.549687" lon="7.953071">
        <ele>297.017098</ele>
        <time>2021-11-19T22:33:21.952Z</time>
      </trkpt>
      <trkpt lat="47.550567" lon="7.953069">
        <ele>295.406152</ele>
        <time>2021-11-19T22:33:36.126Z</time>
      </trkpt>
      <trkpt lat="47.550656" lon="7.953072">
        <ele>295.243185</ele>
        <time>2021-11-19T22:33:37.442Z</time>
      </trkpt>
      <trkpt lat="47.550967" lon="7.953063">
        <ele>294.673754</ele>
        <time>2021-11-19T22:33:42.206Z</time>
      </trkpt>
      <trkpt lat="47.551254" lon="7.952986">
        <ele>294.128778</ele>
        <time>2021-11-19T22:33:46.595Z</time>
      </trkpt>
      <trkpt lat="47.551295" lon="7.952900">
        <ele>293.994434</ele>
        <time>2021-11-19T22:33:47.658Z</time>
      </trkpt>
      <trkpt lat="47.551334" lon="7.952777">
        <ele>293.821039</ele>
        <time>2021-11-19T22:33:50.333Z</time>
      </trkpt>
      <trkpt lat="47.551339" lon="7.952761">
        <ele>293.798542</ele>
        <time>2021-11-19T22:33:50.704Z</time>
      </trkpt>
      <trkpt lat="47.551381" lon="7.952341">
        <ele>293.256801</ele>
        <time>2021-11-19T22:33:59.485Z</time>
      </trkpt>
      <trkpt lat="47.551506" lon="7.950255">
        <ele>291.034386</ele>
        <time>2021-11-19T22:34:45.022Z</time>
      </trkpt>
      <trkpt lat="47.551525" lon="7.950027">
        <ele>291.008802</ele>
        <time>2021-11-19T22:34:50.483Z</time>
      </trkpt>
      <trkpt lat="47.551581" lon="7.949830">
        <ele>290.984996</ele>
        <time>2021-11-19T22:34:55.635Z</time>
      </trkpt>
      <trkpt lat="47.551673" lon="7.949634">
        <ele>290.958408</ele>
        <time>2021-11-19T22:35:01.721Z</time>
      </trkpt>
      <trkpt lat="47.551794" lon="7.949387">
        <ele>290.924419</ele>
        <time>2021-11-19T22:35:09.283Z</time>
      </trkpt>
      <trkpt lat="47.552010" lon="7.949039">
        <ele>290.871766</ele>
        <time>2021-11-19T22:35:21.453Z</time>
      </trkpt>
      <trkpt lat="47.552049" lon="7.948982">
        <ele>290.862727</ele>
        <time>2021-11-19T22:35:23.593Z</time>
      </trkpt>
      <trkpt lat="47.552094" lon="7.948926">
        <ele>290.853030</ele>
        <time>2021-11-19T22:35:25.940Z</time>
      </trkpt>
      <trkpt lat="47.552202" lon="7.949003">
        <ele>290.833254</ele>
        <time>2021-11-19T22:35:30.577Z</time>
      </trkpt>
      <trkpt lat="47.552351" lon="7.949099">
        <ele>290.806444</ele>
        <time>2021-11-19T22:35:36.866Z</time>
      </trkpt>
      <trkpt lat="47.552382" lon="7.949119">
        <ele>290.800865</ele>
        <time>2021-11-19T22:35:38.295Z</time>
      </trkpt>
      <trkpt lat="47.552518" lon="7.949236">
        <ele>290.771743</ele>
        <time>2021-11-19T22:35:44.596Z</time>
      </trkpt>
      <trkpt lat="47.552953" lon="7.948775">
        <ele>290.634222</ele>
        <time>2021-11-19T22:36:05.801Z</time>
      </trkpt>
      <trkpt lat="47.553197" lon="7.948543">
        <ele>290.559673</ele>
        <time>2021-11-19T22:36:16.676Z</time>
      </trkpt>
      <trkpt lat="47.553368" lon="7.948399">
        <ele>290.509097</ele>
        <time>2021-11-19T22:36:30.314Z</time>
      </trkpt>
      <trkpt lat="47.553483" lon="7.948661">
        <ele>290.454859</ele>
        <time>2021-11-19T22:36:37.579Z</time>
      </trkpt>
      <trkpt lat="47.553815" lon="7.949414">
        <ele>290.238278</ele>
        <time>2021-11-19T22:36:58.094Z</time>
      </trkpt>
      <trkpt lat="47.554192" lon="7.950296">
        <ele>289.490226</ele>
        <time>2021-11-19T22:37:21.327Z</time>
      </trkpt>
      <trkpt lat="47.554240" lon="7.950300">
        <ele>289.439186</ele>
        <time>2021-11-19T22:37:22.930Z</time>
      </trkpt>
      <trkpt lat="47.554303" lon="7.950312">
        <ele>289.371750</ele>
        <time>2021-11-19T22:37:23.679Z</time>
      </trkpt>
      <trkpt lat="47.554392" lon="7.950331">
        <ele>289.276286</ele>
        <time>2021-11-19T22:37:24.736Z</time>
      </trkpt>
      <trkpt lat="47.554652" lon="7.950448">
        <ele>288.987803</ele>
        <time>2021-11-19T22:37:28.042Z</time>
      </trkpt>
      <trkpt lat="47.554759" lon="7.950515">
        <ele>288.864477</ele>
        <time>2021-11-19T22:37:29.418Z</time>
      </trkpt>
      <trkpt lat="47.554954" lon="7.950665">
        <ele>288.631216</ele>
        <time>2021-11-19T22:37:32.128Z</time>
      </trkpt>
      <trkpt lat="47.555474" lon="7.951144">
        <ele>288.389323</ele>
        <time>2021-11-19T22:37:39.842Z</time>
      </trkpt>
      <trkpt lat="47.555687" lon="7.951449">
        <ele>288.375185</ele>
        <time>2021-11-19T22:37:43.933Z</time>
      </trkpt>
      <trkpt lat="47.556339" lon="7.952382">
        <ele>288.331923</ele>
        <time>2021-11-19T22:37:57.996Z</time>
      </trkpt>
      <trkpt lat="47.556386" lon="7.952449">
        <ele>288.328810</ele>
        <time>2021-11-19T22:37:59.164Z</time>
      </trkpt>
      <trkpt lat="47.556400" lon="7.952468">
        <ele>288.327904</ele>
        <time>2021-11-19T22:37:59.476Z</time>
      </trkpt>
      <trkpt lat="47.557120" lon="7.953536">
        <ele>288.861999</ele>
        <time>2021-11-19T22:38:17.504Z</time>
      </trkpt>
      <trkpt lat="47.557517" lon="7.954117">
        <ele>289.192875</ele>
        <time>2021-11-19T22:38:27.350Z</time>
      </trkpt>
      <trkpt lat="47.557687" lon="7.954371">
        <ele>289.336033</ele>
        <time>2021-11-19T22:38:31.464Z</time>
      </trkpt>
      <trkpt lat="47.557874" lon="7.954579">
        <ele>289.391610</ele>
        <time>2021-11-19T22:38:35.191Z</time>
      </trkpt>
      <trkpt lat="47.557899" lon="7.954581">
        <ele>289.392018</ele>
        <time>2021-11-19T22:38:35.688Z</time>
      </trkpt>
      <trkpt lat="47.557935" lon="7.954571">
        <ele>289.392615</ele>
        <time>2021-11-19T22:38:36.338Z</time>
      </trkpt>
      <trkpt lat="47.558070" lon="7.954468">
        <ele>289.395090</ele>
        <time>2021-11-19T22:38:38.708Z</time>
      </trkpt>
      <trkpt lat="47.558107" lon="7.954410">
        <ele>289.395968</ele>
        <time>2021-11-19T22:38:39.637Z</time>
      </trkpt>
      <trkpt lat="47.558161" lon="7.954466">
        <ele>289.397043</ele>
        <time>2021-11-19T22:38:40.629Z</time>
      </trkpt>
      <trkpt lat="47.558201" lon="7.954539">
        <ele>289.398077</ele>
        <time>2021-11-19T22:38:41.711Z</time>
      </trkpt>
      <trkpt lat="47.558360" lon="7.955074">
        <ele>289.404507</ele>
        <time>2021-11-19T22:38:47.916Z</time>
      </trkpt>
      <trkpt lat="47.558659" lon="7.956055">
        <ele>289.416347</ele>
        <time>2021-11-19T22:38:58.216Z</time>
      </trkpt>
      <trkpt lat="47.558756" lon="7.956469">
        <ele>289.330646</ele>
        <time>2021-11-19T22:39:02.109Z</time>
      </trkpt>
      <trkpt lat="47.559224" lon="7.958738">
        <ele>288.444023</ele>
        <time>2021-11-19T22:39:22.553Z</time>
      </trkpt>
      <trkpt lat="47.559324" lon="7.959601">
        <ele>288.595456</ele>
        <time>2021-11-19T22:39:30.911Z</time>
      </trkpt>
      <trkpt lat="47.559346" lon="7.959868">
        <ele>288.652288</ele>
        <time>2021-11-19T22:39:34.005Z</time>
      </trkpt>
      <trkpt lat="47.559406" lon="7.960730">
        <ele>288.835381</ele>
        <time>2021-11-19T22:39:43.488Z</time>
      </trkpt>
      <trkpt lat="47.559408" lon="7.961845">
        <ele>289.162801</ele>
        <time>2021-11-19T22:39:57.253Z</time>
      </trkpt>
      <trkpt lat="47.559368" lon="7.962709">
        <ele>289.542913</ele>
        <time>2021-11-19T22:40:08.495Z</time>
      </trkpt>
      <trkpt lat="47.559232" lon="7.963800">
        <ele>290.029869</ele>
        <time>2021-11-19T22:40:21.087Z</time>
      </trkpt>
      <trkpt lat="47.559029" lon="7.964894">
        <ele>290.075070</ele>
        <time>2021-11-19T22:40:32.790Z</time>
      </trkpt>
      <trkpt lat="47.558949" lon="7.965326">
        <ele>290.032551</ele>
        <time>2021-11-19T22:40:37.026Z</time>
      </trkpt>
      <trkpt lat="47.558732" lon="7.966356">
        <ele>289.930137</ele>
        <time>2021-11-19T22:40:46.909Z</time>
      </trkpt>
      <trkpt lat="47.558606" lon="7.966985">
        <ele>289.909414</ele>
        <time>2021-11-19T22:40:53.165Z</time>
      </trkpt>
      <trkpt lat="47.558448" lon="7.967701">
        <ele>289.923439</ele>
        <time>2021-11-19T22:41:00.420Z</time>
      </trkpt>
      <trkpt lat="47.558430" lon="7.967788">
        <ele>289.925133</ele>
        <time>2021-11-19T22:41:01.303Z</time>
      </trkpt>
      <trkpt lat="47.558327" lon="7.968108">
        <ele>289.931734</ele>
        <time>2021-11-19T22:41:05.256Z</time>
      </trkpt>
      <trkpt lat="47.558313" lon="7.968259">
        <ele>289.934571</ele>
        <time>2021-11-19T22:41:06.715Z</time>
      </trkpt>
      <trkpt lat="47.558296" lon="7.968403">
        <ele>289.937293</ele>
        <time>2021-11-19T22:41:08.518Z</time>
      </trkpt>
      <trkpt lat="47.558225" lon="7.968807">
        <ele>289.945065</ele>
        <time>2021-11-19T22:41:12.972Z</time>
      </trkpt>
      <trkpt lat="47.558045" lon="7.969704">
        <ele>289.898510</ele>
        <time>2021-11-19T22:41:22.542Z</time>
      </trkpt>
      <trkpt lat="47.557756" lon="7.971140">
        <ele>289.752555</ele>
        <time>2021-11-19T22:41:37.233Z</time>
      </trkpt>
      <trkpt lat="47.557538" lon="7.972196">
        <ele>289.645303</ele>
        <time>2021-11-19T22:41:46.917Z</time>
      </trkpt>
      <trkpt lat="47.557419" lon="7.972636">
        <ele>289.599432</ele>
        <time>2021-11-19T22:41:51.173Z</time>
      </trkpt>
      <trkpt lat="47.557323" lon="7.972992">
        <ele>289.562334</ele>
        <time>2021-11-19T22:41:54.789Z</time>
      </trkpt>
      <trkpt lat="47.557235" lon="7.973507">
        <ele>289.510925</ele>
        <time>2021-11-19T22:41:59.867Z</time>
      </trkpt>
      <trkpt lat="47.557108" lon="7.974186">
        <ele>289.442741</ele>
        <time>2021-11-19T22:42:07.020Z</time>
      </trkpt>
      <trkpt lat="47.557045" lon="7.974526">
        <ele>289.581861</ele>
        <time>2021-11-19T22:42:11.054Z</time>
      </trkpt>
      <trkpt lat="47.556769" lon="7.976421">
        <ele>290.640181</ele>
        <time>2021-11-19T22:42:35.214Z</time>
      </trkpt>
      <trkpt lat="47.556668" lon="7.978159">
        <ele>291.212747</ele>
        <time>2021-11-19T22:42:57.128Z</time>
      </trkpt>
      <trkpt lat="47.557185" lon="7.988787">
        <ele>293.688692</ele>
        <time>2021-11-19T22:44:51.463Z</time>
      </trkpt>
      <trkpt lat="47.557298" lon="7.990679">
        <ele>294.123638</ele>
        <time>2021-11-19T22:45:12.687Z</time>
      </trkpt>
      <trkpt lat="47.557377" lon="7.991413">
        <ele>294.257106</ele>
        <time>2021-11-19T22:45:20.974Z</time>
      </trkpt>
      <trkpt lat="47.557666" lon="7.996934">
        <ele>295.447948</ele>
        <time>2021-11-19T22:46:19.831Z</time>
      </trkpt>
      <trkpt lat="47.557611" lon="7.998828">
        <ele>296.068005</ele>
        <time>2021-11-19T22:46:42.459Z</time>
      </trkpt>
      <trkpt lat="47.557595" lon="7.999065">
        <ele>296.151457</ele>
        <time>2021-11-19T22:46:45.483Z</time>
      </trkpt>
      <trkpt lat="47.557590" lon="7.999121">
        <ele>296.171249</ele>
        <time>2021-11-19T22:46:46.142Z</time>
      </trkpt>
      <trkpt lat="47.557569" lon="7.999330">
        <ele>296.245283</ele>
        <time>2021-11-19T22:46:51.730Z</time>
      </trkpt>
      <trkpt lat="47.557552" lon="7.999488">
        <ele>296.301341</ele>
        <time>2021-11-19T22:46:53.748Z</time>
      </trkpt>
      <trkpt lat="47.557421" lon="8.000151">
        <ele>296.543388</ele>
        <time>2021-11-19T22:47:01.947Z</time>
      </trkpt>
      <trkpt lat="47.556859" lon="8.003033">
        <ele>296.591594</ele>
        <time>2021-11-19T22:47:31.660Z</time>
      </trkpt>
      <trkpt lat="47.556414" lon="8.004608">
        <ele>295.972996</ele>
        <time>2021-11-19T22:47:46.429Z</time>
      </trkpt>
      <trkpt lat="47.555689" lon="8.008075">
        <ele>294.334473</ele>
        <time>2021-11-19T22:48:18.096Z</time>
      </trkpt>
      <trkpt lat="47.555492" lon="8.008854">
        <ele>293.865790</ele>
        <time>2021-11-19T22:48:25.116Z</time>
      </trkpt>
      <trkpt lat="47.555373" lon="8.009365">
        <ele>293.536524</ele>
        <time>2021-11-19T22:48:29.601Z</time>
      </trkpt>
      <trkpt lat="47.555124" lon="8.010557">
        <ele>292.776473</ele>
        <time>2021-11-19T22:48:39.929Z</time>
      </trkpt>
      <trkpt lat="47.555069" lon="8.010772">
        <ele>292.636420</ele>
        <time>2021-11-19T22:48:41.761Z</time>
      </trkpt>
      <trkpt lat="47.554818" lon="8.011865">
        <ele>292.271429</ele>
        <time>2021-11-19T22:48:51.466Z</time>
      </trkpt>
      <trkpt lat="47.554682" lon="8.012449">
        <ele>292.090484</ele>
        <time>2021-11-19T22:48:57.169Z</time>
      </trkpt>
      <trkpt lat="47.554665" lon="8.012540">
        <ele>292.062829</ele>
        <time>2021-11-19T22:48:58.009Z</time>
      </trkpt>
      <trkpt lat="47.554546" lon="8.013079">
        <ele>291.896727</ele>
        <time>2021-11-19T22:49:03.511Z</time>
      </trkpt>
      <trkpt lat="47.554393" lon="8.013577">
        <ele>291.884731</ele>
        <time>2021-11-19T22:49:09.293Z</time>
      </trkpt>
      <trkpt lat="47.554329" lon="8.013807">
        <ele>291.971501</ele>
        <time>2021-11-19T22:49:12.167Z</time>
      </trkpt>
      <trkpt lat="47.553882" lon="8.015749">
        <ele>292.687142</ele>
        <time>2021-11-19T22:49:35.970Z</time>
      </trkpt>
      <trkpt lat="47.553715" lon="8.016236">
        <ele>292.886835</ele>
        <time>2021-11-19T22:49:42.431Z</time>
      </trkpt>
      <trkpt lat="47.553318" lon="8.017064">
        <ele>293.263641</ele>
        <time>2021-11-19T22:49:54.314Z</time>
      </trkpt>
      <trkpt lat="47.553229" lon="8.017328">
        <ele>293.373122</ele>
        <time>2021-11-19T22:49:57.924Z</time>
      </trkpt>
      <trkpt lat="47.553159" lon="8.017677">
        <ele>293.508195</ele>
        <time>2021-11-19T22:50:02.524Z</time>
      </trkpt>
      <trkpt lat="47.553012" lon="8.018748">
        <ele>293.826897</ele>
        <time>2021-11-19T22:50:14.152Z</time>
      </trkpt>
      <trkpt lat="47.553028" lon="8.018988">
        <ele>293.875787</ele>
        <time>2021-11-19T22:50:16.476Z</time>
      </trkpt>
      <trkpt lat="47.553030" lon="8.019182">
        <ele>293.915119</ele>
        <time>2021-11-19T22:50:18.170Z</time>
      </trkpt>
      <trkpt lat="47.553055" lon="8.019647">
        <ele>294.009682</ele>
        <time>2021-11-19T22:50:23.014Z</time>
      </trkpt>
      <trkpt lat="47.553064" lon="8.019820">
        <ele>294.044857</ele>
        <time>2021-11-19T22:50:24.495Z</time>
      </trkpt>
      <trkpt lat="47.553056" lon="8.019871">
        <ele>294.055471</ele>
        <time>2021-11-19T22:50:24.967Z</time>
      </trkpt>
      <trkpt lat="47.553031" lon="8.019915">
        <ele>294.067131</ele>
        <time>2021-11-19T22:50:25.590Z</time>
      </trkpt>
      <trkpt lat="47.552961" lon="8.019989">
        <ele>294.092960</ele>
        <time>2021-11-19T22:50:27.020Z</time>
      </trkpt>
      <trkpt lat="47.552879" lon="8.020034">
        <ele>294.119225</ele>
        <time>2021-11-19T22:50:28.756Z</time>
      </trkpt>
      <trkpt lat="47.552872" lon="8.020109">
        <ele>294.134573</ele>
        <time>2021-11-19T22:50:29.356Z</time>
      </trkpt>
      <trkpt lat="47.552813" lon="8.020595">
        <ele>294.234677</ele>
        <time>2021-11-19T22:50:35.198Z</time>
      </trkpt>
      <trkpt lat="47.552776" lon="8.021316">
        <ele>295.239799</ele>
        <time>2021-11-19T22:50:44.090Z</time>
      </trkpt>
      <trkpt lat="47.552959" lon="8.021335">
        <ele>295.693661</ele>
        <time>2021-11-19T22:50:48.058Z</time>
      </trkpt>
      <trkpt lat="47.552975" lon="8.021345">
        <ele>295.736623</ele>
        <time>2021-11-19T22:50:48.580Z</time>
      </trkpt>
      <trkpt lat="47.553183" lon="8.021466">
        <ele>296.289468</ele>
        <time>2021-11-19T22:50:52.733Z</time>
      </trkpt>
      <trkpt lat="47.553232" lon="8.021484">
        <ele>296.414366</ele>
        <time>2021-11-19T22:50:54.056Z</time>
      </trkpt>
      <trkpt lat="47.553266" lon="8.021493">
        <ele>296.499816</ele>
        <time>2021-11-19T22:50:54.853Z</time>
      </trkpt>
      <trkpt lat="47.553291" lon="8.021502">
        <ele>296.563467</ele>
        <time>2021-11-19T22:50:55.529Z</time>
      </trkpt>
      <trkpt lat="47.553305" lon="8.021505">
        <ele>296.598464</ele>
        <time>2021-11-19T22:50:55.934Z</time>
      </trkpt>
      <trkpt lat="47.553565" lon="8.021501">
        <ele>297.241752</ele>
        <time>2021-11-19T22:51:02.453Z</time>
      </trkpt>
      <trkpt lat="47.553607" lon="8.021497">
        <ele>297.345877</ele>
        <time>2021-11-19T22:51:03.630Z</time>
      </trkpt>
      <trkpt lat="47.553614" lon="8.021587">
        <ele>297.497148</ele>
        <time>2021-11-19T22:51:05.388Z</time>
      </trkpt>
      <trkpt lat="47.553615" lon="8.021606">
        <ele>297.528970</ele>
        <time>2021-11-19T22:51:05.835Z</time>
      </trkpt>
      <trkpt lat="47.553619" lon="8.021667">
        <ele>297.631303</ele>
        <time>2021-11-19T22:51:07.045Z</time>
      </trkpt>
      <trkpt lat="47.553687" lon="8.021682">
        <ele>297.801393</ele>
        <time>2021-11-19T22:51:09.151Z</time>
      </trkpt>
      <trkpt lat="47.553878" lon="8.021738">
        <ele>298.283100</ele>
        <time>2021-11-19T22:51:15.137Z</time>
      </trkpt>
      <trkpt lat="47.553961" lon="8.021754">
        <ele>298.490177</ele>
        <time>2021-11-19T22:51:18.103Z</time>
      </trkpt>
      <trkpt lat="47.554086" lon="8.021778">
        <ele>298.899377</ele>
        <time>2021-11-19T22:51:22.348Z</time>
      </trkpt>
      <trkpt lat="47.554332" lon="8.021803">
        <ele>300.173370</ele>
        <time>2021-11-19T22:51:30.954Z</time>
      </trkpt>
      <trkpt lat="47.554468" lon="8.021743">
        <ele>300.906526</ele>
        <time>2021-11-19T22:51:35.830Z</time>
      </trkpt>
      <trkpt lat="47.554589" lon="8.021606">
        <ele>301.693320</ele>
        <time>2021-11-19T22:51:40.863Z</time>
      </trkpt>
      <trkpt lat="47.554743" lon="8.021466">
        <ele>302.626810</ele>
        <time>2021-11-19T22:51:47.459Z</time>
      </trkpt>
      <trkpt lat="47.554958" lon="8.021349">
        <ele>303.810196</ele>
        <time>2021-11-19T22:51:54.915Z</time>
      </trkpt>
      <trkpt lat="47.555346" lon="8.021253">
        <ele>305.842630</ele>
        <time>2021-11-19T22:52:09.069Z</time>
      </trkpt>
      <trkpt lat="47.555521" lon="8.021257">
        <ele>306.746909</ele>
        <time>2021-11-19T22:52:15.492Z</time>
      </trkpt>
      <trkpt lat="47.555963" lon="8.021294">
        <ele>309.263624</ele>
        <time>2021-11-19T22:52:33.037Z</time>
      </trkpt>
      <trkpt lat="47.556296" lon="8.021331">
        <ele>311.373733</ele>
        <time>2021-11-19T22:52:47.205Z</time>
      </trkpt>
      <trkpt lat="47.556552" lon="8.021260">
        <ele>313.019469</ele>
        <time>2021-11-19T22:52:57.178Z</time>
      </trkpt>
      <trkpt lat="47.556632" lon="8.021199">
        <ele>313.587986</ele>
        <time>2021-11-19T22:53:00.512Z</time>
      </trkpt>
      <trkpt lat="47.556709" lon="8.021127">
        <ele>314.163320</ele>
        <time>2021-11-19T22:53:03.631Z</time>
      </trkpt>
      <trkpt lat="47.556718" lon="8.021112">
        <ele>314.248911</ele>
        <time>2021-11-19T22:53:04.200Z</time>
      </trkpt>
      <trkpt lat="47.556775" lon="8.021020">
        <ele>314.781496</ele>
        <time>2021-11-19T22:53:07.724Z</time>
      </trkpt>
      <trkpt lat="47.556880" lon="8.020827">
        <ele>315.838655</ele>
        <time>2021-11-19T22:53:14.344Z</time>
      </trkpt>
      <trkpt lat="47.556951" lon="8.020734">
        <ele>316.437456</ele>
        <time>2021-11-19T22:53:17.555Z</time>
      </trkpt>
      <trkpt lat="47.557049" lon="8.020675">
        <ele>317.105870</ele>
        <time>2021-11-19T22:53:22.055Z</time>
      </trkpt>
      <trkpt lat="47.557140" lon="8.020649">
        <ele>317.691484</ele>
        <time>2021-11-19T22:53:26.633Z</time>
      </trkpt>
      <trkpt lat="47.557326" lon="8.020583">
        <ele>318.900032</ele>
        <time>2021-11-19T22:53:33.692Z</time>
      </trkpt>
      <trkpt lat="47.557406" lon="8.020509">
        <ele>319.505387</ele>
        <time>2021-11-19T22:53:37.946Z</time>
      </trkpt>
      <trkpt lat="47.557453" lon="8.020436">
        <ele>319.968131</ele>
        <time>2021-11-19T22:53:41.829Z</time>
      </trkpt>
      <trkpt lat="47.557491" lon="8.020177">
        <ele>321.183779</ele>
        <time>2021-11-19T22:53:48.758Z</time>
      </trkpt>
      <trkpt lat="47.557398" lon="8.019696">
        <ele>323.478634</ele>
        <time>2021-11-19T22:54:03.778Z</time>
      </trkpt>
      <trkpt lat="47.557390" lon="8.019571">
        <ele>324.054517</ele>
        <time>2021-11-19T22:54:07.756Z</time>
      </trkpt>
      <trkpt lat="47.557414" lon="8.019414">
        <ele>324.792838</ele>
        <time>2021-11-19T22:54:13.188Z</time>
      </trkpt>
      <trkpt lat="47.557532" lon="8.018992">
        <ele>326.887899</ele>
        <time>2021-11-19T22:54:25.515Z</time>
      </trkpt>
      <trkpt lat="47.557566" lon="8.018865">
        <ele>327.514541</ele>
        <time>2021-11-19T22:54:30.258Z</time>
      </trkpt>
      <trkpt lat="47.557700" lon="8.018487">
        <ele>329.472867</ele>
        <time>2021-11-19T22:54:40.294Z</time>
      </trkpt>
      <trkpt lat="47.557746" lon="8.018355">
        <ele>330.154234</ele>
        <time>2021-11-19T22:54:44.692Z</time>
      </trkpt>
      <trkpt lat="47.557944" lon="8.018030">
        <ele>332.194866</ele>
        <time>2021-11-19T22:54:56.322Z</time>
      </trkpt>
      <trkpt lat="47.558167" lon="8.017713">
        <ele>334.415305</ele>
        <time>2021-11-19T22:55:09.200Z</time>
      </trkpt>
      <trkpt lat="47.558238" lon="8.017607">
        <ele>335.139503</ele>
        <time>2021-11-19T22:55:13.589Z</time>
      </trkpt>
      <trkpt lat="47.558302" lon="8.017520">
        <ele>335.763561</ele>
        <time>2021-11-19T22:55:17.161Z</time>
      </trkpt>
      <trkpt lat="47.558316" lon="8.017494">
        <ele>335.924850</ele>
        <time>2021-11-19T22:55:18.811Z</time>
      </trkpt>
      <trkpt lat="47.558404" lon="8.017331">
        <ele>336.937047</ele>
        <time>2021-11-19T22:55:23.968Z</time>
      </trkpt>
      <trkpt lat="47.558419" lon="8.017286">
        <ele>337.180420</ele>
        <time>2021-11-19T22:55:25.405Z</time>
      </trkpt>
      <trkpt lat="47.558456" lon="8.017175">
        <ele>337.780739</ele>
        <time>2021-11-19T22:55:29.177Z</time>
      </trkpt>
      <trkpt lat="47.558472" lon="8.016633">
        <ele>340.411412</ele>
        <time>2021-11-19T22:55:44.798Z</time>
      </trkpt>
      <trkpt lat="47.558468" lon="8.016544">
        <ele>340.843929</ele>
        <time>2021-11-19T22:55:47.050Z</time>
      </trkpt>
      <trkpt lat="47.558468" lon="8.016544">
        <ele>340.843929</ele>
        <time>2021-11-19T22:55:47.075Z</time>
      </trkpt>
      <trkpt lat="47.558466" lon="8.016482">
        <ele>341.144911</ele>
        <time>2021-11-19T22:55:50.215Z</time>
      </trkpt>
      <trkpt lat="47.558477" lon="8.015998">
        <ele>343.493158</ele>
        <time>2021-11-19T22:56:03.776Z</time>
      </trkpt>
      <trkpt lat="47.558647" lon="8.015459">
        <ele>346.786352</ele>
        <time>2021-11-19T22:56:24.118Z</time>
      </trkpt>
      <trkpt lat="47.559052" lon="8.014792">
        <ele>352.092561</ele>
        <time>2021-11-19T22:56:53.978Z</time>
      </trkpt>
      <trkpt lat="47.559301" lon="8.014552">
        <ele>354.695622</ele>
        <time>2021-11-19T22:57:10.680Z</time>
      </trkpt>
      <trkpt lat="47.559783" lon="8.014275">
        <ele>359.226094</ele>
        <time>2021-11-19T22:57:36.861Z</time>
      </trkpt>
      <trkpt lat="47.559980" lon="8.014260">
        <ele>360.843709</ele>
        <time>2021-11-19T22:57:46.808Z</time>
      </trkpt>
      <trkpt lat="47.560319" lon="8.014395">
        <ele>363.412543</ele>
        <time>2021-11-19T22:58:02.965Z</time>
      </trkpt>
      <trkpt lat="47.560683" lon="8.014628">
        <ele>366.314197</ele>
        <time>2021-11-19T22:58:19.452Z</time>
      </trkpt>
      <trkpt lat="47.560834" lon="8.014633">
        <ele>367.419498</ele>
        <time>2021-11-19T22:58:24.969Z</time>
      </trkpt>
      <trkpt lat="47.560957" lon="8.014567">
        <ele>368.376808</ele>
        <time>2021-11-19T22:58:31.192Z</time>
      </trkpt>
      <trkpt lat="47.560995" lon="8.014547">
        <ele>368.671912</ele>
        <time>2021-11-19T22:58:32.096Z</time>
      </trkpt>
      <trkpt lat="47.561174" lon="8.014255">
        <ele>370.620035</ele>
        <time>2021-11-19T22:58:44.799Z</time>
      </trkpt>
      <trkpt lat="47.561324" lon="8.013664">
        <ele>373.732835</ele>
        <time>2021-11-19T22:59:03.637Z</time>
      </trkpt>
      <trkpt lat="47.561442" lon="8.013448">
        <ele>375.080475</ele>
        <time>2021-11-19T22:59:10.277Z</time>
      </trkpt>
      <trkpt lat="47.561619" lon="8.013259">
        <ele>376.648211</ele>
        <time>2021-11-19T22:59:20.220Z</time>
      </trkpt>
      <trkpt lat="47.561899" lon="8.013170">
        <ele>378.706085</ele>
        <time>2021-11-19T22:59:33.190Z</time>
      </trkpt>
      <trkpt lat="47.562066" lon="8.013151">
        <ele>379.909697</ele>
        <time>2021-11-19T22:59:38.960Z</time>
      </trkpt>
      <trkpt lat="47.562148" lon="8.013140">
        <ele>380.501367</ele>
        <time>2021-11-19T22:59:41.880Z</time>
      </trkpt>
      <trkpt lat="47.562228" lon="8.013107">
        <ele>381.098111</ele>
        <time>2021-11-19T22:59:46.251Z</time>
      </trkpt>
      <trkpt lat="47.562467" lon="8.013027">
        <ele>382.858857</ele>
        <time>2021-11-19T22:59:55.932Z</time>
      </trkpt>
      <trkpt lat="47.562986" lon="8.012625">
        <ele>386.979352</ele>
        <time>2021-11-19T23:00:23.813Z</time>
      </trkpt>
      <trkpt lat="47.563093" lon="8.012604">
        <ele>387.657408</ele>
        <time>2021-11-19T23:00:28.438Z</time>
      </trkpt>
      <trkpt lat="47.563207" lon="8.012665">
        <ele>388.418821</ele>
        <time>2021-11-19T23:00:35.469Z</time>
      </trkpt>
      <trkpt lat="47.563289" lon="8.012797">
        <ele>389.179387</ele>
        <time>2021-11-19T23:00:41.151Z</time>
      </trkpt>
      <trkpt lat="47.563524" lon="8.013612">
        <ele>392.936385</ele>
        <time>2021-11-19T23:01:07.391Z</time>
      </trkpt>
      <trkpt lat="47.563694" lon="8.013972">
        <ele>394.798998</ele>
        <time>2021-11-19T23:01:17.116Z</time>
      </trkpt>
      <trkpt lat="47.563758" lon="8.014030">
        <ele>395.270268</ele>
        <time>2021-11-19T23:01:20.684Z</time>
      </trkpt>
      <trkpt lat="47.563908" lon="8.014085">
        <ele>396.240999</ele>
        <time>2021-11-19T23:01:25.464Z</time>
      </trkpt>
      <trkpt lat="47.564241" lon="8.013975">
        <ele>397.893642</ele>
        <time>2021-11-19T23:01:36.309Z</time>
      </trkpt>
      <trkpt lat="47.564751" lon="8.013465">
        <ele>399.109252</ele>
        <time>2021-11-19T23:01:52.857Z</time>
      </trkpt>
      <trkpt lat="47.565338" lon="8.012662">
        <ele>400.687617</ele>
        <time>2021-11-19T23:02:07.747Z</time>
      </trkpt>
      <trkpt lat="47.565501" lon="8.012111">
        <ele>401.583868</ele>
        <time>2021-11-19T23:02:14.323Z</time>
      </trkpt>
      <trkpt lat="47.565472" lon="8.011708">
        <ele>402.314490</ele>
        <time>2021-11-19T23:02:19.271Z</time>
      </trkpt>
      <trkpt lat="47.565220" lon="8.011190">
        <ele>403.465712</ele>
        <time>2021-11-19T23:02:28.134Z</time>
      </trkpt>
      <trkpt lat="47.565079" lon="8.011063">
        <ele>403.906540</ele>
        <time>2021-11-19T23:02:32.008Z</time>
      </trkpt>
      <trkpt lat="47.564831" lon="8.010977">
        <ele>404.587023</ele>
        <time>2021-11-19T23:02:38.456Z</time>
      </trkpt>
      <trkpt lat="47.564410" lon="8.011026">
        <ele>405.715279</ele>
        <time>2021-11-19T23:02:51.421Z</time>
      </trkpt>
      <trkpt lat="47.564251" lon="8.010805">
        <ele>406.846069</ele>
        <time>2021-11-19T23:02:59.358Z</time>
      </trkpt>
      <trkpt lat="47.564285" lon="8.010543">
        <ele>408.304363</ele>
        <time>2021-11-19T23:03:06.626Z</time>
      </trkpt>
      <trkpt lat="47.564366" lon="8.010437">
        <ele>409.179686</ele>
        <time>2021-11-19T23:03:11.357Z</time>
      </trkpt>
      <trkpt lat="47.564876" lon="8.010157">
        <ele>413.585254</ele>
        <time>2021-11-19T23:03:37.304Z</time>
      </trkpt>
      <trkpt lat="47.565384" lon="8.009424">
        <ele>419.328464</ele>
        <time>2021-11-19T23:04:14.858Z</time>
      </trkpt>
      <trkpt lat="47.565625" lon="8.009299">
        <ele>421.442064</ele>
        <time>2021-11-19T23:04:28.595Z</time>
      </trkpt>
      <trkpt lat="47.566213" lon="8.009186">
        <ele>426.517218</ele>
        <time>2021-11-19T23:05:00.028Z</time>
      </trkpt>
      <trkpt lat="47.566636" lon="8.009033">
        <ele>430.244177</ele>
        <time>2021-11-19T23:05:22.187Z</time>
      </trkpt>
      <trkpt lat="47.567295" lon="8.008508">
        <ele>436.455404</ele>
        <time>2021-11-19T23:05:55.770Z</time>
      </trkpt>
      <trkpt lat="47.567593" lon="8.008428">
        <ele>438.284779</ele>
        <time>2021-11-19T23:06:08.863Z</time>
      </trkpt>
      <trkpt lat="47.568942" lon="8.008356">
        <ele>446.438758</ele>
        <time>2021-11-19T23:07:00.846Z</time>
      </trkpt>
      <trkpt lat="47.569032" lon="8.008394">
        <ele>446.921783</ele>
        <time>2021-11-19T23:07:04.358Z</time>
      </trkpt>
      <trkpt lat="47.569090" lon="8.008418">
        <ele>447.080820</ele>
        <time>2021-11-19T23:07:05.893Z</time>
      </trkpt>
      <trkpt lat="47.569232" lon="8.008468">
        <ele>447.466284</ele>
        <time>2021-11-19T23:07:11.474Z</time>
      </trkpt>
      <trkpt lat="47.569356" lon="8.008548">
        <ele>447.823453</ele>
        <time>2021-11-19T23:07:15.193Z</time>
      </trkpt>
      <trkpt lat="47.569733" lon="8.009325">
        <ele>449.528818</ele>
        <time>2021-11-19T23:07:32.798Z</time>
      </trkpt>
      <trkpt lat="47.569881" lon="8.009480">
        <ele>450.007424</ele>
        <time>2021-11-19T23:07:36.869Z</time>
      </trkpt>
      <trkpt lat="47.569985" lon="8.009558">
        <ele>450.315253</ele>
        <time>2021-11-19T23:07:39.989Z</time>
      </trkpt>
      <trkpt lat="47.570110" lon="8.009604">
        <ele>450.655406</ele>
        <time>2021-11-19T23:07:41.887Z</time>
      </trkpt>
      <trkpt lat="47.570537" lon="8.009765">
        <ele>451.642063</ele>
        <time>2021-11-19T23:07:49.573Z</time>
      </trkpt>
      <trkpt lat="47.570679" lon="8.009960">
        <ele>451.724272</ele>
        <time>2021-11-19T23:07:52.454Z</time>
      </trkpt>
      <trkpt lat="47.570901" lon="8.010376">
        <ele>451.876244</ele>
        <time>2021-11-19T23:07:57.545Z</time>
      </trkpt>
      <trkpt lat="47.571091" lon="8.010633">
        <ele>451.985482</ele>
        <time>2021-11-19T23:08:01.573Z</time>
      </trkpt>
      <trkpt lat="47.571221" lon="8.010706">
        <ele>452.044520</ele>
        <time>2021-11-19T23:08:03.234Z</time>
      </trkpt>
      <trkpt lat="47.571485" lon="8.010679">
        <ele>452.156901</ele>
        <time>2021-11-19T23:08:07.198Z</time>
      </trkpt>
      <trkpt lat="47.571642" lon="8.010477">
        <ele>452.245192</ele>
        <time>2021-11-19T23:08:10.139Z</time>
      </trkpt>
      <trkpt lat="47.571749" lon="8.009974">
        <ele>452.582941</ele>
        <time>2021-11-19T23:08:16.066Z</time>
      </trkpt>
      <trkpt lat="47.571538" lon="8.008187">
        <ele>457.093959</ele>
        <time>2021-11-19T23:08:49.348Z</time>
      </trkpt>
      <trkpt lat="47.571577" lon="8.007177">
        <ele>460.325645</ele>
        <time>2021-11-19T23:09:15.069Z</time>
      </trkpt>
      <trkpt lat="47.571832" lon="8.005893">
        <ele>467.571375</ele>
        <time>2021-11-19T23:09:57.310Z</time>
      </trkpt>
      <trkpt lat="47.571947" lon="8.005585">
        <ele>469.477009</ele>
        <time>2021-11-19T23:10:09.650Z</time>
      </trkpt>
      <trkpt lat="47.572250" lon="8.005072">
        <ele>473.167938</ele>
        <time>2021-11-19T23:10:33.162Z</time>
      </trkpt>
      <trkpt lat="47.572545" lon="8.004649">
        <ele>476.419722</ele>
        <time>2021-11-19T23:10:54.565Z</time>
      </trkpt>
      <trkpt lat="47.572581" lon="8.004598">
        <ele>476.813809</ele>
        <time>2021-11-19T23:10:57.590Z</time>
      </trkpt>
      <trkpt lat="47.572812" lon="8.004145">
        <ele>479.845513</ele>
        <time>2021-11-19T23:11:16.807Z</time>
      </trkpt>
      <trkpt lat="47.572894" lon="8.003925">
        <ele>481.187423</ele>
        <time>2021-11-19T23:11:24.342Z</time>
      </trkpt>
      <trkpt lat="47.572959" lon="8.003732">
        <ele>482.339101</ele>
        <time>2021-11-19T23:11:31.795Z</time>
      </trkpt>
      <trkpt lat="47.573083" lon="8.003074">
        <ele>485.986612</ele>
        <time>2021-11-19T23:11:51.508Z</time>
      </trkpt>
      <trkpt lat="47.573074" lon="8.002958">
        <ele>486.610012</ele>
        <time>2021-11-19T23:11:54.840Z</time>
      </trkpt>
      <trkpt lat="47.573211" lon="8.002587">
        <ele>488.349657</ele>
        <time>2021-11-19T23:12:05.668Z</time>
      </trkpt>
      <trkpt lat="47.573308" lon="8.002463">
        <ele>488.925810</ele>
        <time>2021-11-19T23:12:10.070Z</time>
      </trkpt>
      <trkpt lat="47.573400" lon="8.002344">
        <ele>489.475032</ele>
        <time>2021-11-19T23:12:15.546Z</time>
      </trkpt>
      <trkpt lat="47.573502" lon="8.002634">
        <ele>490.467465</ele>
        <time>2021-11-19T23:12:22.587Z</time>
      </trkpt>
      <trkpt lat="47.573643" lon="8.002920">
        <ele>491.542380</ele>
        <time>2021-11-19T23:12:31.278Z</time>
      </trkpt>
      <trkpt lat="47.573679" lon="8.003065">
        <ele>492.011237</ele>
        <time>2021-11-19T23:12:34.480Z</time>
      </trkpt>
      <trkpt lat="47.573718" lon="8.003157">
        <ele>492.340953</ele>
        <time>2021-11-19T23:12:36.857Z</time>
      </trkpt>
      <trkpt lat="47.573800" lon="8.003256">
        <ele>492.816653</ele>
        <time>2021-11-19T23:12:40.929Z</time>
      </trkpt>
      <trkpt lat="47.574217" lon="8.003704">
        <ele>495.133168</ele>
        <time>2021-11-19T23:12:55.065Z</time>
      </trkpt>
      <trkpt lat="47.574305" lon="8.003732">
        <ele>495.538007</ele>
        <time>2021-11-19T23:12:57.528Z</time>
      </trkpt>
      <trkpt lat="47.574392" lon="8.003728">
        <ele>495.776415</ele>
        <time>2021-11-19T23:13:00.740Z</time>
      </trkpt>
      <trkpt lat="47.574686" lon="8.003684">
        <ele>495.924164</ele>
        <time>2021-11-19T23:13:06.881Z</time>
      </trkpt>
      <trkpt lat="47.574764" lon="8.003762">
        <ele>495.971209</ele>
        <time>2021-11-19T23:13:09.371Z</time>
      </trkpt>
      <trkpt lat="47.575168" lon="8.004892">
        <ele>496.402595</ele>
        <time>2021-11-19T23:13:25.162Z</time>
      </trkpt>
      <trkpt lat="47.575411" lon="8.005256">
        <ele>496.575332</ele>
        <time>2021-11-19T23:13:29.839Z</time>
      </trkpt>
      <trkpt lat="47.575508" lon="8.005404">
        <ele>496.644935</ele>
        <time>2021-11-19T23:13:31.393Z</time>
      </trkpt>
      <trkpt lat="47.575531" lon="8.005431">
        <ele>496.629775</ele>
        <time>2021-11-19T23:13:31.687Z</time>
      </trkpt>
      <trkpt lat="47.575756" lon="8.005585">
        <ele>495.524080</ele>
        <time>2021-11-19T23:13:34.232Z</time>
      </trkpt>
      <trkpt lat="47.575892" lon="8.005591">
        <ele>494.917039</ele>
        <time>2021-11-19T23:13:35.586Z</time>
      </trkpt>
      <trkpt lat="47.576902" lon="8.005070">
        <ele>490.145818</ele>
        <time>2021-11-19T23:13:45.656Z</time>
      </trkpt>
      <trkpt lat="47.577375" lon="8.004938">
        <ele>488.105928</ele>
        <time>2021-11-19T23:13:50.065Z</time>
      </trkpt>
      <trkpt lat="47.577792" lon="8.005044">
        <ele>486.538657</ele>
        <time>2021-11-19T23:13:53.965Z</time>
      </trkpt>
      <trkpt lat="47.578086" lon="8.005441">
        <ele>485.065458</ele>
        <time>2021-11-19T23:13:57.756Z</time>
      </trkpt>
      <trkpt lat="47.578325" lon="8.005530">
        <ele>484.152606</ele>
        <time>2021-11-19T23:14:00.200Z</time>
      </trkpt>
      <trkpt lat="47.578736" lon="8.005500">
        <ele>482.628263</ele>
        <time>2021-11-19T23:14:04.578Z</time>
      </trkpt>
      <trkpt lat="47.579228" lon="8.005324">
        <ele>482.131839</ele>
        <time>2021-11-19T23:14:11.184Z</time>
      </trkpt>
      <trkpt lat="47.579909" lon="8.004868">
        <ele>482.502649</ele>
        <time>2021-11-19T23:14:26.082Z</time>
      </trkpt>
      <trkpt lat="47.580305" lon="8.004384">
        <ele>482.757333</ele>
        <time>2021-11-19T23:14:37.605Z</time>
      </trkpt>
      <trkpt lat="47.580693" lon="8.003731">
        <ele>481.512084</ele>
        <time>2021-11-19T23:14:47.194Z</time>
      </trkpt>
      <trkpt lat="47.581433" lon="8.002768">
        <ele>477.987430</ele>
        <time>2021-11-19T23:14:57.175Z</time>
      </trkpt>
      <trkpt lat="47.581538" lon="8.002492">
        <ele>477.222331</ele>
        <time>2021-11-19T23:14:59.102Z</time>
      </trkpt>
      <trkpt lat="47.581587" lon="8.002199">
        <ele>476.493450</ele>
        <time>2021-11-19T23:15:00.954Z</time>
      </trkpt>
      <trkpt lat="47.581843" lon="8.001622">
        <ele>473.030844</ele>
        <time>2021-11-19T23:15:04.970Z</time>
      </trkpt>
      <trkpt lat="47.582003" lon="8.001392">
        <ele>471.336559</ele>
        <time>2021-11-19T23:15:06.885Z</time>
      </trkpt>
      <trkpt lat="47.582718" lon="8.001131">
        <ele>465.738601</ele>
        <time>2021-11-19T23:15:13.285Z</time>
      </trkpt>
      <trkpt lat="47.582884" lon="8.001201">
        <ele>464.426571</ele>
        <time>2021-11-19T23:15:14.996Z</time>
      </trkpt>
      <trkpt lat="47.583038" lon="8.001422">
        <ele>462.797175</ele>
        <time>2021-11-19T23:15:16.878Z</time>
      </trkpt>
      <trkpt lat="47.583129" lon="8.001600">
        <ele>462.776124</ele>
        <time>2021-11-19T23:15:20.297Z</time>
      </trkpt>
      <trkpt lat="47.583138" lon="8.001749">
        <ele>462.794741</ele>
        <time>2021-11-19T23:15:21.201Z</time>
      </trkpt>
      <trkpt lat="47.582770" lon="8.002301">
        <ele>462.891330</ele>
        <time>2021-11-19T23:15:26.874Z</time>
      </trkpt>
      <trkpt lat="47.582722" lon="8.002476">
        <ele>462.914841</ele>
        <time>2021-11-19T23:15:30.179Z</time>
      </trkpt>
      <trkpt lat="47.582735" lon="8.002783">
        <ele>462.953123</ele>
        <time>2021-11-19T23:15:32.356Z</time>
      </trkpt>
      <trkpt lat="47.582779" lon="8.003036">
        <ele>462.985639</ele>
        <time>2021-11-19T23:15:37.804Z</time>
      </trkpt>
      <trkpt lat="47.582789" lon="8.003167">
        <ele>463.002046</ele>
        <time>2021-11-19T23:15:38.732Z</time>
      </trkpt>
      <trkpt lat="47.582781" lon="8.003305">
        <ele>463.019284</ele>
        <time>2021-11-19T23:15:40.756Z</time>
      </trkpt>
      <trkpt lat="47.582727" lon="8.003464">
        <ele>463.041439</ele>
        <time>2021-11-19T23:15:47.055Z</time>
      </trkpt>
      <trkpt lat="47.582604" lon="8.004164">
        <ele>465.008297</ele>
        <time>2021-11-19T23:16:04.762Z</time>
      </trkpt>
      <trkpt lat="47.582510" lon="8.004377">
        <ele>466.226176</ele>
        <time>2021-11-19T23:16:12.053Z</time>
      </trkpt>
      <trkpt lat="47.582188" lon="8.004718">
        <ele>469.033132</ele>
        <time>2021-11-19T23:16:29.619Z</time>
      </trkpt>
      <trkpt lat="47.581764" lon="8.005054">
        <ele>472.443438</ele>
        <time>2021-11-19T23:16:51.423Z</time>
      </trkpt>
      <trkpt lat="47.581321" lon="8.006142">
        <ele>479.102934</ele>
        <time>2021-11-19T23:17:31.370Z</time>
      </trkpt>
      <trkpt lat="47.581140" lon="8.006991">
        <ele>484.281875</ele>
        <time>2021-11-19T23:18:03.404Z</time>
      </trkpt>
      <trkpt lat="47.580912" lon="8.007336">
        <ele>487.091134</ele>
        <time>2021-11-19T23:18:20.631Z</time>
      </trkpt>
      <trkpt lat="47.579923" lon="8.008040">
        <ele>494.613588</ele>
        <time>2021-11-19T23:19:11.688Z</time>
      </trkpt>
      <trkpt lat="47.579619" lon="8.008172">
        <ele>496.327651</ele>
        <time>2021-11-19T23:19:23.822Z</time>
      </trkpt>
      <trkpt lat="47.578864" lon="8.008842">
        <ele>501.083338</ele>
        <time>2021-11-19T23:19:50.757Z</time>
      </trkpt>
      <trkpt lat="47.578332" lon="8.009223">
        <ele>501.819863</ele>
        <time>2021-11-19T23:20:03.920Z</time>
      </trkpt>
      <trkpt lat="47.578269" lon="8.009376">
        <ele>501.970600</ele>
        <time>2021-11-19T23:20:06.350Z</time>
      </trkpt>
      <trkpt lat="47.578275" lon="8.009410">
        <ele>502.000154</ele>
        <time>2021-11-19T23:20:06.560Z</time>
      </trkpt>
      <trkpt lat="47.578339" lon="8.009582">
        <ele>502.165338</ele>
        <time>2021-11-19T23:20:09.549Z</time>
      </trkpt>
      <trkpt lat="47.578506" lon="8.009815">
        <ele>502.451223</ele>
        <time>2021-11-19T23:20:13.136Z</time>
      </trkpt>
      <trkpt lat="47.578802" lon="8.010247">
        <ele>502.969032</ele>
        <time>2021-11-19T23:20:20.490Z</time>
      </trkpt>
      <trkpt lat="47.578877" lon="8.010552">
        <ele>503.242022</ele>
        <time>2021-11-19T23:20:24.551Z</time>
      </trkpt>
      <trkpt lat="47.578954" lon="8.011222">
        <ele>503.527228</ele>
        <time>2021-11-19T23:20:31.334Z</time>
      </trkpt>
      <trkpt lat="47.578994" lon="8.011565">
        <ele>503.648808</ele>
        <time>2021-11-19T23:20:35.786Z</time>
      </trkpt>
      <trkpt lat="47.579083" lon="8.012800">
        <ele>504.082623</ele>
        <time>2021-11-19T23:20:49.409Z</time>
      </trkpt>
      <trkpt lat="47.579303" lon="8.013994">
        <ele>504.395219</ele>
        <time>2021-11-19T23:21:04.165Z</time>
      </trkpt>
      <trkpt lat="47.579390" lon="8.014221">
        <ele>504.444392</ele>
        <time>2021-11-19T23:21:06.718Z</time>
      </trkpt>
      <trkpt lat="47.579476" lon="8.014445">
        <ele>504.492935</ele>
        <time>2021-11-19T23:21:10.265Z</time>
      </trkpt>
      <trkpt lat="47.579677" lon="8.015285">
        <ele>504.660802</ele>
        <time>2021-11-19T23:21:19.895Z</time>
      </trkpt>
      <trkpt lat="47.579693" lon="8.015395">
        <ele>504.681996</ele>
        <time>2021-11-19T23:21:21.559Z</time>
      </trkpt>
      <trkpt lat="47.579782" lon="8.016013">
        <ele>504.750345</ele>
        <time>2021-11-19T23:21:27.160Z</time>
      </trkpt>
      <trkpt lat="47.579807" lon="8.016479">
        <ele>504.736332</ele>
        <time>2021-11-19T23:21:30.963Z</time>
      </trkpt>
      <trkpt lat="47.579770" lon="8.017313">
        <ele>504.711278</ele>
        <time>2021-11-19T23:21:37.949Z</time>
      </trkpt>
      <trkpt lat="47.579800" lon="8.017631">
        <ele>504.701653</ele>
        <time>2021-11-19T23:21:42.650Z</time>
      </trkpt>
      <trkpt lat="47.579827" lon="8.017916">
        <ele>504.693026</ele>
        <time>2021-11-19T23:21:45.286Z</time>
      </trkpt>
      <trkpt lat="47.579890" lon="8.018812">
        <ele>504.993754</ele>
        <time>2021-11-19T23:21:56.995Z</time>
      </trkpt>
      <trkpt lat="47.579943" lon="8.018927">
        <ele>505.110102</ele>
        <time>2021-11-19T23:21:58.142Z</time>
      </trkpt>
      <trkpt lat="47.580093" lon="8.019071">
        <ele>505.331408</ele>
        <time>2021-11-19T23:22:02.128Z</time>
      </trkpt>
      <trkpt lat="47.580282" lon="8.019086">
        <ele>505.565798</ele>
        <time>2021-11-19T23:22:04.518Z</time>
      </trkpt>
      <trkpt lat="47.580628" lon="8.018939">
        <ele>506.011528</ele>
        <time>2021-11-19T23:22:10.811Z</time>
      </trkpt>
      <trkpt lat="47.580782" lon="8.018916">
        <ele>506.203204</ele>
        <time>2021-11-19T23:22:15.447Z</time>
      </trkpt>
      <trkpt lat="47.580830" lon="8.018918">
        <ele>506.262670</ele>
        <time>2021-11-19T23:22:16.949Z</time>
      </trkpt>
      <trkpt lat="47.580916" lon="8.019035">
        <ele>506.407221</ele>
        <time>2021-11-19T23:22:19.338Z</time>
      </trkpt>
      <trkpt lat="47.580948" lon="8.019213">
        <ele>506.561103</ele>
        <time>2021-11-19T23:22:23.282Z</time>
      </trkpt>
      <trkpt lat="47.580955" lon="8.019317">
        <ele>506.648411</ele>
        <time>2021-11-19T23:22:25.410Z</time>
      </trkpt>
      <trkpt lat="47.581039" lon="8.019934">
        <ele>507.301734</ele>
        <time>2021-11-19T23:22:45.611Z</time>
      </trkpt>
      <trkpt lat="47.581122" lon="8.020572">
        <ele>508.101403</ele>
        <time>2021-11-19T23:23:05.138Z</time>
      </trkpt>
      <trkpt lat="47.581460" lon="8.022287">
        <ele>510.359004</ele>
        <time>2021-11-19T23:23:57.006Z</time>
      </trkpt>
      <trkpt lat="47.581487" lon="8.022614">
        <ele>510.973361</ele>
        <time>2021-11-19T23:24:07.082Z</time>
      </trkpt>
      <trkpt lat="47.581513" lon="8.022860">
        <ele>511.437711</ele>
        <time>2021-11-19T23:24:12.161Z</time>
      </trkpt>
      <trkpt lat="47.581748" lon="8.024404">
        <ele>514.389416</ele>
        <time>2021-11-19T23:24:45.330Z</time>
      </trkpt>
      <trkpt lat="47.581899" lon="8.025089">
        <ele>516.088580</ele>
        <time>2021-11-19T23:25:02.618Z</time>
      </trkpt>
      <trkpt lat="47.582058" lon="8.025575">
        <ele>517.718972</ele>
        <time>2021-11-19T23:25:16.045Z</time>
      </trkpt>
      <trkpt lat="47.582102" lon="8.025700">
        <ele>518.144557</ele>
        <time>2021-11-19T23:25:20.444Z</time>
      </trkpt>
      <trkpt lat="47.582199" lon="8.025829">
        <ele>518.727668</ele>
        <time>2021-11-19T23:25:24.550Z</time>
      </trkpt>
      <trkpt lat="47.582289" lon="8.025933">
        <ele>519.238292</ele>
        <time>2021-11-19T23:25:28.199Z</time>
      </trkpt>
      <trkpt lat="47.582388" lon="8.025991">
        <ele>519.714636</ele>
        <time>2021-11-19T23:25:33.388Z</time>
      </trkpt>
      <trkpt lat="47.582723" lon="8.026030">
        <ele>521.218315</ele>
        <time>2021-11-19T23:25:46.271Z</time>
      </trkpt>
      <trkpt lat="47.582993" lon="8.025956">
        <ele>522.446989</ele>
        <time>2021-11-19T23:25:55.914Z</time>
      </trkpt>
      <trkpt lat="47.583073" lon="8.025933">
        <ele>522.811644</ele>
        <time>2021-11-19T23:25:59.896Z</time>
      </trkpt>
      <trkpt lat="47.583464" lon="8.025921">
        <ele>524.851155</ele>
        <time>2021-11-19T23:26:16.620Z</time>
      </trkpt>
      <trkpt lat="47.583871" lon="8.026235">
        <ele>527.343173</ele>
        <time>2021-11-19T23:26:36.730Z</time>
      </trkpt>
      <trkpt lat="47.583918" lon="8.026237">
        <ele>527.598558</ele>
        <time>2021-11-19T23:26:39.642Z</time>
      </trkpt>
      <trkpt lat="47.583982" lon="8.026498">
        <ele>528.615978</ele>
        <time>2021-11-19T23:26:46.900Z</time>
      </trkpt>
      <trkpt lat="47.584046" lon="8.026676">
        <ele>529.354958</ele>
        <time>2021-11-19T23:26:52.794Z</time>
      </trkpt>
      <trkpt lat="47.584080" lon="8.026751">
        <ele>529.686018</ele>
        <time>2021-11-19T23:26:55.994Z</time>
      </trkpt>
      <trkpt lat="47.584134" lon="8.026675">
        <ele>530.090429</ele>
        <time>2021-11-19T23:26:58.811Z</time>
      </trkpt>
      <trkpt lat="47.584228" lon="8.026533">
        <ele>530.819337</ele>
        <time>2021-11-19T23:27:03.990Z</time>
      </trkpt>
      <trkpt lat="47.584244" lon="8.026509">
        <ele>530.942961</ele>
        <time>2021-11-19T23:27:04.966Z</time>
      </trkpt>
      <trkpt lat="47.584323" lon="8.026391">
        <ele>531.552058</ele>
        <time>2021-11-19T23:27:10.559Z</time>
      </trkpt>
      <trkpt lat="47.585609" lon="8.024292">
        <ele>540.784337</ele>
        <time>2021-11-19T23:28:24.886Z</time>
      </trkpt>
      <trkpt lat="47.586233" lon="8.023109">
        <ele>545.330045</ele>
        <time>2021-11-19T23:29:04.128Z</time>
      </trkpt>
      <trkpt lat="47.586478" lon="8.022754">
        <ele>546.853096</ele>
        <time>2021-11-19T23:29:17.206Z</time>
      </trkpt>
      <trkpt lat="47.586795" lon="8.022396">
        <ele>548.624742</ele>
        <time>2021-11-19T23:29:31.993Z</time>
      </trkpt>
      <trkpt lat="47.587072" lon="8.021950">
        <ele>550.391969</ele>
        <time>2021-11-19T23:29:47.051Z</time>
      </trkpt>
      <trkpt lat="47.587257" lon="8.021642">
        <ele>551.563245</ele>
        <time>2021-11-19T23:29:57.216Z</time>
      </trkpt>
      <trkpt lat="47.587557" lon="8.021107">
        <ele>553.539122</ele>
        <time>2021-11-19T23:30:14.079Z</time>
      </trkpt>
      <trkpt lat="47.587801" lon="8.021555">
        <ele>555.174428</ele>
        <time>2021-11-19T23:30:27.254Z</time>
      </trkpt>
      <trkpt lat="47.587981" lon="8.021848">
        <ele>556.299952</ele>
        <time>2021-11-19T23:30:36.117Z</time>
      </trkpt>
      <trkpt lat="47.588224" lon="8.022086">
        <ele>557.865599</ele>
        <time>2021-11-19T23:30:48.945Z</time>
      </trkpt>
      <trkpt lat="47.588772" lon="8.022285">
        <ele>561.956223</ele>
        <time>2021-11-19T23:31:13.966Z</time>
      </trkpt>
      <trkpt lat="47.588947" lon="8.022297">
        <ele>563.226391</ele>
        <time>2021-11-19T23:31:22.422Z</time>
      </trkpt>
      <trkpt lat="47.589256" lon="8.022150">
        <ele>565.579243</ele>
        <time>2021-11-19T23:31:38.144Z</time>
      </trkpt>
      <trkpt lat="47.589392" lon="8.022010">
        <ele>566.779641</ele>
        <time>2021-11-19T23:31:45.155Z</time>
      </trkpt>
      <trkpt lat="47.589430" lon="8.021956">
        <ele>567.161260</ele>
        <time>2021-11-19T23:31:48.765Z</time>
      </trkpt>
      <trkpt lat="47.589615" lon="8.021880">
        <ele>568.553106</ele>
        <time>2021-11-19T23:31:58.652Z</time>
      </trkpt>
      <trkpt lat="47.589748" lon="8.021891">
        <ele>569.518902</ele>
        <time>2021-11-19T23:32:07.651Z</time>
      </trkpt>
      <trkpt lat="47.590116" lon="8.022103">
        <ele>573.094456</ele>
        <time>2021-11-19T23:32:33.107Z</time>
      </trkpt>
      <trkpt lat="47.590395" lon="8.022117">
        <ele>575.750280</ele>
        <time>2021-11-19T23:32:48.698Z</time>
      </trkpt>
      <trkpt lat="47.590493" lon="8.022094">
        <ele>576.694224</ele>
        <time>2021-11-19T23:32:58.249Z</time>
      </trkpt>
      <trkpt lat="47.590755" lon="8.022031">
        <ele>579.219360</ele>
        <time>2021-11-19T23:33:12.776Z</time>
      </trkpt>
      <trkpt lat="47.591072" lon="8.022076">
        <ele>582.248973</ele>
        <time>2021-11-19T23:33:32.078Z</time>
      </trkpt>
      <trkpt lat="47.591115" lon="8.022129">
        <ele>582.780941</ele>
        <time>2021-11-19T23:33:37.362Z</time>
      </trkpt>
      <trkpt lat="47.591140" lon="8.022229">
        <ele>583.465220</ele>
        <time>2021-11-19T23:33:42.780Z</time>
      </trkpt>
      <trkpt lat="47.591210" lon="8.023119">
        <ele>588.297975</ele>
        <time>2021-11-19T23:34:09.162Z</time>
      </trkpt>
      <trkpt lat="47.591205" lon="8.023265">
        <ele>588.807433</ele>
        <time>2021-11-19T23:34:17.068Z</time>
      </trkpt>
      <trkpt lat="47.591738" lon="8.023957">
        <ele>592.468213</ele>
        <time>2021-11-19T23:34:47.122Z</time>
      </trkpt>
      <trkpt lat="47.592067" lon="8.024331">
        <ele>594.610394</ele>
        <time>2021-11-19T23:35:00.804Z</time>
      </trkpt>
      <trkpt lat="47.592360" lon="8.024239">
        <ele>596.158003</ele>
        <time>2021-11-19T23:35:11.143Z</time>
      </trkpt>
      <trkpt lat="47.592875" lon="8.023855">
        <ele>598.788084</ele>
        <time>2021-11-19T23:35:28.364Z</time>
      </trkpt>
      <trkpt lat="47.593000" lon="8.023757">
        <ele>599.422023</ele>
        <time>2021-11-19T23:35:34.243Z</time>
      </trkpt>
      <trkpt lat="47.594098" lon="8.023267">
        <ele>604.562921</ele>
        <time>2021-11-19T23:36:21.270Z</time>
      </trkpt>
      <trkpt lat="47.594377" lon="8.023068">
        <ele>605.716725</ele>
        <time>2021-11-19T23:36:34.791Z</time>
      </trkpt>
      <trkpt lat="47.594831" lon="8.022718">
        <ele>607.622582</ele>
        <time>2021-11-19T23:36:54.582Z</time>
      </trkpt>
      <trkpt lat="47.595091" lon="8.022990">
        <ele>608.807729</ele>
        <time>2021-11-19T23:37:03.663Z</time>
      </trkpt>
      <trkpt lat="47.595671" lon="8.023213">
        <ele>611.039450</ele>
        <time>2021-11-19T23:37:19.091Z</time>
      </trkpt>
      <trkpt lat="47.596051" lon="8.023223">
        <ele>611.962407</ele>
        <time>2021-11-19T23:37:27.633Z</time>
      </trkpt>
      <trkpt lat="47.596148" lon="8.023345">
        <ele>612.239850</ele>
        <time>2021-11-19T23:37:29.984Z</time>
      </trkpt>
      <trkpt lat="47.596208" lon="8.023630">
        <ele>612.679031</ele>
        <time>2021-11-19T23:37:33.268Z</time>
      </trkpt>
      <trkpt lat="47.596116" lon="8.024152">
        <ele>613.472669</ele>
        <time>2021-11-19T23:37:39.807Z</time>
      </trkpt>
      <trkpt lat="47.596100" lon="8.024844">
        <ele>614.491179</ele>
        <time>2021-11-19T23:37:50.461Z</time>
      </trkpt>
      <trkpt lat="47.596129" lon="8.025134">
        <ele>614.922426</ele>
        <time>2021-11-19T23:37:56.094Z</time>
      </trkpt>
      <trkpt lat="47.596247" lon="8.025584">
        <ele>616.327953</ele>
        <time>2021-11-19T23:38:06.473Z</time>
      </trkpt>
      <trkpt lat="47.596374" lon="8.025833">
        <ele>617.507800</ele>
        <time>2021-11-19T23:38:13.961Z</time>
      </trkpt>
      <trkpt lat="47.596403" lon="8.026009">
        <ele>618.192495</ele>
        <time>2021-11-19T23:38:18.343Z</time>
      </trkpt>
      <trkpt lat="47.597018" lon="8.025786">
        <ele>621.740564</ele>
        <time>2021-11-19T23:38:45.954Z</time>
      </trkpt>
      <trkpt lat="47.597223" lon="8.025669">
        <ele>622.971556</ele>
        <time>2021-11-19T23:38:56.073Z</time>
      </trkpt>
      <trkpt lat="47.597401" lon="8.025846">
        <ele>624.172593</ele>
        <time>2021-11-19T23:39:05.676Z</time>
      </trkpt>
      <trkpt lat="47.597487" lon="8.026052">
        <ele>625.088191</ele>
        <time>2021-11-19T23:39:14.139Z</time>
      </trkpt>
      <trkpt lat="47.597698" lon="8.026355">
        <ele>626.792668</ele>
        <time>2021-11-19T23:39:27.928Z</time>
      </trkpt>
      <trkpt lat="47.597834" lon="8.026546">
        <ele>627.884262</ele>
        <time>2021-11-19T23:39:36.646Z</time>
      </trkpt>
      <trkpt lat="47.598023" lon="8.026853">
        <ele>629.517887</ele>
        <time>2021-11-19T23:39:49.709Z</time>
      </trkpt>
      <trkpt lat="47.598245" lon="8.026958">
        <ele>630.875860</ele>
        <time>2021-11-19T23:39:59.934Z</time>
      </trkpt>
      <trkpt lat="47.598365" lon="8.026975">
        <ele>631.578376</ele>
        <time>2021-11-19T23:40:05.534Z</time>
      </trkpt>
      <trkpt lat="47.598361" lon="8.027263">
        <ele>632.710399</ele>
        <time>2021-11-19T23:40:13.038Z</time>
      </trkpt>
      <trkpt lat="47.598472" lon="8.027302">
        <ele>633.375189</ele>
        <time>2021-11-19T23:40:17.431Z</time>
      </trkpt>
      <trkpt lat="47.598821" lon="8.027385">
        <ele>635.435067</ele>
        <time>2021-11-19T23:40:29.502Z</time>
      </trkpt>
      <trkpt lat="47.599102" lon="8.027378">
        <ele>637.099330</ele>
        <time>2021-11-19T23:40:38.213Z</time>
      </trkpt>
      <trkpt lat="47.599389" lon="8.027316">
        <ele>638.823357</ele>
        <time>2021-11-19T23:40:47.490Z</time>
      </trkpt>
      <trkpt lat="47.599613" lon="8.027185">
        <ele>640.254679</ele>
        <time>2021-11-19T23:40:58.292Z</time>
      </trkpt>
      <trkpt lat="47.599844" lon="8.026999">
        <ele>641.817159</ele>
        <time>2021-11-19T23:41:07.458Z</time>
      </trkpt>
      <trkpt lat="47.600101" lon="8.026650">
        <ele>643.888565</ele>
        <time>2021-11-19T23:41:21.544Z</time>
      </trkpt>
      <trkpt lat="47.600516" lon="8.025753">
        <ele>648.519338</ele>
        <time>2021-11-19T23:41:52.304Z</time>
      </trkpt>
      <trkpt lat="47.600550" lon="8.025678">
        <ele>648.935830</ele>
        <time>2021-11-19T23:41:55.932Z</time>
      </trkpt>
      <trkpt lat="47.600581" lon="8.025609">
        <ele>649.317939</ele>
        <time>2021-11-19T23:41:59.651Z</time>
      </trkpt>
      <trkpt lat="47.601301" lon="8.024297">
        <ele>657.113689</ele>
        <time>2021-11-19T23:42:48.064Z</time>
      </trkpt>
      <trkpt lat="47.601427" lon="8.024003">
        <ele>658.719091</ele>
        <time>2021-11-19T23:42:57.603Z</time>
      </trkpt>
      <trkpt lat="47.601526" lon="8.023755">
        <ele>659.625590</ele>
        <time>2021-11-19T23:43:06.002Z</time>
      </trkpt>
      <trkpt lat="47.601889" lon="8.022433">
        <ele>664.088142</ele>
        <time>2021-11-19T23:43:36.408Z</time>
      </trkpt>
      <trkpt lat="47.602034" lon="8.021886">
        <ele>665.925638</ele>
        <time>2021-11-19T23:43:48.931Z</time>
      </trkpt>
      <trkpt lat="47.602462" lon="8.021174">
        <ele>668.679575</ele>
        <time>2021-11-19T23:44:08.394Z</time>
      </trkpt>
      <trkpt lat="47.602662" lon="8.020843">
        <ele>669.896057</ele>
        <time>2021-11-19T23:44:18.108Z</time>
      </trkpt>
      <trkpt lat="47.603104" lon="8.020091">
        <ele>672.626494</ele>
        <time>2021-11-19T23:44:40.245Z</time>
      </trkpt>
      <trkpt lat="47.603225" lon="8.019699">
        <ele>673.806469</ele>
        <time>2021-11-19T23:44:49.114Z</time>
      </trkpt>
      <trkpt lat="47.603538" lon="8.018606">
        <ele>675.674997</ele>
        <time>2021-11-19T23:45:11.490Z</time>
      </trkpt>
      <trkpt lat="47.603564" lon="8.018549">
        <ele>675.766247</ele>
        <time>2021-11-19T23:45:12.715Z</time>
      </trkpt>
      <trkpt lat="47.603949" lon="8.017906">
        <ele>676.906482</ele>
        <time>2021-11-19T23:45:25.996Z</time>
      </trkpt>
      <trkpt lat="47.604386" lon="8.017343">
        <ele>677.945088</ele>
        <time>2021-11-19T23:45:34.639Z</time>
      </trkpt>
      <trkpt lat="47.604931" lon="8.016761">
        <ele>678.260628</ele>
        <time>2021-11-19T23:45:44.397Z</time>
      </trkpt>
      <trkpt lat="47.605303" lon="8.016420">
        <ele>678.466102</ele>
        <time>2021-11-19T23:45:50.948Z</time>
      </trkpt>
      <trkpt lat="47.605349" lon="8.016390">
        <ele>678.489712</ele>
        <time>2021-11-19T23:45:51.725Z</time>
      </trkpt>
      <trkpt lat="47.605617" lon="8.016217">
        <ele>678.627042</ele>
        <time>2021-11-19T23:45:56.733Z</time>
      </trkpt>
      <trkpt lat="47.605788" lon="8.016160">
        <ele>678.709391</ele>
        <time>2021-11-19T23:46:00.137Z</time>
      </trkpt>
      <trkpt lat="47.607499" lon="8.015932">
        <ele>681.207171</ele>
        <time>2021-11-19T23:46:37.635Z</time>
      </trkpt>
      <trkpt lat="47.607936" lon="8.015773">
        <ele>681.185613</ele>
        <time>2021-11-19T23:46:46.409Z</time>
      </trkpt>
      <trkpt lat="47.607997" lon="8.015736">
        <ele>681.109672</ele>
        <time>2021-11-19T23:46:48.079Z</time>
      </trkpt>
      <trkpt lat="47.608546" lon="8.015408">
        <ele>680.427665</ele>
        <time>2021-11-19T23:46:57.778Z</time>
      </trkpt>
      <trkpt lat="47.608990" lon="8.015226">
        <ele>679.896864</ele>
        <time>2021-11-19T23:47:03.126Z</time>
      </trkpt>
      <trkpt lat="47.609093" lon="8.015216">
        <ele>679.777922</ele>
        <time>2021-11-19T23:47:04.174Z</time>
      </trkpt>
      <trkpt lat="47.609541" lon="8.015211">
        <ele>678.745220</ele>
        <time>2021-11-19T23:47:08.490Z</time>
      </trkpt>
      <trkpt lat="47.609987" lon="8.015356">
        <ele>676.470814</ele>
        <time>2021-11-19T23:47:12.661Z</time>
      </trkpt>
      <trkpt lat="47.610061" lon="8.015390">
        <ele>676.084918</ele>
        <time>2021-11-19T23:47:13.345Z</time>
      </trkpt>
      <trkpt lat="47.610254" lon="8.015477">
        <ele>675.080109</ele>
        <time>2021-11-19T23:47:15.198Z</time>
      </trkpt>
      <trkpt lat="47.611129" lon="8.015861">
        <ele>670.534696</ele>
        <time>2021-11-19T23:47:23.720Z</time>
      </trkpt>
      <trkpt lat="47.611516" lon="8.016031">
        <ele>670.965872</ele>
        <time>2021-11-19T23:47:27.793Z</time>
      </trkpt>
      <trkpt lat="47.611716" lon="8.016114">
        <ele>671.237907</ele>
        <time>2021-11-19T23:47:30.046Z</time>
      </trkpt>
      <trkpt lat="47.613333" lon="8.016808">
        <ele>675.166239</ele>
        <time>2021-11-19T23:48:20.923Z</time>
      </trkpt>
      <trkpt lat="47.613550" lon="8.016884">
        <ele>676.258044</ele>
        <time>2021-11-19T23:48:30.243Z</time>
      </trkpt>
      <trkpt lat="47.613763" lon="8.016931">
        <ele>677.312523</ele>
        <time>2021-11-19T23:48:38.778Z</time>
      </trkpt>
      <trkpt lat="47.614276" lon="8.016874">
        <ele>679.831583</ele>
        <time>2021-11-19T23:48:57.659Z</time>
      </trkpt>
      <trkpt lat="47.614450" lon="8.016786">
        <ele>680.731771</ele>
        <time>2021-11-19T23:49:04.096Z</time>
      </trkpt>
      <trkpt lat="47.614507" lon="8.016749">
        <ele>681.036437</ele>
        <time>2021-11-19T23:49:06.430Z</time>
      </trkpt>
      <trkpt lat="47.614952" lon="8.016327">
        <ele>682.690739</ele>
        <time>2021-11-19T23:49:23.037Z</time>
      </trkpt>
      <trkpt lat="47.615823" lon="8.015017">
        <ele>685.936675</ele>
        <time>2021-11-19T23:49:52.467Z</time>
      </trkpt>
      <trkpt lat="47.616313" lon="8.014507">
        <ele>686.980619</ele>
        <time>2021-11-19T23:50:03.305Z</time>
      </trkpt>
      <trkpt lat="47.616676" lon="8.014297">
        <ele>687.546916</ele>
        <time>2021-11-19T23:50:11.077Z</time>
      </trkpt>
      <trkpt lat="47.617120" lon="8.014238">
        <ele>688.194827</ele>
        <time>2021-11-19T23:50:20.264Z</time>
      </trkpt>
      <trkpt lat="47.617298" lon="8.014271">
        <ele>688.455551</ele>
        <time>2021-11-19T23:50:23.552Z</time>
      </trkpt>
      <trkpt lat="47.617593" lon="8.014382">
        <ele>688.897893</ele>
        <time>2021-11-19T23:50:29.999Z</time>
      </trkpt>
      <trkpt lat="47.617609" lon="8.014390">
        <ele>688.922433</ele>
        <time>2021-11-19T23:50:30.283Z</time>
      </trkpt>
      <trkpt lat="47.617879" lon="8.014526">
        <ele>689.836297</ele>
        <time>2021-11-19T23:50:36.704Z</time>
      </trkpt>
      <trkpt lat="47.618468" lon="8.014944">
        <ele>691.986017</ele>
        <time>2021-11-19T23:50:54.268Z</time>
      </trkpt>
      <trkpt lat="47.619151" lon="8.015995">
        <ele>695.265066</ele>
        <time>2021-11-19T23:51:25.249Z</time>
      </trkpt>
      <trkpt lat="47.619261" lon="8.016064">
        <ele>695.700745</ele>
        <time>2021-11-19T23:51:29.252Z</time>
      </trkpt>
      <trkpt lat="47.619394" lon="8.016117">
        <ele>696.203132</ele>
        <time>2021-11-19T23:51:33.724Z</time>
      </trkpt>
      <trkpt lat="47.619688" lon="8.016135">
        <ele>697.276566</ele>
        <time>2021-11-19T23:51:42.757Z</time>
      </trkpt>
      <trkpt lat="47.620051" lon="8.015912">
        <ele>698.709842</ele>
        <time>2021-11-19T23:51:54.725Z</time>
      </trkpt>
      <trkpt lat="47.620186" lon="8.015747">
        <ele>699.347927</ele>
        <time>2021-11-19T23:51:59.914Z</time>
      </trkpt>
      <trkpt lat="47.620328" lon="8.015989">
        <ele>700.136876</ele>
        <time>2021-11-19T23:52:06.380Z</time>
      </trkpt>
      <trkpt lat="47.620455" lon="8.016265">
        <ele>700.958599</ele>
        <time>2021-11-19T23:52:12.671Z</time>
      </trkpt>
      <trkpt lat="47.620586" lon="8.016714">
        <ele>701.821251</ele>
        <time>2021-11-19T23:52:21.027Z</time>
      </trkpt>
      <trkpt lat="47.620751" lon="8.017244">
        <ele>702.592900</ele>
        <time>2021-11-19T23:52:29.424Z</time>
      </trkpt>
      <trkpt lat="47.621349" lon="8.019187">
        <ele>705.690825</ele>
        <time>2021-11-19T23:53:00.300Z</time>
      </trkpt>
      <trkpt lat="47.621390" lon="8.019390">
        <ele>706.136946</ele>
        <time>2021-11-19T23:53:03.745Z</time>
      </trkpt>
      <trkpt lat="47.621403" lon="8.019573">
        <ele>706.524324</ele>
        <time>2021-11-19T23:53:06.595Z</time>
      </trkpt>
      <trkpt lat="47.621413" lon="8.020151">
        <ele>707.741507</ele>
        <time>2021-11-19T23:53:15.750Z</time>
      </trkpt>
      <trkpt lat="47.621418" lon="8.020418">
        <ele>708.303801</ele>
        <time>2021-11-19T23:53:20.934Z</time>
      </trkpt>
      <trkpt lat="47.621415" lon="8.020855">
        <ele>709.223804</ele>
        <time>2021-11-19T23:53:29.298Z</time>
      </trkpt>
      <trkpt lat="47.621400" lon="8.021174">
        <ele>709.896982</ele>
        <time>2021-11-19T23:53:36.753Z</time>
      </trkpt>
      <trkpt lat="47.621339" lon="8.021559">
        <ele>710.860411</ele>
        <time>2021-11-19T23:53:45.948Z</time>
      </trkpt>
      <trkpt lat="47.621234" lon="8.022131">
        <ele>713.133916</ele>
        <time>2021-11-19T23:53:59.929Z</time>
      </trkpt>
      <trkpt lat="47.621178" lon="8.022415">
        <ele>714.268701</ele>
        <time>2021-11-19T23:54:06.466Z</time>
      </trkpt>
      <trkpt lat="47.621155" lon="8.022607">
        <ele>715.016558</ele>
        <time>2021-11-19T23:54:12.324Z</time>
      </trkpt>
      <trkpt lat="47.621131" lon="8.023509">
        <ele>718.478416</ele>
        <time>2021-11-19T23:54:35.074Z</time>
      </trkpt>
      <trkpt lat="47.621327" lon="8.024700">
        <ele>724.257994</ele>
        <time>2021-11-19T23:55:09.383Z</time>
      </trkpt>
      <trkpt lat="47.621268" lon="8.025053">
        <ele>726.285488</ele>
        <time>2021-11-19T23:55:19.025Z</time>
      </trkpt>
      <trkpt lat="47.621054" lon="8.025784">
        <ele>730.728431</ele>
        <time>2021-11-19T23:55:46.578Z</time>
      </trkpt>
      <trkpt lat="47.621015" lon="8.026497">
        <ele>734.716328</ele>
        <time>2021-11-19T23:56:11.945Z</time>
      </trkpt>
      <trkpt lat="47.621074" lon="8.027044">
        <ele>738.157386</ele>
        <time>2021-11-19T23:56:31.821Z</time>
      </trkpt>
      <trkpt lat="47.621153" lon="8.027276">
        <ele>739.847097</ele>
        <time>2021-11-19T23:56:40.030Z</time>
      </trkpt>
      <trkpt lat="47.621202" lon="8.027392">
        <ele>740.737033</ele>
        <time>2021-11-19T23:56:47.585Z</time>
      </trkpt>
      <trkpt lat="47.621486" lon="8.027887">
        <ele>744.962804</ele>
        <time>2021-11-19T23:57:10.925Z</time>
      </trkpt>
      <trkpt lat="47.621660" lon="8.028299">
        <ele>748.123416</ele>
        <time>2021-11-19T23:57:29.264Z</time>
      </trkpt>
      <trkpt lat="47.621701" lon="8.028543">
        <ele>749.758132</ele>
        <time>2021-11-19T23:57:36.992Z</time>
      </trkpt>
      <trkpt lat="47.621668" lon="8.028864">
        <ele>751.868985</ele>
        <time>2021-11-19T23:57:49.915Z</time>
      </trkpt>
      <trkpt lat="47.621427" lon="8.029472">
        <ele>755.009892</ele>
        <time>2021-11-19T23:58:14.835Z</time>
      </trkpt>
      <trkpt lat="47.621272" lon="8.030058">
        <ele>757.377327</ele>
        <time>2021-11-19T23:58:31.685Z</time>
      </trkpt>
      <trkpt lat="47.621181" lon="8.030963">
        <ele>760.818506</ele>
        <time>2021-11-19T23:58:52.411Z</time>
      </trkpt>
      <trkpt lat="47.621187" lon="8.031301">
        <ele>762.090095</ele>
        <time>2021-11-19T23:58:59.247Z</time>
      </trkpt>
      <trkpt lat="47.621208" lon="8.031497">
        <ele>762.836465</ele>
        <time>2021-11-19T23:59:02.382Z</time>
      </trkpt>
      <trkpt lat="47.621242" lon="8.031732">
        <ele>763.181237</ele>
        <time>2021-11-19T23:59:06.481Z</time>
      </trkpt>
      <trkpt lat="47.621283" lon="8.031958">
        <ele>763.334756</ele>
        <time>2021-11-19T23:59:09.723Z</time>
      </trkpt>
      <trkpt lat="47.621424" lon="8.032671">
        <ele>763.822157</ele>
        <time>2021-11-19T23:59:18.860Z</time>
      </trkpt>
      <trkpt lat="47.621459" lon="8.033020">
        <ele>764.053601</ele>
        <time>2021-11-19T23:59:22.291Z</time>
      </trkpt>
      <trkpt lat="47.621518" lon="8.033887">
        <ele>764.625192</ele>
        <time>2021-11-19T23:59:30.859Z</time>
      </trkpt>
      <trkpt lat="47.621602" lon="8.034723">
        <ele>765.705150</ele>
        <time>2021-11-19T23:59:41.735Z</time>
      </trkpt>
      <trkpt lat="47.621739" lon="8.035537">
        <ele>767.045416</ele>
        <time>2021-11-19T23:59:53.774Z</time>
      </trkpt>
      <trkpt lat="47.621800" lon="8.035504">
        <ele>767.199300</ele>
        <time>2021-11-19T23:59:55.573Z</time>
      </trkpt>
      <trkpt lat="47.621839" lon="8.035483">
        <ele>767.297632</ele>
        <time>2021-11-19T23:59:56.860Z</time>
      </trkpt>
      <trkpt lat="47.621895" lon="8.035427">
        <ele>767.457688</ele>
        <time>2021-11-19T23:59:58.112Z</time>
      </trkpt>
      <trkpt lat="47.621969" lon="8.035336">
        <ele>767.685486</ele>
        <time>2021-11-20T00:00:00.370Z</time>
      </trkpt>
      <trkpt lat="47.622096" lon="8.035332">
        <ele>767.986550</ele>
        <time>2021-11-20T00:00:04.028Z</time>
      </trkpt>
      <trkpt lat="47.622386" lon="8.035423">
        <ele>768.689070</ele>
        <time>2021-11-20T00:00:11.910Z</time>
      </trkpt>
      <trkpt lat="47.622869" lon="8.035745">
        <ele>771.072394</ele>
        <time>2021-11-20T00:00:29.830Z</time>
      </trkpt>
      <trkpt lat="47.623318" lon="8.036520">
        <ele>774.827799</ele>
        <time>2021-11-20T00:00:57.558Z</time>
      </trkpt>
      <trkpt lat="47.623403" lon="8.036595">
        <ele>775.366981</ele>
        <time>2021-11-20T00:01:00.910Z</time>
      </trkpt>
      <trkpt lat="47.623595" lon="8.036595">
        <ele>776.413774</ele>
        <time>2021-11-20T00:01:08.242Z</time>
      </trkpt>
      <trkpt lat="47.623756" lon="8.036342">
        <ele>777.692375</ele>
        <time>2021-11-20T00:01:16.645Z</time>
      </trkpt>
      <trkpt lat="47.623843" lon="8.036111">
        <ele>778.664756</ele>
        <time>2021-11-20T00:01:23.882Z</time>
      </trkpt>
      <trkpt lat="47.623966" lon="8.035861">
        <ele>779.731305</ele>
        <time>2021-11-20T00:01:31.161Z</time>
      </trkpt>
      <trkpt lat="47.624178" lon="8.035535">
        <ele>781.267693</ele>
        <time>2021-11-20T00:01:42.412Z</time>
      </trkpt>
      <trkpt lat="47.624637" lon="8.034880">
        <ele>784.472306</ele>
        <time>2021-11-20T00:02:05.788Z</time>
      </trkpt>
      <trkpt lat="47.625181" lon="8.033903">
        <ele>788.504717</ele>
        <time>2021-11-20T00:02:34.240Z</time>
      </trkpt>
      <trkpt lat="47.625662" lon="8.032528">
        <ele>792.091281</ele>
        <time>2021-11-20T00:03:03.335Z</time>
      </trkpt>
      <trkpt lat="47.625665" lon="8.032516">
        <ele>792.120912</ele>
        <time>2021-11-20T00:03:03.736Z</time>
      </trkpt>
      <trkpt lat="47.625752" lon="8.032184">
        <ele>792.945587</ele>
        <time>2021-11-20T00:03:09.894Z</time>
      </trkpt>
      <trkpt lat="47.625909" lon="8.031070">
        <ele>795.379319</ele>
        <time>2021-11-20T00:03:31.073Z</time>
      </trkpt>
      <trkpt lat="47.626015" lon="8.029714">
        <ele>798.106890</ele>
        <time>2021-11-20T00:03:55.307Z</time>
      </trkpt>
      <trkpt lat="47.626062" lon="8.029503">
        <ele>798.550915</ele>
        <time>2021-11-20T00:03:59.272Z</time>
      </trkpt>
      <trkpt lat="47.626144" lon="8.029180">
        <ele>799.240564</ele>
        <time>2021-11-20T00:04:05.458Z</time>
      </trkpt>
      <trkpt lat="47.626471" lon="8.028423">
        <ele>800.793161</ele>
        <time>2021-11-20T00:04:21.259Z</time>
      </trkpt>
      <trkpt lat="47.627024" lon="8.027948">
        <ele>802.397379</ele>
        <time>2021-11-20T00:04:37.596Z</time>
      </trkpt>
      <trkpt lat="47.627092" lon="8.027815">
        <ele>802.679847</ele>
        <time>2021-11-20T00:04:40.698Z</time>
      </trkpt>
      <trkpt lat="47.627459" lon="8.027072">
        <ele>804.164760</ele>
        <time>2021-11-20T00:04:54.678Z</time>
      </trkpt>
      <trkpt lat="47.627933" lon="8.026393">
        <ele>805.380919</ele>
        <time>2021-11-20T00:05:09.572Z</time>
      </trkpt>
      <trkpt lat="47.628621" lon="8.025193">
        <ele>807.366511</ele>
        <time>2021-11-20T00:05:32.028Z</time>
      </trkpt>
      <trkpt lat="47.629730" lon="8.023556">
        <ele>811.472810</ele>
        <time>2021-11-20T00:06:09.462Z</time>
      </trkpt>
      <trkpt lat="47.629855" lon="8.023421">
        <ele>811.878650</ele>
        <time>2021-11-20T00:06:14.339Z</time>
      </trkpt>
      <trkpt lat="47.630151" lon="8.023101">
        <ele>813.855805</ele>
        <time>2021-11-20T00:06:26.542Z</time>
      </trkpt>
      <trkpt lat="47.630575" lon="8.022696">
        <ele>816.783123</ele>
        <time>2021-11-20T00:06:44.554Z</time>
      </trkpt>
      <trkpt lat="47.630871" lon="8.022367">
        <ele>818.930085</ele>
        <time>2021-11-20T00:07:00.343Z</time>
      </trkpt>
      <trkpt lat="47.631045" lon="8.021856">
        <ele>821.169923</ele>
        <time>2021-11-20T00:07:15.708Z</time>
      </trkpt>
      <trkpt lat="47.631199" lon="8.021557">
        <ele>822.720331</ele>
        <time>2021-11-20T00:07:24.815Z</time>
      </trkpt>
      <trkpt lat="47.631791" lon="8.020888">
        <ele>828.736449</ele>
        <time>2021-11-20T00:08:01.875Z</time>
      </trkpt>
      <trkpt lat="47.631812" lon="8.020823">
        <ele>829.129186</ele>
        <time>2021-11-20T00:08:06.813Z</time>
      </trkpt>
      <trkpt lat="47.631911" lon="8.020538">
        <ele>830.876107</ele>
        <time>2021-11-20T00:08:12.909Z</time>
      </trkpt>
      <trkpt lat="47.632121" lon="8.020405">
        <ele>832.722095</ele>
        <time>2021-11-20T00:08:26.923Z</time>
      </trkpt>
      <trkpt lat="47.632672" lon="8.020161">
        <ele>837.298455</ele>
        <time>2021-11-20T00:08:53.082Z</time>
      </trkpt>
      <trkpt lat="47.632993" lon="8.020133">
        <ele>839.409789</ele>
        <time>2021-11-20T00:09:08.310Z</time>
      </trkpt>
      <trkpt lat="47.633881" lon="8.020216">
        <ele>845.251977</ele>
        <time>2021-11-20T00:09:49.434Z</time>
      </trkpt>
      <trkpt lat="47.634199" lon="8.020336">
        <ele>847.406425</ele>
        <time>2021-11-20T00:10:00.877Z</time>
      </trkpt>
      <trkpt lat="47.634527" lon="8.020460">
        <ele>848.992274</ele>
        <time>2021-11-20T00:10:11.142Z</time>
      </trkpt>
      <trkpt lat="47.635655" lon="8.020130">
        <ele>850.778941</ele>
        <time>2021-11-20T00:10:36.215Z</time>
      </trkpt>
      <trkpt lat="47.636612" lon="8.020110">
        <ele>851.903815</ele>
        <time>2021-11-20T00:10:48.824Z</time>
      </trkpt>
      <trkpt lat="47.636951" lon="8.020194">
        <ele>852.151651</ele>
        <time>2021-11-20T00:10:54.414Z</time>
      </trkpt>
      <trkpt lat="47.638017" lon="8.020680">
        <ele>853.100845</ele>
        <time>2021-11-20T00:11:16.129Z</time>
      </trkpt>
      <trkpt lat="47.638217" lon="8.020729">
        <ele>853.555254</ele>
        <time>2021-11-20T00:11:20.944Z</time>
      </trkpt>
      <trkpt lat="47.638589" lon="8.020822">
        <ele>854.400917</ele>
        <time>2021-11-20T00:11:29.741Z</time>
      </trkpt>
      <trkpt lat="47.638879" lon="8.020839">
        <ele>855.051519</ele>
        <time>2021-11-20T00:11:36.747Z</time>
      </trkpt>
      <trkpt lat="47.640449" lon="8.020635">
        <ele>858.644352</ele>
        <time>2021-11-20T00:12:16.746Z</time>
      </trkpt>
      <trkpt lat="47.640905" lon="8.020708">
        <ele>859.709473</ele>
        <time>2021-11-20T00:12:27.900Z</time>
      </trkpt>
      <trkpt lat="47.641659" lon="8.020956">
        <ele>861.337983</ele>
        <time>2021-11-20T00:12:45.761Z</time>
      </trkpt>
      <trkpt lat="47.642591" lon="8.021203">
        <ele>862.645091</ele>
        <time>2021-11-20T00:13:04.436Z</time>
      </trkpt>
      <trkpt lat="47.642776" lon="8.021243">
        <ele>862.903206</ele>
        <time>2021-11-20T00:13:08.282Z</time>
      </trkpt>
      <trkpt lat="47.642903" lon="8.021271">
        <ele>863.080471</ele>
        <time>2021-11-20T00:13:10.788Z</time>
      </trkpt>
      <trkpt lat="47.643038" lon="8.021286">
        <ele>863.267378</ele>
        <time>2021-11-20T00:13:13.333Z</time>
      </trkpt>
      <trkpt lat="47.643353" lon="8.021179">
        <ele>863.611817</ele>
        <time>2021-11-20T00:13:19.558Z</time>
      </trkpt>
      <trkpt lat="47.643502" lon="8.021159">
        <ele>863.661809</ele>
        <time>2021-11-20T00:13:22.653Z</time>
      </trkpt>
      <trkpt lat="47.643877" lon="8.021077">
        <ele>863.788468</ele>
        <time>2021-11-20T00:13:30.265Z</time>
      </trkpt>
      <trkpt lat="47.644076" lon="8.020964">
        <ele>863.859664</ele>
        <time>2021-11-20T00:13:33.966Z</time>
      </trkpt>
      <trkpt lat="47.644214" lon="8.020840">
        <ele>863.913568</ele>
        <time>2021-11-20T00:13:36.950Z</time>
      </trkpt>
      <trkpt lat="47.644608" lon="8.020567">
        <ele>864.058863</ele>
        <time>2021-11-20T00:13:44.004Z</time>
      </trkpt>
      <trkpt lat="47.644824" lon="8.020484">
        <ele>864.133419</ele>
        <time>2021-11-20T00:13:47.282Z</time>
      </trkpt>
      <trkpt lat="47.645147" lon="8.020353">
        <ele>863.402399</ele>
        <time>2021-11-20T00:13:51.254Z</time>
      </trkpt>
      <trkpt lat="47.645411" lon="8.019621">
        <ele>861.163427</ele>
        <time>2021-11-20T00:13:57.054Z</time>
      </trkpt>
      <trkpt lat="47.645623" lon="8.019107">
        <ele>859.538249</ele>
        <time>2021-11-20T00:14:00.932Z</time>
      </trkpt>
      <trkpt lat="47.645749" lon="8.018850">
        <ele>858.681141</ele>
        <time>2021-11-20T00:14:02.955Z</time>
      </trkpt>
      <trkpt lat="47.645855" lon="8.018654">
        <ele>858.003382</ele>
        <time>2021-11-20T00:14:04.527Z</time>
      </trkpt>
      <trkpt lat="47.646127" lon="8.018327">
        <ele>856.235685</ele>
        <time>2021-11-20T00:14:07.725Z</time>
      </trkpt>
      <trkpt lat="47.646226" lon="8.018221">
        <ele>855.274042</ele>
        <time>2021-11-20T00:14:08.810Z</time>
      </trkpt>
      <trkpt lat="47.646408" lon="8.018030">
        <ele>853.518106</ele>
        <time>2021-11-20T00:14:10.799Z</time>
      </trkpt>
      <trkpt lat="47.647186" lon="8.017085">
        <ele>845.598581</ele>
        <time>2021-11-20T00:14:19.615Z</time>
      </trkpt>
      <trkpt lat="47.647422" lon="8.016743">
        <ele>843.000296</ele>
        <time>2021-11-20T00:14:22.499Z</time>
      </trkpt>
      <trkpt lat="47.647491" lon="8.016643">
        <ele>842.194748</ele>
        <time>2021-11-20T00:14:23.363Z</time>
      </trkpt>
      <trkpt lat="47.647585" lon="8.016520">
        <ele>841.128312</ele>
        <time>2021-11-20T00:14:24.475Z</time>
      </trkpt>
      <trkpt lat="47.648185" lon="8.015807">
        <ele>834.587313</ele>
        <time>2021-11-20T00:14:31.280Z</time>
      </trkpt>
      <trkpt lat="47.648216" lon="8.015785">
        <ele>834.294888</ele>
        <time>2021-11-20T00:14:31.568Z</time>
      </trkpt>
      <trkpt lat="47.648579" lon="8.015348">
        <ele>830.317329</ele>
        <time>2021-11-20T00:14:35.669Z</time>
      </trkpt>
      <trkpt lat="47.648715" lon="8.015087">
        <ele>828.425562</ele>
        <time>2021-11-20T00:14:37.670Z</time>
      </trkpt>
      <trkpt lat="47.648720" lon="8.015000">
        <ele>827.924957</ele>
        <time>2021-11-20T00:14:38.158Z</time>
      </trkpt>
      <trkpt lat="47.648655" lon="8.014964">
        <ele>827.319385</ele>
        <time>2021-11-20T00:14:38.766Z</time>
      </trkpt>
      <trkpt lat="47.648321" lon="8.015054">
        <ele>824.172892</ele>
        <time>2021-11-20T00:14:41.705Z</time>
      </trkpt>
      <trkpt lat="47.648217" lon="8.015082">
        <ele>823.193172</ele>
        <time>2021-11-20T00:14:42.609Z</time>
      </trkpt>
      <trkpt lat="47.647867" lon="8.015060">
        <ele>819.946061</ele>
        <time>2021-11-20T00:14:45.629Z</time>
      </trkpt>
      <trkpt lat="47.647702" lon="8.015006">
        <ele>818.379918</ele>
        <time>2021-11-20T00:14:47.139Z</time>
      </trkpt>
      <trkpt lat="47.647576" lon="8.014936">
        <ele>817.132885</ele>
        <time>2021-11-20T00:14:48.298Z</time>
      </trkpt>
      <trkpt lat="47.647547" lon="8.014920">
        <ele>816.846112</ele>
        <time>2021-11-20T00:14:48.557Z</time>
      </trkpt>
      <trkpt lat="47.647420" lon="8.014808">
        <ele>815.476841</ele>
        <time>2021-11-20T00:14:49.872Z</time>
      </trkpt>
      <trkpt lat="47.647310" lon="8.014651">
        <ele>814.062355</ele>
        <time>2021-11-20T00:14:51.168Z</time>
      </trkpt>
      <trkpt lat="47.647255" lon="8.014451">
        <ele>812.713399</ele>
        <time>2021-11-20T00:14:52.414Z</time>
      </trkpt>
      <trkpt lat="47.647151" lon="8.013658">
        <ele>808.824268</ele>
        <time>2021-11-20T00:14:57.180Z</time>
      </trkpt>
      <trkpt lat="47.647267" lon="8.012798">
        <ele>805.348018</ele>
        <time>2021-11-20T00:15:02.448Z</time>
      </trkpt>
      <trkpt lat="47.647267" lon="8.012758">
        <ele>805.189478</ele>
        <time>2021-11-20T00:15:02.669Z</time>
      </trkpt>
      <trkpt lat="47.647270" lon="8.012447">
        <ele>803.956708</ele>
        <time>2021-11-20T00:15:04.697Z</time>
      </trkpt>
      <trkpt lat="47.647269" lon="8.012183">
        <ele>802.910330</ele>
        <time>2021-11-20T00:15:06.328Z</time>
      </trkpt>
      <trkpt lat="47.647253" lon="8.011894">
        <ele>801.761021</ele>
        <time>2021-11-20T00:15:08.748Z</time>
      </trkpt>
      <trkpt lat="47.647254" lon="8.011528">
        <ele>800.310373</ele>
        <time>2021-11-20T00:15:11.294Z</time>
      </trkpt>
      <trkpt lat="47.647461" lon="8.011563">
        <ele>800.482414</ele>
        <time>2021-11-20T00:15:14.545Z</time>
      </trkpt>
      <trkpt lat="47.647700" lon="8.011578">
        <ele>800.762144</ele>
        <time>2021-11-20T00:15:17.223Z</time>
      </trkpt>
      <trkpt lat="47.647931" lon="8.011553">
        <ele>801.032986</ele>
        <time>2021-11-20T00:15:19.988Z</time>
      </trkpt>
      <trkpt lat="47.648139" lon="8.011511">
        <ele>801.278456</ele>
        <time>2021-11-20T00:15:24.812Z</time>
      </trkpt>
      <trkpt lat="47.648498" lon="8.011376">
        <ele>801.711522</ele>
        <time>2021-11-20T00:15:34.038Z</time>
      </trkpt>
      <trkpt lat="47.648808" lon="8.011136">
        <ele>802.120370</ele>
        <time>2021-11-20T00:15:43.460Z</time>
      </trkpt>
      <trkpt lat="47.650285" lon="8.009248">
        <ele>809.020067</ele>
        <time>2021-11-20T00:16:41.644Z</time>
      </trkpt>
      <trkpt lat="47.650513" lon="8.009097">
        <ele>810.101797</ele>
        <time>2021-11-20T00:16:50.554Z</time>
      </trkpt>
      <trkpt lat="47.651119" lon="8.008974">
        <ele>812.830351</ele>
        <time>2021-11-20T00:17:09.605Z</time>
      </trkpt>
      <trkpt lat="47.651195" lon="8.008934">
        <ele>813.190070</ele>
        <time>2021-11-20T00:17:13.524Z</time>
      </trkpt>
      <trkpt lat="47.651228" lon="8.008918">
        <ele>813.344939</ele>
        <time>2021-11-20T00:17:14.989Z</time>
      </trkpt>
      <trkpt lat="47.651313" lon="8.008849">
        <ele>813.777121</ele>
        <time>2021-11-20T00:17:17.700Z</time>
      </trkpt>
      <trkpt lat="47.651438" lon="8.008748">
        <ele>814.412005</ele>
        <time>2021-11-20T00:17:21.557Z</time>
      </trkpt>
      <trkpt lat="47.651879" lon="8.008189">
        <ele>816.998959</ele>
        <time>2021-11-20T00:17:41.700Z</time>
      </trkpt>
      <trkpt lat="47.652087" lon="8.008133">
        <ele>817.505847</ele>
        <time>2021-11-20T00:17:48.443Z</time>
      </trkpt>
      <trkpt lat="47.652247" lon="8.008164">
        <ele>817.783788</ele>
        <time>2021-11-20T00:17:53.805Z</time>
      </trkpt>
      <trkpt lat="47.652284" lon="8.008111">
        <ele>817.872354</ele>
        <time>2021-11-20T00:17:55.292Z</time>
      </trkpt>
      <trkpt lat="47.652540" lon="8.008064">
        <ele>818.316679</ele>
        <time>2021-11-20T00:18:03.637Z</time>
      </trkpt>
      <trkpt lat="47.653130" lon="8.008132">
        <ele>819.336024</ele>
        <time>2021-11-20T00:18:14.059Z</time>
      </trkpt>
      <trkpt lat="47.653304" lon="8.008178">
        <ele>819.640458</ele>
        <time>2021-11-20T00:18:17.681Z</time>
      </trkpt>
      <trkpt lat="47.653352" lon="8.008195">
        <ele>819.725460</ele>
        <time>2021-11-20T00:18:18.919Z</time>
      </trkpt>
      <trkpt lat="47.653604" lon="8.008244">
        <ele>820.163242</ele>
        <time>2021-11-20T00:18:22.096Z</time>
      </trkpt>
      <trkpt lat="47.653985" lon="8.008295">
        <ele>819.842302</ele>
        <time>2021-11-20T00:18:27.028Z</time>
      </trkpt>
      <trkpt lat="47.654099" lon="8.008291">
        <ele>819.647898</ele>
        <time>2021-11-20T00:18:28.617Z</time>
      </trkpt>
      <trkpt lat="47.654227" lon="8.008287">
        <ele>819.429633</ele>
        <time>2021-11-20T00:18:29.887Z</time>
      </trkpt>
      <trkpt lat="47.655113" lon="8.008121">
        <ele>817.907182</ele>
        <time>2021-11-20T00:18:39.766Z</time>
      </trkpt>
      <trkpt lat="47.656018" lon="8.007672">
        <ele>816.862903</ele>
        <time>2021-11-20T00:18:49.847Z</time>
      </trkpt>
      <trkpt lat="47.656969" lon="8.006897">
        <ele>816.109400</ele>
        <time>2021-11-20T00:19:04.321Z</time>
      </trkpt>
      <trkpt lat="47.657247" lon="8.006589">
        <ele>817.128864</ele>
        <time>2021-11-20T00:19:10.870Z</time>
      </trkpt>
      <trkpt lat="47.657452" lon="8.006244">
        <ele>818.776757</ele>
        <time>2021-11-20T00:19:18.997Z</time>
      </trkpt>
      <trkpt lat="47.657550" lon="8.006001">
        <ele>819.791250</ele>
        <time>2021-11-20T00:19:25.177Z</time>
      </trkpt>
      <trkpt lat="47.657644" lon="8.005702">
        <ele>820.973151</ele>
        <time>2021-11-20T00:19:33.472Z</time>
      </trkpt>
      <trkpt lat="47.657938" lon="8.004946">
        <ele>824.099987</ele>
        <time>2021-11-20T00:19:57.588Z</time>
      </trkpt>
      <trkpt lat="47.657834" lon="8.004898">
        <ele>824.679152</ele>
        <time>2021-11-20T00:20:02.490Z</time>
      </trkpt>
      <trkpt lat="47.657420" lon="8.004739">
        <ele>828.587271</ele>
        <time>2021-11-20T00:20:24.679Z</time>
      </trkpt>
      <trkpt lat="47.657324" lon="8.004684">
        <ele>829.785153</ele>
        <time>2021-11-20T00:20:31.940Z</time>
      </trkpt>
      <trkpt lat="47.657247" lon="8.004590">
        <ele>830.945650</ele>
        <time>2021-11-20T00:20:36.821Z</time>
      </trkpt>
      <trkpt lat="47.657132" lon="8.004275">
        <ele>833.755081</ele>
        <time>2021-11-20T00:20:53.508Z</time>
      </trkpt>
      <trkpt lat="47.656969" lon="8.003741">
        <ele>838.352144</ele>
        <time>2021-11-20T00:21:18.422Z</time>
      </trkpt>
      <trkpt lat="47.656953" lon="8.003197">
        <ele>842.621800</ele>
        <time>2021-11-20T00:21:43.377Z</time>
      </trkpt>
      <trkpt lat="47.656935" lon="8.002898">
        <ele>844.975653</ele>
        <time>2021-11-20T00:21:55.832Z</time>
      </trkpt>
      <trkpt lat="47.656897" lon="8.002752">
        <ele>846.202958</ele>
        <time>2021-11-20T00:22:04.808Z</time>
      </trkpt>
      <trkpt lat="47.656674" lon="8.001968">
        <ele>852.546734</ele>
        <time>2021-11-20T00:22:39.853Z</time>
      </trkpt>
      <trkpt lat="47.656351" lon="8.000403">
        <ele>864.716594</ele>
        <time>2021-11-20T00:23:46.505Z</time>
      </trkpt>
      <trkpt lat="47.656187" lon="8.000024">
        <ele>867.340344</ele>
        <time>2021-11-20T00:24:00.775Z</time>
      </trkpt>
      <trkpt lat="47.656041" lon="7.999637">
        <ele>869.226310</ele>
        <time>2021-11-20T00:24:13.992Z</time>
      </trkpt>
      <trkpt lat="47.655852" lon="7.999176">
        <ele>871.520933</ele>
        <time>2021-11-20T00:24:28.973Z</time>
      </trkpt>
      <trkpt lat="47.655398" lon="7.998167">
        <ele>876.680193</ele>
        <time>2021-11-20T00:24:58.948Z</time>
      </trkpt>
      <trkpt lat="47.655114" lon="7.997327">
        <ele>878.983263</ele>
        <time>2021-11-20T00:25:18.271Z</time>
      </trkpt>
      <trkpt lat="47.654874" lon="7.996741">
        <ele>880.226518</ele>
        <time>2021-11-20T00:25:31.884Z</time>
      </trkpt>
      <trkpt lat="47.654743" lon="7.996535">
        <ele>880.740086</ele>
        <time>2021-11-20T00:25:37.032Z</time>
      </trkpt>
      <trkpt lat="47.654707" lon="7.996488">
        <ele>880.869106</ele>
        <time>2021-11-20T00:25:38.174Z</time>
      </trkpt>
      <trkpt lat="47.654647" lon="7.996410">
        <ele>881.083741</ele>
        <time>2021-11-20T00:25:39.981Z</time>
      </trkpt>
      <trkpt lat="47.654449" lon="7.996225">
        <ele>881.713363</ele>
        <time>2021-11-20T00:25:44.445Z</time>
      </trkpt>
      <trkpt lat="47.654183" lon="7.996088">
        <ele>882.471094</ele>
        <time>2021-11-20T00:25:50.209Z</time>
      </trkpt>
      <trkpt lat="47.653925" lon="7.996027">
        <ele>882.044917</ele>
        <time>2021-11-20T00:25:53.868Z</time>
      </trkpt>
      <trkpt lat="47.653643" lon="7.996009">
        <ele>881.395354</ele>
        <time>2021-11-20T00:25:57.696Z</time>
      </trkpt>
      <trkpt lat="47.653510" lon="7.996035">
        <ele>881.086639</ele>
        <time>2021-11-20T00:25:59.504Z</time>
      </trkpt>
      <trkpt lat="47.653330" lon="7.996073">
        <ele>880.668240</ele>
        <time>2021-11-20T00:26:01.430Z</time>
      </trkpt>
      <trkpt lat="47.653098" lon="7.996155">
        <ele>880.119416</ele>
        <time>2021-11-20T00:26:04.250Z</time>
      </trkpt>
      <trkpt lat="47.653036" lon="7.996181">
        <ele>879.971153</ele>
        <time>2021-11-20T00:26:04.840Z</time>
      </trkpt>
      <trkpt lat="47.652710" lon="7.996359">
        <ele>879.171796</ele>
        <time>2021-11-20T00:26:08.343Z</time>
      </trkpt>
      <trkpt lat="47.652354" lon="7.996461">
        <ele>878.165652</ele>
        <time>2021-11-20T00:26:11.746Z</time>
      </trkpt>
      <trkpt lat="47.652053" lon="7.996547">
        <ele>876.096289</ele>
        <time>2021-11-20T00:26:14.592Z</time>
      </trkpt>
      <trkpt lat="47.651969" lon="7.996551">
        <ele>875.528909</ele>
        <time>2021-11-20T00:26:15.324Z</time>
      </trkpt>
      <trkpt lat="47.651930" lon="7.996553">
        <ele>875.265461</ele>
        <time>2021-11-20T00:26:15.676Z</time>
      </trkpt>
      <trkpt lat="47.651743" lon="7.996494">
        <ele>873.974814</ele>
        <time>2021-11-20T00:26:17.452Z</time>
      </trkpt>
      <trkpt lat="47.651491" lon="7.996362">
        <ele>872.170743</ele>
        <time>2021-11-20T00:26:19.823Z</time>
      </trkpt>
      <trkpt lat="47.651192" lon="7.996204">
        <ele>870.028099</ele>
        <time>2021-11-20T00:26:22.667Z</time>
      </trkpt>
      <trkpt lat="47.651064" lon="7.996154">
        <ele>869.134547</ele>
        <time>2021-11-20T00:26:23.848Z</time>
      </trkpt>
      <trkpt lat="47.650943" lon="7.996107">
        <ele>868.290167</ele>
        <time>2021-11-20T00:26:24.951Z</time>
      </trkpt>
      <trkpt lat="47.650884" lon="7.996084">
        <ele>867.878349</ele>
        <time>2021-11-20T00:26:25.494Z</time>
      </trkpt>
      <trkpt lat="47.650180" lon="7.995826">
        <ele>862.614746</ele>
        <time>2021-11-20T00:26:31.958Z</time>
      </trkpt>
      <trkpt lat="47.650100" lon="7.995767">
        <ele>861.944409</ele>
        <time>2021-11-20T00:26:32.740Z</time>
      </trkpt>
      <trkpt lat="47.649880" lon="7.995727">
        <ele>860.281169</ele>
        <time>2021-11-20T00:26:34.707Z</time>
      </trkpt>
      <trkpt lat="47.649633" lon="7.995910">
        <ele>858.209615</ele>
        <time>2021-11-20T00:26:37.159Z</time>
      </trkpt>
      <trkpt lat="47.649501" lon="7.996119">
        <ele>856.761354</ele>
        <time>2021-11-20T00:26:38.884Z</time>
      </trkpt>
      <trkpt lat="47.649446" lon="7.996217">
        <ele>856.116546</ele>
        <time>2021-11-20T00:26:39.645Z</time>
      </trkpt>
      <trkpt lat="47.649267" lon="7.996359">
        <ele>854.593528</ele>
        <time>2021-11-20T00:26:41.478Z</time>
      </trkpt>
      <trkpt lat="47.649036" lon="7.996383">
        <ele>852.855839</ele>
        <time>2021-11-20T00:26:43.553Z</time>
      </trkpt>
      <trkpt lat="47.649000" lon="7.996557">
        <ele>852.015874</ele>
        <time>2021-11-20T00:26:44.659Z</time>
      </trkpt>
      <trkpt lat="47.648943" lon="7.996727">
        <ele>851.146426</ele>
        <time>2021-11-20T00:26:45.799Z</time>
      </trkpt>
      <trkpt lat="47.648740" lon="7.996562">
        <ele>849.573430</ele>
        <time>2021-11-20T00:26:48.670Z</time>
      </trkpt>
      <trkpt lat="47.648362" lon="7.996526">
        <ele>846.999051</ele>
        <time>2021-11-20T00:26:53.462Z</time>
      </trkpt>
      <trkpt lat="47.648000" lon="7.996491">
        <ele>844.533486</ele>
        <time>2021-11-20T00:26:58.124Z</time>
      </trkpt>
      <trkpt lat="47.647514" lon="7.996025">
        <ele>840.601148</ele>
        <time>2021-11-20T00:27:05.800Z</time>
      </trkpt>
      <trkpt lat="47.647380" lon="7.995955">
        <ele>840.300966</ele>
        <time>2021-11-20T00:27:07.588Z</time>
      </trkpt>
      <trkpt lat="47.647323" lon="7.995930">
        <ele>840.187219</ele>
        <time>2021-11-20T00:27:08.347Z</time>
      </trkpt>
      <trkpt lat="47.647101" lon="7.995779">
        <ele>839.719880</ele>
        <time>2021-11-20T00:27:11.816Z</time>
      </trkpt>
      <trkpt lat="47.647045" lon="7.995675">
        <ele>839.548227</ele>
        <time>2021-11-20T00:27:12.998Z</time>
      </trkpt>
      <trkpt lat="47.647053" lon="7.995177">
        <ele>838.905973</ele>
        <time>2021-11-20T00:27:17.803Z</time>
      </trkpt>
      <trkpt lat="47.647038" lon="7.995032">
        <ele>838.716834</ele>
        <time>2021-11-20T00:27:19.915Z</time>
      </trkpt>
      <trkpt lat="47.646980" lon="7.994940">
        <ele>838.554382</ele>
        <time>2021-11-20T00:27:22.065Z</time>
      </trkpt>
      <trkpt lat="47.646888" lon="7.994902">
        <ele>838.371626</ele>
        <time>2021-11-20T00:27:23.432Z</time>
      </trkpt>
      <trkpt lat="47.646605" lon="7.994992">
        <ele>837.817738</ele>
        <time>2021-11-20T00:27:29.295Z</time>
      </trkpt>
      <trkpt lat="47.646196" lon="7.995247">
        <ele>837.465843</ele>
        <time>2021-11-20T00:27:39.050Z</time>
      </trkpt>
      <trkpt lat="47.645787" lon="7.995224">
        <ele>839.264896</ele>
        <time>2021-11-20T00:27:53.827Z</time>
      </trkpt>
      <trkpt lat="47.645698" lon="7.995252">
        <ele>839.664787</ele>
        <time>2021-11-20T00:27:58.121Z</time>
      </trkpt>
      <trkpt lat="47.645653" lon="7.995348">
        <ele>840.011114</ele>
        <time>2021-11-20T00:28:01.667Z</time>
      </trkpt>
      <trkpt lat="47.645591" lon="7.995851">
        <ele>841.525381</ele>
        <time>2021-11-20T00:28:16.007Z</time>
      </trkpt>
      <trkpt lat="47.645309" lon="7.996241">
        <ele>843.219571</ele>
        <time>2021-11-20T00:28:32.132Z</time>
      </trkpt>
      <trkpt lat="47.645055" lon="7.996521">
        <ele>844.610259</ele>
        <time>2021-11-20T00:28:45.428Z</time>
      </trkpt>
      <trkpt lat="47.644740" lon="7.996888">
        <ele>845.926674</ele>
        <time>2021-11-20T00:29:00.026Z</time>
      </trkpt>
      <trkpt lat="47.644596" lon="7.997035">
        <ele>846.441407</ele>
        <time>2021-11-20T00:29:05.163Z</time>
      </trkpt>
      <trkpt lat="47.644438" lon="7.997158">
        <ele>846.966869</ele>
        <time>2021-11-20T00:29:10.147Z</time>
      </trkpt>
      <trkpt lat="47.643844" lon="7.997483">
        <ele>848.831396</ele>
        <time>2021-11-20T00:29:27.194Z</time>
      </trkpt>
      <trkpt lat="47.642552" lon="7.998017">
        <ele>851.665558</ele>
        <time>2021-11-20T00:29:51.407Z</time>
      </trkpt>
      <trkpt lat="47.641770" lon="7.998048">
        <ele>852.923850</ele>
        <time>2021-11-20T00:30:08.609Z</time>
      </trkpt>
      <trkpt lat="47.641036" lon="7.997873">
        <ele>855.115417</ele>
        <time>2021-11-20T00:30:28.487Z</time>
      </trkpt>
      <trkpt lat="47.640815" lon="7.997823">
        <ele>855.871250</ele>
        <time>2021-11-20T00:30:34.824Z</time>
      </trkpt>
      <trkpt lat="47.640625" lon="7.997779">
        <ele>856.521414</ele>
        <time>2021-11-20T00:30:41.015Z</time>
      </trkpt>
      <trkpt lat="47.640155" lon="7.997748">
        <ele>858.112054</ele>
        <time>2021-11-20T00:30:55.717Z</time>
      </trkpt>
      <trkpt lat="47.639647" lon="7.997807">
        <ele>859.378493</ele>
        <time>2021-11-20T00:31:10.713Z</time>
      </trkpt>
      <trkpt lat="47.638986" lon="7.997647">
        <ele>859.720902</ele>
        <time>2021-11-20T00:31:27.607Z</time>
      </trkpt>
      <trkpt lat="47.638786" lon="7.997622">
        <ele>859.823516</ele>
        <time>2021-11-20T00:31:31.598Z</time>
      </trkpt>
      <trkpt lat="47.638668" lon="7.997624">
        <ele>859.883849</ele>
        <time>2021-11-20T00:31:32.940Z</time>
      </trkpt>
      <trkpt lat="47.637663" lon="7.997243">
        <ele>858.542438</ele>
        <time>2021-11-20T00:31:44.070Z</time>
      </trkpt>
      <trkpt lat="47.637224" lon="7.997041">
        <ele>856.549320</ele>
        <time>2021-11-20T00:31:48.491Z</time>
      </trkpt>
      <trkpt lat="47.637201" lon="7.997016">
        <ele>856.425690</ele>
        <time>2021-11-20T00:31:48.760Z</time>
      </trkpt>
      <trkpt lat="47.636864" lon="7.996812">
        <ele>854.847399</ele>
        <time>2021-11-20T00:31:52.190Z</time>
      </trkpt>
      <trkpt lat="47.636310" lon="7.996180">
        <ele>851.562927</ele>
        <time>2021-11-20T00:31:58.704Z</time>
      </trkpt>
      <trkpt lat="47.636073" lon="7.995739">
        <ele>849.215809</ele>
        <time>2021-11-20T00:32:02.222Z</time>
      </trkpt>
      <trkpt lat="47.635961" lon="7.995376">
        <ele>847.554564</ele>
        <time>2021-11-20T00:32:04.714Z</time>
      </trkpt>
      <trkpt lat="47.635644" lon="7.993534">
        <ele>839.125141</ele>
        <time>2021-11-20T00:32:16.325Z</time>
      </trkpt>
      <trkpt lat="47.635496" lon="7.992462">
        <ele>833.154079</ele>
        <time>2021-11-20T00:32:22.837Z</time>
      </trkpt>
      <trkpt lat="47.635416" lon="7.991898">
        <ele>830.009067</ele>
        <time>2021-11-20T00:32:26.208Z</time>
      </trkpt>
      <trkpt lat="47.635223" lon="7.991120">
        <ele>825.554919</ele>
        <time>2021-11-20T00:32:31.092Z</time>
      </trkpt>
      <trkpt lat="47.635172" lon="7.990723">
        <ele>823.471595</ele>
        <time>2021-11-20T00:32:33.471Z</time>
      </trkpt>
      <trkpt lat="47.635190" lon="7.990009">
        <ele>819.788472</ele>
        <time>2021-11-20T00:32:37.730Z</time>
      </trkpt>
      <trkpt lat="47.635202" lon="7.989852">
        <ele>818.973974</ele>
        <time>2021-11-20T00:32:38.647Z</time>
      </trkpt>
      <trkpt lat="47.635201" lon="7.989572">
        <ele>817.530602</ele>
        <time>2021-11-20T00:32:40.411Z</time>
      </trkpt>
      <trkpt lat="47.635279" lon="7.988526">
        <ele>812.146507</ele>
        <time>2021-11-20T00:32:46.834Z</time>
      </trkpt>
      <trkpt lat="47.635335" lon="7.988011">
        <ele>809.581985</ele>
        <time>2021-11-20T00:32:49.973Z</time>
      </trkpt>
      <trkpt lat="47.635440" lon="7.987355">
        <ele>806.267325</ele>
        <time>2021-11-20T00:32:55.770Z</time>
      </trkpt>
      <trkpt lat="47.635457" lon="7.987129">
        <ele>805.149398</ele>
        <time>2021-11-20T00:32:57.680Z</time>
      </trkpt>
      <trkpt lat="47.635422" lon="7.986299">
        <ele>801.061097</ele>
        <time>2021-11-20T00:33:05.021Z</time>
      </trkpt>
      <trkpt lat="47.635370" lon="7.985930">
        <ele>799.180712</ele>
        <time>2021-11-20T00:33:08.156Z</time>
      </trkpt>
      <trkpt lat="47.635166" lon="7.986036">
        <ele>797.538650</ele>
        <time>2021-11-20T00:33:10.022Z</time>
      </trkpt>
      <trkpt lat="47.634870" lon="7.986311">
        <ele>794.885583</ele>
        <time>2021-11-20T00:33:13.074Z</time>
      </trkpt>
      <trkpt lat="47.634415" lon="7.986884">
        <ele>790.351999</ele>
        <time>2021-11-20T00:33:18.353Z</time>
      </trkpt>
      <trkpt lat="47.634339" lon="7.986935">
        <ele>789.718332</ele>
        <time>2021-11-20T00:33:19.069Z</time>
      </trkpt>
      <trkpt lat="47.634251" lon="7.986971">
        <ele>789.024850</ele>
        <time>2021-11-20T00:33:19.876Z</time>
      </trkpt>
      <trkpt lat="47.634102" lon="7.987026">
        <ele>787.858389</ele>
        <time>2021-11-20T00:33:21.278Z</time>
      </trkpt>
      <trkpt lat="47.633835" lon="7.987140">
        <ele>786.046789</ele>
        <time>2021-11-20T00:33:23.814Z</time>
      </trkpt>
      <trkpt lat="47.633562" lon="7.987139">
        <ele>785.346163</ele>
        <time>2021-11-20T00:33:26.389Z</time>
      </trkpt>
      <trkpt lat="47.633095" lon="7.986989">
        <ele>784.119906</ele>
        <time>2021-11-20T00:33:31.154Z</time>
      </trkpt>
      <trkpt lat="47.633007" lon="7.986924">
        <ele>783.867634</ele>
        <time>2021-11-20T00:33:32.080Z</time>
      </trkpt>
      <trkpt lat="47.633235" lon="7.986554">
        <ele>783.000547</ele>
        <time>2021-11-20T00:33:35.562Z</time>
      </trkpt>
      <trkpt lat="47.633442" lon="7.986219">
        <ele>782.214499</ele>
        <time>2021-11-20T00:33:40.084Z</time>
      </trkpt>
      <trkpt lat="47.633741" lon="7.985722">
        <ele>782.052688</ele>
        <time>2021-11-20T00:33:49.408Z</time>
      </trkpt>
      <trkpt lat="47.634382" lon="7.984814">
        <ele>784.101023</ele>
        <time>2021-11-20T00:34:13.536Z</time>
      </trkpt>
      <trkpt lat="47.634468" lon="7.984733">
        <ele>784.336469</ele>
        <time>2021-11-20T00:34:16.835Z</time>
      </trkpt>
      <trkpt lat="47.634506" lon="7.984696">
        <ele>784.441525</ele>
        <time>2021-11-20T00:34:18.352Z</time>
      </trkpt>
      <trkpt lat="47.634638" lon="7.984601">
        <ele>784.780631</ele>
        <time>2021-11-20T00:34:21.183Z</time>
      </trkpt>
      <trkpt lat="47.634817" lon="7.984495">
        <ele>785.226115</ele>
        <time>2021-11-20T00:34:26.614Z</time>
      </trkpt>
      <trkpt lat="47.635138" lon="7.984322">
        <ele>785.807365</ele>
        <time>2021-11-20T00:34:34.104Z</time>
      </trkpt>
      <trkpt lat="47.635311" lon="7.984184">
        <ele>785.917217</ele>
        <time>2021-11-20T00:34:37.611Z</time>
      </trkpt>
      <trkpt lat="47.635363" lon="7.984125">
        <ele>785.953827</ele>
        <time>2021-11-20T00:34:39.062Z</time>
      </trkpt>
      <trkpt lat="47.635550" lon="7.983913">
        <ele>786.085444</ele>
        <time>2021-11-20T00:34:43.842Z</time>
      </trkpt>
      <trkpt lat="47.636167" lon="7.983425">
        <ele>786.476484</ele>
        <time>2021-11-20T00:34:55.248Z</time>
      </trkpt>
      <trkpt lat="47.636362" lon="7.983140">
        <ele>786.629559</ele>
        <time>2021-11-20T00:34:58.639Z</time>
      </trkpt>
      <trkpt lat="47.636470" lon="7.982623">
        <ele>786.902302</ele>
        <time>2021-11-20T00:35:02.845Z</time>
      </trkpt>
      <trkpt lat="47.636685" lon="7.980585">
        <ele>788.296591</ele>
        <time>2021-11-20T00:35:28.274Z</time>
      </trkpt>
      <trkpt lat="47.636717" lon="7.980417">
        <ele>788.414593</ele>
        <time>2021-11-20T00:35:31.102Z</time>
      </trkpt>
      <trkpt lat="47.636749" lon="7.980255">
        <ele>788.528699</ele>
        <time>2021-11-20T00:35:34.530Z</time>
      </trkpt>
      <trkpt lat="47.636898" lon="7.979438">
        <ele>790.701274</ele>
        <time>2021-11-20T00:35:49.854Z</time>
      </trkpt>
      <trkpt lat="47.636860" lon="7.978383">
        <ele>793.494608</ele>
        <time>2021-11-20T00:36:12.612Z</time>
      </trkpt>
      <trkpt lat="47.637178" lon="7.977129">
        <ele>797.213051</ele>
        <time>2021-11-20T00:36:43.859Z</time>
      </trkpt>
      <trkpt lat="47.637166" lon="7.976669">
        <ele>798.580062</ele>
        <time>2021-11-20T00:36:53.931Z</time>
      </trkpt>
      <trkpt lat="47.637104" lon="7.976387">
        <ele>799.460921</ele>
        <time>2021-11-20T00:37:00.157Z</time>
      </trkpt>
      <trkpt lat="47.636964" lon="7.975901">
        <ele>801.030471</ele>
        <time>2021-11-20T00:37:11.268Z</time>
      </trkpt>
      <trkpt lat="47.636945" lon="7.975599">
        <ele>801.931175</ele>
        <time>2021-11-20T00:37:17.655Z</time>
      </trkpt>
      <trkpt lat="47.637015" lon="7.975296">
        <ele>802.882363</ele>
        <time>2021-11-20T00:37:24.387Z</time>
      </trkpt>
      <trkpt lat="47.637233" lon="7.974898">
        <ele>804.394323</ele>
        <time>2021-11-20T00:37:35.651Z</time>
      </trkpt>
      <trkpt lat="47.638035" lon="7.974142">
        <ele>808.527844</ele>
        <time>2021-11-20T00:38:07.814Z</time>
      </trkpt>
      <trkpt lat="47.638252" lon="7.973962">
        <ele>809.609379</ele>
        <time>2021-11-20T00:38:15.257Z</time>
      </trkpt>
      <trkpt lat="47.638636" lon="7.973699">
        <ele>811.439102</ele>
        <time>2021-11-20T00:38:27.949Z</time>
      </trkpt>
      <trkpt lat="47.638659" lon="7.973682">
        <ele>811.538045</ele>
        <time>2021-11-20T00:38:29.086Z</time>
      </trkpt>
      <trkpt lat="47.638981" lon="7.973418">
        <ele>812.954608</ele>
        <time>2021-11-20T00:38:40.305Z</time>
      </trkpt>
      <trkpt lat="47.639090" lon="7.973306">
        <ele>813.465118</ele>
        <time>2021-11-20T00:38:44.331Z</time>
      </trkpt>
      <trkpt lat="47.639276" lon="7.972938">
        <ele>814.658717</ele>
        <time>2021-11-20T00:38:53.967Z</time>
      </trkpt>
      <trkpt lat="47.639406" lon="7.972397">
        <ele>816.148994</ele>
        <time>2021-11-20T00:39:06.048Z</time>
      </trkpt>
      <trkpt lat="47.639559" lon="7.972018">
        <ele>817.295336</ele>
        <time>2021-11-20T00:39:14.862Z</time>
      </trkpt>
      <trkpt lat="47.640091" lon="7.971291">
        <ele>820.387243</ele>
        <time>2021-11-20T00:39:34.703Z</time>
      </trkpt>
      <trkpt lat="47.640810" lon="7.969935">
        <ele>825.630964</ele>
        <time>2021-11-20T00:40:13.989Z</time>
      </trkpt>
      <trkpt lat="47.640891" lon="7.969731">
        <ele>826.350532</ele>
        <time>2021-11-20T00:40:20.482Z</time>
      </trkpt>
      <trkpt lat="47.640944" lon="7.969376">
        <ele>827.829201</ele>
        <time>2021-11-20T00:40:28.636Z</time>
      </trkpt>
      <trkpt lat="47.640935" lon="7.969224">
        <ele>828.456862</ele>
        <time>2021-11-20T00:40:33.480Z</time>
      </trkpt>
      <trkpt lat="47.640883" lon="7.969015">
        <ele>829.373326</ele>
        <time>2021-11-20T00:40:38.764Z</time>
      </trkpt>
      <trkpt lat="47.640375" lon="7.968035">
        <ele>834.459557</ele>
        <time>2021-11-20T00:41:11.518Z</time>
      </trkpt>
      <trkpt lat="47.640078" lon="7.967066">
        <ele>838.798409</ele>
        <time>2021-11-20T00:41:41.895Z</time>
      </trkpt>
      <trkpt lat="47.639789" lon="7.965749">
        <ele>844.338995</ele>
        <time>2021-11-20T00:42:20.474Z</time>
      </trkpt>
      <trkpt lat="47.639729" lon="7.964910">
        <ele>847.714007</ele>
        <time>2021-11-20T00:42:41.460Z</time>
      </trkpt>
      <trkpt lat="47.639730" lon="7.964417">
        <ele>848.363842</ele>
        <time>2021-11-20T00:42:51.540Z</time>
      </trkpt>
      <trkpt lat="47.639767" lon="7.964127">
        <ele>848.585636</ele>
        <time>2021-11-20T00:42:56.659Z</time>
      </trkpt>
      <trkpt lat="47.639823" lon="7.963883">
        <ele>848.779336</ele>
        <time>2021-11-20T00:43:01.094Z</time>
      </trkpt>
      <trkpt lat="47.639917" lon="7.963604">
        <ele>849.013741</ele>
        <time>2021-11-20T00:43:05.744Z</time>
      </trkpt>
      <trkpt lat="47.640083" lon="7.963229">
        <ele>849.350910</ele>
        <time>2021-11-20T00:43:10.977Z</time>
      </trkpt>
      <trkpt lat="47.640149" lon="7.963092">
        <ele>849.477466</ele>
        <time>2021-11-20T00:43:13.074Z</time>
      </trkpt>
      <trkpt lat="47.640333" lon="7.962705">
        <ele>849.833390</ele>
        <time>2021-11-20T00:43:17.023Z</time>
      </trkpt>
      <trkpt lat="47.640559" lon="7.962232">
        <ele>849.377808</ele>
        <time>2021-11-20T00:43:21.185Z</time>
      </trkpt>
      <trkpt lat="47.640636" lon="7.961996">
        <ele>848.718830</ele>
        <time>2021-11-20T00:43:22.986Z</time>
      </trkpt>
      <trkpt lat="47.640752" lon="7.961642">
        <ele>847.729552</ele>
        <time>2021-11-20T00:43:25.600Z</time>
      </trkpt>
      <trkpt lat="47.640767" lon="7.961523">
        <ele>847.425302</ele>
        <time>2021-11-20T00:43:26.377Z</time>
      </trkpt>
      <trkpt lat="47.640787" lon="7.961359">
        <ele>847.006454</ele>
        <time>2021-11-20T00:43:27.399Z</time>
      </trkpt>
      <trkpt lat="47.640808" lon="7.961104">
        <ele>846.360839</ele>
        <time>2021-11-20T00:43:29.170Z</time>
      </trkpt>
      <trkpt lat="47.640798" lon="7.960852">
        <ele>845.726436</ele>
        <time>2021-11-20T00:43:30.730Z</time>
      </trkpt>
      <trkpt lat="47.640720" lon="7.960375">
        <ele>844.492878</ele>
        <time>2021-11-20T00:43:33.986Z</time>
      </trkpt>
      <trkpt lat="47.640711" lon="7.960295">
        <ele>844.289045</ele>
        <time>2021-11-20T00:43:34.461Z</time>
      </trkpt>
      <trkpt lat="47.640685" lon="7.960045">
        <ele>843.653324</ele>
        <time>2021-11-20T00:43:36.292Z</time>
      </trkpt>
      <trkpt lat="47.640685" lon="7.959821">
        <ele>843.087644</ele>
        <time>2021-11-20T00:43:37.718Z</time>
      </trkpt>
      <trkpt lat="47.640685" lon="7.959768">
        <ele>842.953070</ele>
        <time>2021-11-20T00:43:38.030Z</time>
      </trkpt>
      <trkpt lat="47.640717" lon="7.959400">
        <ele>842.010920</ele>
        <time>2021-11-20T00:43:40.604Z</time>
      </trkpt>
      <trkpt lat="47.640762" lon="7.959173">
        <ele>841.410109</ele>
        <time>2021-11-20T00:43:42.101Z</time>
      </trkpt>
      <trkpt lat="47.640856" lon="7.958970">
        <ele>840.784676</ele>
        <time>2021-11-20T00:43:43.840Z</time>
      </trkpt>
      <trkpt lat="47.640871" lon="7.958934">
        <ele>840.677201</ele>
        <time>2021-11-20T00:43:44.104Z</time>
      </trkpt>
      <trkpt lat="47.640964" lon="7.958802">
        <ele>840.192264</ele>
        <time>2021-11-20T00:43:45.260Z</time>
      </trkpt>
      <trkpt lat="47.641188" lon="7.958634">
        <ele>839.246462</ele>
        <time>2021-11-20T00:43:47.863Z</time>
      </trkpt>
      <trkpt lat="47.641294" lon="7.958578">
        <ele>838.822450</ele>
        <time>2021-11-20T00:43:48.886Z</time>
      </trkpt>
      <trkpt lat="47.641418" lon="7.958516">
        <ele>838.329351</ele>
        <time>2021-11-20T00:43:50.416Z</time>
      </trkpt>
      <trkpt lat="47.641418" lon="7.958515">
        <ele>838.326812</ele>
        <time>2021-11-20T00:43:50.421Z</time>
      </trkpt>
      <trkpt lat="47.641574" lon="7.958423">
        <ele>837.694217</ele>
        <time>2021-11-20T00:43:52.078Z</time>
      </trkpt>
      <trkpt lat="47.641842" lon="7.958150">
        <ele>836.521359</ele>
        <time>2021-11-20T00:43:55.396Z</time>
      </trkpt>
      <trkpt lat="47.641947" lon="7.957833">
        <ele>836.058082</ele>
        <time>2021-11-20T00:43:57.869Z</time>
      </trkpt>
      <trkpt lat="47.641955" lon="7.957683">
        <ele>835.860739</ele>
        <time>2021-11-20T00:43:58.891Z</time>
      </trkpt>
      <trkpt lat="47.641947" lon="7.957536">
        <ele>835.667317</ele>
        <time>2021-11-20T00:43:59.838Z</time>
      </trkpt>
      <trkpt lat="47.641798" lon="7.957096">
        <ele>835.021459</ele>
        <time>2021-11-20T00:44:03.382Z</time>
      </trkpt>
      <trkpt lat="47.641550" lon="7.956851">
        <ele>834.441549</ele>
        <time>2021-11-20T00:44:06.670Z</time>
      </trkpt>
      <trkpt lat="47.641084" lon="7.956545">
        <ele>833.449634</ele>
        <time>2021-11-20T00:44:12.352Z</time>
      </trkpt>
      <trkpt lat="47.640991" lon="7.956380">
        <ele>833.167494</ele>
        <time>2021-11-20T00:44:14.452Z</time>
      </trkpt>
      <trkpt lat="47.640998" lon="7.956247">
        <ele>833.149315</ele>
        <time>2021-11-20T00:44:15.519Z</time>
      </trkpt>
      <trkpt lat="47.641056" lon="7.956097">
        <ele>833.349385</ele>
        <time>2021-11-20T00:44:16.857Z</time>
      </trkpt>
      <trkpt lat="47.640501" lon="7.955695">
        <ele>834.409717</ele>
        <time>2021-11-20T00:44:30.453Z</time>
      </trkpt>
      <trkpt lat="47.640167" lon="7.955381">
        <ele>835.088546</ele>
        <time>2021-11-20T00:44:39.635Z</time>
      </trkpt>
      <trkpt lat="47.639795" lon="7.954985">
        <ele>835.874558</ele>
        <time>2021-11-20T00:44:50.907Z</time>
      </trkpt>
      <trkpt lat="47.639696" lon="7.954882">
        <ele>836.082142</ele>
        <time>2021-11-20T00:44:54.507Z</time>
      </trkpt>
      <trkpt lat="47.639497" lon="7.954714">
        <ele>836.793059</ele>
        <time>2021-11-20T00:45:00.767Z</time>
      </trkpt>
      <trkpt lat="47.639207" lon="7.954547">
        <ele>837.872596</ele>
        <time>2021-11-20T00:45:09.700Z</time>
      </trkpt>
      <trkpt lat="47.638760" lon="7.954525">
        <ele>839.424741</ele>
        <time>2021-11-20T00:45:22.674Z</time>
      </trkpt>
      <trkpt lat="47.637932" lon="7.954791">
        <ele>842.364828</ele>
        <time>2021-11-20T00:45:47.754Z</time>
      </trkpt>
      <trkpt lat="47.637714" lon="7.954725">
        <ele>843.404174</ele>
        <time>2021-11-20T00:45:54.034Z</time>
      </trkpt>
      <trkpt lat="47.637492" lon="7.954483">
        <ele>844.709620</ele>
        <time>2021-11-20T00:46:01.892Z</time>
      </trkpt>
      <trkpt lat="47.637400" lon="7.954079">
        <ele>846.071450</ele>
        <time>2021-11-20T00:46:10.643Z</time>
      </trkpt>
      <trkpt lat="47.637300" lon="7.951504">
        <ele>854.422006</ele>
        <time>2021-11-20T00:47:15.036Z</time>
      </trkpt>
      <trkpt lat="47.637306" lon="7.951326">
        <ele>855.010327</ele>
        <time>2021-11-20T00:47:20.318Z</time>
      </trkpt>
      <trkpt lat="47.637337" lon="7.951149">
        <ele>855.614027</ele>
        <time>2021-11-20T00:47:24.458Z</time>
      </trkpt>
      <trkpt lat="47.637383" lon="7.950993">
        <ele>856.176140</ele>
        <time>2021-11-20T00:47:27.741Z</time>
      </trkpt>
      <trkpt lat="47.637451" lon="7.950859">
        <ele>856.729892</ele>
        <time>2021-11-20T00:47:32.429Z</time>
      </trkpt>
      <trkpt lat="47.637598" lon="7.950642">
        <ele>857.745638</ele>
        <time>2021-11-20T00:47:38.714Z</time>
      </trkpt>
      <trkpt lat="47.637813" lon="7.950431">
        <ele>859.008389</ele>
        <time>2021-11-20T00:47:47.387Z</time>
      </trkpt>
      <trkpt lat="47.638433" lon="7.949786">
        <ele>860.632331</ele>
        <time>2021-11-20T00:48:08.724Z</time>
      </trkpt>
      <trkpt lat="47.638845" lon="7.949151">
        <ele>861.503013</ele>
        <time>2021-11-20T00:48:20.411Z</time>
      </trkpt>
      <trkpt lat="47.639038" lon="7.948758">
        <ele>861.983331</ele>
        <time>2021-11-20T00:48:25.305Z</time>
      </trkpt>
      <trkpt lat="47.639170" lon="7.948455">
        <ele>862.339701</ele>
        <time>2021-11-20T00:48:28.569Z</time>
      </trkpt>
      <trkpt lat="47.639254" lon="7.948202">
        <ele>862.150189</ele>
        <time>2021-11-20T00:48:31.119Z</time>
      </trkpt>
      <trkpt lat="47.639305" lon="7.947792">
        <ele>861.758152</ele>
        <time>2021-11-20T00:48:34.441Z</time>
      </trkpt>
      <trkpt lat="47.639245" lon="7.947417">
        <ele>861.395735</ele>
        <time>2021-11-20T00:48:37.395Z</time>
      </trkpt>
      <trkpt lat="47.639171" lon="7.947230">
        <ele>861.191817</ele>
        <time>2021-11-20T00:48:39.243Z</time>
      </trkpt>
      <trkpt lat="47.639079" lon="7.947097">
        <ele>861.012586</ele>
        <time>2021-11-20T00:48:40.504Z</time>
      </trkpt>
      <trkpt lat="47.638801" lon="7.946735">
        <ele>860.496471</ele>
        <time>2021-11-20T00:48:44.597Z</time>
      </trkpt>
      <trkpt lat="47.638633" lon="7.946522">
        <ele>860.188120</ele>
        <time>2021-11-20T00:48:47.344Z</time>
      </trkpt>
      <trkpt lat="47.638601" lon="7.946470">
        <ele>860.121900</ele>
        <time>2021-11-20T00:48:47.899Z</time>
      </trkpt>
      <trkpt lat="47.638490" lon="7.946296">
        <ele>859.896590</ele>
        <time>2021-11-20T00:48:49.565Z</time>
      </trkpt>
      <trkpt lat="47.638187" lon="7.945494">
        <ele>859.384847</ele>
        <time>2021-11-20T00:48:57.074Z</time>
      </trkpt>
      <trkpt lat="47.638180" lon="7.945471">
        <ele>859.371126</ele>
        <time>2021-11-20T00:48:57.216Z</time>
      </trkpt>
      <trkpt lat="47.638087" lon="7.945165">
        <ele>859.188631</ele>
        <time>2021-11-20T00:49:00.174Z</time>
      </trkpt>
      <trkpt lat="47.637977" lon="7.944887">
        <ele>859.013364</ele>
        <time>2021-11-20T00:49:02.640Z</time>
      </trkpt>
      <trkpt lat="47.637846" lon="7.944700">
        <ele>858.866713</ele>
        <time>2021-11-20T00:49:05.349Z</time>
      </trkpt>
      <trkpt lat="47.637690" lon="7.944520">
        <ele>858.707282</ele>
        <time>2021-11-20T00:49:07.885Z</time>
      </trkpt>
      <trkpt lat="47.637583" lon="7.944404">
        <ele>858.600371</ele>
        <time>2021-11-20T00:49:10.067Z</time>
      </trkpt>
      <trkpt lat="47.637442" lon="7.944256">
        <ele>858.461030</ele>
        <time>2021-11-20T00:49:12.627Z</time>
      </trkpt>
      <trkpt lat="47.637316" lon="7.944402">
        <ele>858.422790</ele>
        <time>2021-11-20T00:49:15.466Z</time>
      </trkpt>
      <trkpt lat="47.636926" lon="7.944520">
        <ele>858.443725</ele>
        <time>2021-11-20T00:49:21.766Z</time>
      </trkpt>
      <trkpt lat="47.636517" lon="7.944381">
        <ele>858.465793</ele>
        <time>2021-11-20T00:49:28.569Z</time>
      </trkpt>
      <trkpt lat="47.636440" lon="7.944352">
        <ele>858.469971</ele>
        <time>2021-11-20T00:49:30.022Z</time>
      </trkpt>
      <trkpt lat="47.636341" lon="7.944314">
        <ele>858.475350</ele>
        <time>2021-11-20T00:49:31.773Z</time>
      </trkpt>
      <trkpt lat="47.636224" lon="7.944307">
        <ele>858.481509</ele>
        <time>2021-11-20T00:49:33.260Z</time>
      </trkpt>
      <trkpt lat="47.636029" lon="7.944437">
        <ele>858.492752</ele>
        <time>2021-11-20T00:49:36.496Z</time>
      </trkpt>
      <trkpt lat="47.635520" lon="7.945990">
        <ele>858.565110</ele>
        <time>2021-11-20T00:49:52.105Z</time>
      </trkpt>
      <trkpt lat="47.635305" lon="7.946397">
        <ele>858.588292</ele>
        <time>2021-11-20T00:49:56.613Z</time>
      </trkpt>
      <trkpt lat="47.634967" lon="7.946762">
        <ele>858.616099</ele>
        <time>2021-11-20T00:50:02.271Z</time>
      </trkpt>
      <trkpt lat="47.634741" lon="7.946805">
        <ele>858.631256</ele>
        <time>2021-11-20T00:50:07.006Z</time>
      </trkpt>
      <trkpt lat="47.634598" lon="7.946753">
        <ele>859.063886</ele>
        <time>2021-11-20T00:50:10.199Z</time>
      </trkpt>
      <trkpt lat="47.634437" lon="7.946594">
        <ele>859.645622</ele>
        <time>2021-11-20T00:50:15.257Z</time>
      </trkpt>
      <trkpt lat="47.634304" lon="7.946352">
        <ele>860.278617</ele>
        <time>2021-11-20T00:50:20.791Z</time>
      </trkpt>
      <trkpt lat="47.633987" lon="7.945419">
        <ele>862.396619</ele>
        <time>2021-11-20T00:50:41.314Z</time>
      </trkpt>
      <trkpt lat="47.633902" lon="7.945296">
        <ele>862.753742</ele>
        <time>2021-11-20T00:50:44.255Z</time>
      </trkpt>
      <trkpt lat="47.633818" lon="7.945221">
        <ele>863.048628</ele>
        <time>2021-11-20T00:50:48.588Z</time>
      </trkpt>
      <trkpt lat="47.633720" lon="7.945173">
        <ele>863.359060</ele>
        <time>2021-11-20T00:50:51.150Z</time>
      </trkpt>
      <trkpt lat="47.633664" lon="7.945157">
        <ele>863.530605</ele>
        <time>2021-11-20T00:50:52.331Z</time>
      </trkpt>
      <trkpt lat="47.633591" lon="7.945179">
        <ele>863.754676</ele>
        <time>2021-11-20T00:50:54.190Z</time>
      </trkpt>
      <trkpt lat="47.633498" lon="7.945219">
        <ele>864.045225</ele>
        <time>2021-11-20T00:50:58.102Z</time>
      </trkpt>
      <trkpt lat="47.633364" lon="7.945348">
        <ele>864.440514</ele>
        <time>2021-11-20T00:51:02.517Z</time>
      </trkpt>
      <trkpt lat="47.632250" lon="7.946421">
        <ele>867.727248</ele>
        <time>2021-11-20T00:51:39.399Z</time>
      </trkpt>
      <trkpt lat="47.632015" lon="7.946574">
        <ele>868.362334</ele>
        <time>2021-11-20T00:51:43.184Z</time>
      </trkpt>
      <trkpt lat="47.631252" lon="7.946953">
        <ele>867.364304</ele>
        <time>2021-11-20T00:51:53.261Z</time>
      </trkpt>
      <trkpt lat="47.630971" lon="7.947084">
        <ele>866.922012</ele>
        <time>2021-11-20T00:51:56.666Z</time>
      </trkpt>
      <trkpt lat="47.630672" lon="7.947236">
        <ele>866.447408</ele>
        <time>2021-11-20T00:52:00.192Z</time>
      </trkpt>
      <trkpt lat="47.629991" lon="7.947744">
        <ele>864.455429</ele>
        <time>2021-11-20T00:52:07.885Z</time>
      </trkpt>
      <trkpt lat="47.629363" lon="7.948362">
        <ele>861.364545</ele>
        <time>2021-11-20T00:52:15.245Z</time>
      </trkpt>
      <trkpt lat="47.629285" lon="7.948439">
        <ele>860.980275</ele>
        <time>2021-11-20T00:52:16.118Z</time>
      </trkpt>
      <trkpt lat="47.629252" lon="7.948471">
        <ele>860.818576</ele>
        <time>2021-11-20T00:52:16.504Z</time>
      </trkpt>
      <trkpt lat="47.629112" lon="7.948574">
        <ele>860.177622</ele>
        <time>2021-11-20T00:52:18.045Z</time>
      </trkpt>
      <trkpt lat="47.629018" lon="7.948689">
        <ele>859.677906</ele>
        <time>2021-11-20T00:52:19.209Z</time>
      </trkpt>
      <trkpt lat="47.628909" lon="7.948921">
        <ele>858.896130</ele>
        <time>2021-11-20T00:52:21.037Z</time>
      </trkpt>
      <trkpt lat="47.628855" lon="7.948997">
        <ele>858.590849</ele>
        <time>2021-11-20T00:52:21.726Z</time>
      </trkpt>
      <trkpt lat="47.628255" lon="7.949609">
        <ele>855.743069</ele>
        <time>2021-11-20T00:52:28.561Z</time>
      </trkpt>
      <trkpt lat="47.628154" lon="7.949804">
        <ele>855.096764</ele>
        <time>2021-11-20T00:52:30.164Z</time>
      </trkpt>
      <trkpt lat="47.628018" lon="7.949775">
        <ele>854.561001</ele>
        <time>2021-11-20T00:52:31.558Z</time>
      </trkpt>
      <trkpt lat="47.627819" lon="7.949787">
        <ele>853.784386</ele>
        <time>2021-11-20T00:52:33.522Z</time>
      </trkpt>
      <trkpt lat="47.627702" lon="7.949801">
        <ele>853.326678</ele>
        <time>2021-11-20T00:52:34.829Z</time>
      </trkpt>
      <trkpt lat="47.627472" lon="7.949828">
        <ele>852.427020</ele>
        <time>2021-11-20T00:52:37.122Z</time>
      </trkpt>
      <trkpt lat="47.627407" lon="7.949827">
        <ele>852.173547</ele>
        <time>2021-11-20T00:52:37.976Z</time>
      </trkpt>
      <trkpt lat="47.627309" lon="7.949824">
        <ele>851.791327</ele>
        <time>2021-11-20T00:52:38.999Z</time>
      </trkpt>
      <trkpt lat="47.627208" lon="7.949813">
        <ele>851.396409</ele>
        <time>2021-11-20T00:52:39.975Z</time>
      </trkpt>
      <trkpt lat="47.627110" lon="7.949777">
        <ele>851.000820</ele>
        <time>2021-11-20T00:52:41.150Z</time>
      </trkpt>
      <trkpt lat="47.626859" lon="7.949688">
        <ele>849.989627</ele>
        <time>2021-11-20T00:52:43.817Z</time>
      </trkpt>
      <trkpt lat="47.626752" lon="7.949657">
        <ele>849.562449</ele>
        <time>2021-11-20T00:52:44.997Z</time>
      </trkpt>
      <trkpt lat="47.626683" lon="7.949637">
        <ele>849.286974</ele>
        <time>2021-11-20T00:52:45.663Z</time>
      </trkpt>
      <trkpt lat="47.626401" lon="7.949689">
        <ele>848.173505</ele>
        <time>2021-11-20T00:52:48.437Z</time>
      </trkpt>
      <trkpt lat="47.626137" lon="7.949956">
        <ele>846.921618</ele>
        <time>2021-11-20T00:52:51.515Z</time>
      </trkpt>
      <trkpt lat="47.626078" lon="7.950083">
        <ele>846.514276</ele>
        <time>2021-11-20T00:52:52.608Z</time>
      </trkpt>
      <trkpt lat="47.626026" lon="7.950244">
        <ele>846.042804</ele>
        <time>2021-11-20T00:52:53.714Z</time>
      </trkpt>
      <trkpt lat="47.625896" lon="7.950889">
        <ele>844.250992</ele>
        <time>2021-11-20T00:52:58.235Z</time>
      </trkpt>
      <trkpt lat="47.625850" lon="7.951040">
        <ele>843.744426</ele>
        <time>2021-11-20T00:52:59.248Z</time>
      </trkpt>
      <trkpt lat="47.625812" lon="7.951163">
        <ele>843.330797</ele>
        <time>2021-11-20T00:53:00.070Z</time>
      </trkpt>
      <trkpt lat="47.625460" lon="7.951852">
        <ele>840.687802</ele>
        <time>2021-11-20T00:53:05.488Z</time>
      </trkpt>
      <trkpt lat="47.625338" lon="7.952002">
        <ele>839.969137</ele>
        <time>2021-11-20T00:53:06.993Z</time>
      </trkpt>
      <trkpt lat="47.625089" lon="7.952131">
        <ele>838.772863</ele>
        <time>2021-11-20T00:53:09.469Z</time>
      </trkpt>
      <trkpt lat="47.624864" lon="7.952108">
        <ele>837.749896</ele>
        <time>2021-11-20T00:53:11.746Z</time>
      </trkpt>
      <trkpt lat="47.624794" lon="7.952070">
        <ele>837.411808</ele>
        <time>2021-11-20T00:53:12.378Z</time>
      </trkpt>
      <trkpt lat="47.624692" lon="7.951963">
        <ele>836.845205</ele>
        <time>2021-11-20T00:53:13.596Z</time>
      </trkpt>
      <trkpt lat="47.624014" lon="7.951018">
        <ele>836.058037</ele>
        <time>2021-11-20T00:53:23.776Z</time>
      </trkpt>
      <trkpt lat="47.623553" lon="7.950603">
        <ele>835.964049</ele>
        <time>2021-11-20T00:53:32.116Z</time>
      </trkpt>
      <trkpt lat="47.623105" lon="7.950303">
        <ele>835.960605</ele>
        <time>2021-11-20T00:53:44.979Z</time>
      </trkpt>
      <trkpt lat="47.622946" lon="7.950255">
        <ele>836.633474</ele>
        <time>2021-11-20T00:53:50.027Z</time>
      </trkpt>
      <trkpt lat="47.622642" lon="7.950331">
        <ele>837.911903</ele>
        <time>2021-11-20T00:53:58.722Z</time>
      </trkpt>
      <trkpt lat="47.622427" lon="7.950567">
        <ele>839.020975</ele>
        <time>2021-11-20T00:54:06.964Z</time>
      </trkpt>
      <trkpt lat="47.622278" lon="7.951027">
        <ele>840.447472</ele>
        <time>2021-11-20T00:54:17.434Z</time>
      </trkpt>
      <trkpt lat="47.622272" lon="7.951112">
        <ele>840.686352</ele>
        <time>2021-11-20T00:54:19.554Z</time>
      </trkpt>
      <trkpt lat="47.622265" lon="7.951206">
        <ele>840.950688</ele>
        <time>2021-11-20T00:54:21.089Z</time>
      </trkpt>
      <trkpt lat="47.622185" lon="7.951242">
        <ele>841.297364</ele>
        <time>2021-11-20T00:54:24.825Z</time>
      </trkpt>
      <trkpt lat="47.622076" lon="7.951302">
        <ele>841.779485</ele>
        <time>2021-11-20T00:54:27.793Z</time>
      </trkpt>
      <trkpt lat="47.621546" lon="7.951345">
        <ele>844.122969</ele>
        <time>2021-11-20T00:54:47.168Z</time>
      </trkpt>
      <trkpt lat="47.621527" lon="7.951352">
        <ele>844.222205</ele>
        <time>2021-11-20T00:54:48.347Z</time>
      </trkpt>
      <trkpt lat="47.621172" lon="7.951487">
        <ele>846.079878</ele>
        <time>2021-11-20T00:55:02.394Z</time>
      </trkpt>
      <trkpt lat="47.620663" lon="7.951396">
        <ele>848.678673</ele>
        <time>2021-11-20T00:55:22.014Z</time>
      </trkpt>
      <trkpt lat="47.620471" lon="7.951390">
        <ele>849.652139</ele>
        <time>2021-11-20T00:55:28.797Z</time>
      </trkpt>
      <trkpt lat="47.620184" lon="7.951444">
        <ele>851.118599</ele>
        <time>2021-11-20T00:55:38.502Z</time>
      </trkpt>
      <trkpt lat="47.618671" lon="7.951343">
        <ele>854.953893</ele>
        <time>2021-11-20T00:56:22.125Z</time>
      </trkpt>
      <trkpt lat="47.618483" lon="7.951366">
        <ele>855.330474</ele>
        <time>2021-11-20T00:56:25.173Z</time>
      </trkpt>
      <trkpt lat="47.618278" lon="7.951491">
        <ele>855.772939</ele>
        <time>2021-11-20T00:56:27.770Z</time>
      </trkpt>
      <trkpt lat="47.618199" lon="7.951419">
        <ele>855.958031</ele>
        <time>2021-11-20T00:56:29.011Z</time>
      </trkpt>
      <trkpt lat="47.617993" lon="7.951246">
        <ele>855.238620</ele>
        <time>2021-11-20T00:56:31.548Z</time>
      </trkpt>
      <trkpt lat="47.617931" lon="7.951183">
        <ele>854.920636</ele>
        <time>2021-11-20T00:56:32.523Z</time>
      </trkpt>
      <trkpt lat="47.617570" lon="7.950854">
        <ele>853.127899</ele>
        <time>2021-11-20T00:56:36.857Z</time>
      </trkpt>
      <trkpt lat="47.616863" lon="7.950415">
        <ele>849.884842</ele>
        <time>2021-11-20T00:56:44.076Z</time>
      </trkpt>
      <trkpt lat="47.616253" lon="7.949690">
        <ele>845.654627</ele>
        <time>2021-11-20T00:56:51.109Z</time>
      </trkpt>
      <trkpt lat="47.615966" lon="7.949509">
        <ele>843.680413</ele>
        <time>2021-11-20T00:56:53.916Z</time>
      </trkpt>
      <trkpt lat="47.615810" lon="7.949499">
        <ele>842.691936</ele>
        <time>2021-11-20T00:56:55.356Z</time>
      </trkpt>
      <trkpt lat="47.615702" lon="7.949521">
        <ele>842.001828</ele>
        <time>2021-11-20T00:56:56.325Z</time>
      </trkpt>
      <trkpt lat="47.614682" lon="7.949596">
        <ele>835.625556</ele>
        <time>2021-11-20T00:57:09.800Z</time>
      </trkpt>
      <trkpt lat="47.614487" lon="7.949642">
        <ele>834.448837</ele>
        <time>2021-11-20T00:57:12.362Z</time>
      </trkpt>
      <trkpt lat="47.613749" lon="7.950023">
        <ele>829.791929</ele>
        <time>2021-11-20T00:57:22.613Z</time>
      </trkpt>
      <trkpt lat="47.613296" lon="7.950348">
        <ele>826.793071</ele>
        <time>2021-11-20T00:57:29.249Z</time>
      </trkpt>
      <trkpt lat="47.612472" lon="7.951053">
        <ele>821.264042</ele>
        <time>2021-11-20T00:57:41.761Z</time>
      </trkpt>
      <trkpt lat="47.610709" lon="7.952777">
        <ele>810.270893</ele>
        <time>2021-11-20T00:58:09.701Z</time>
      </trkpt>
      <trkpt lat="47.610490" lon="7.952871">
        <ele>809.189410</ele>
        <time>2021-11-20T00:58:12.919Z</time>
      </trkpt>
      <trkpt lat="47.609926" lon="7.952845">
        <ele>807.085700</ele>
        <time>2021-11-20T00:58:21.285Z</time>
      </trkpt>
      <trkpt lat="47.609848" lon="7.952864">
        <ele>806.961633</ele>
        <time>2021-11-20T00:58:22.432Z</time>
      </trkpt>
      <trkpt lat="47.609390" lon="7.951204">
        <ele>805.063655</ele>
        <time>2021-11-20T00:58:36.425Z</time>
      </trkpt>
      <trkpt lat="47.609119" lon="7.950532">
        <ele>804.232704</ele>
        <time>2021-11-20T00:58:43.657Z</time>
      </trkpt>
      <trkpt lat="47.608916" lon="7.950126">
        <ele>803.693792</ele>
        <time>2021-11-20T00:58:48.154Z</time>
      </trkpt>
      <trkpt lat="47.608814" lon="7.949946">
        <ele>803.443097</ele>
        <time>2021-11-20T00:58:50.266Z</time>
      </trkpt>
      <trkpt lat="47.608598" lon="7.949608">
        <ele>802.946566</ele>
        <time>2021-11-20T00:58:54.007Z</time>
      </trkpt>
      <trkpt lat="47.608258" lon="7.949098">
        <ele>802.181870</ele>
        <time>2021-11-20T00:58:59.306Z</time>
      </trkpt>
      <trkpt lat="47.607428" lon="7.947861">
        <ele>798.526078</ele>
        <time>2021-11-20T00:59:11.203Z</time>
      </trkpt>
      <trkpt lat="47.607177" lon="7.947456">
        <ele>797.176824</ele>
        <time>2021-11-20T00:59:14.800Z</time>
      </trkpt>
      <trkpt lat="47.607053" lon="7.947037">
        <ele>796.054499</ele>
        <time>2021-11-20T00:59:17.774Z</time>
      </trkpt>
      <trkpt lat="47.607026" lon="7.946800">
        <ele>795.464969</ele>
        <time>2021-11-20T00:59:19.342Z</time>
      </trkpt>
      <trkpt lat="47.607053" lon="7.946387">
        <ele>794.530210</ele>
        <time>2021-11-20T00:59:22.066Z</time>
      </trkpt>
      <trkpt lat="47.607219" lon="7.945696">
        <ele>792.940931</ele>
        <time>2021-11-20T00:59:26.942Z</time>
      </trkpt>
      <trkpt lat="47.607532" lon="7.944721">
        <ele>790.601321</ele>
        <time>2021-11-20T00:59:34.577Z</time>
      </trkpt>
      <trkpt lat="47.607673" lon="7.944452">
        <ele>789.863116</ele>
        <time>2021-11-20T00:59:37.110Z</time>
      </trkpt>
      <trkpt lat="47.607934" lon="7.944298">
        <ele>788.550407</ele>
        <time>2021-11-20T00:59:40.282Z</time>
      </trkpt>
      <trkpt lat="47.608484" lon="7.944152">
        <ele>784.993388</ele>
        <time>2021-11-20T00:59:45.623Z</time>
      </trkpt>
      <trkpt lat="47.609294" lon="7.943637">
        <ele>779.383027</ele>
        <time>2021-11-20T00:59:53.581Z</time>
      </trkpt>
      <trkpt lat="47.609350" lon="7.943593">
        <ele>778.979594</ele>
        <time>2021-11-20T00:59:54.118Z</time>
      </trkpt>
      <trkpt lat="47.609814" lon="7.943160">
        <ele>773.749408</ele>
        <time>2021-11-20T00:59:58.810Z</time>
      </trkpt>
      <trkpt lat="47.610014" lon="7.942918">
        <ele>770.933488</ele>
        <time>2021-11-20T01:00:00.978Z</time>
      </trkpt>
      <trkpt lat="47.610065" lon="7.942722">
        <ele>769.388214</ele>
        <time>2021-11-20T01:00:02.171Z</time>
      </trkpt>
      <trkpt lat="47.610075" lon="7.942547">
        <ele>768.096435</ele>
        <time>2021-11-20T01:00:03.153Z</time>
      </trkpt>
      <trkpt lat="47.609950" lon="7.942351">
        <ele>766.111972</ele>
        <time>2021-11-20T01:00:04.745Z</time>
      </trkpt>
      <trkpt lat="47.609824" lon="7.942206">
        <ele>764.372106</ele>
        <time>2021-11-20T01:00:06.065Z</time>
      </trkpt>
      <trkpt lat="47.609660" lon="7.942072">
        <ele>762.329364</ele>
        <time>2021-11-20T01:00:07.689Z</time>
      </trkpt>
      <trkpt lat="47.609328" lon="7.941802">
        <ele>758.243815</ele>
        <time>2021-11-20T01:00:10.948Z</time>
      </trkpt>
      <trkpt lat="47.609231" lon="7.941717">
        <ele>757.538276</ele>
        <time>2021-11-20T01:00:11.899Z</time>
      </trkpt>
      <trkpt lat="47.608985" lon="7.941282">
        <ele>755.141133</ele>
        <time>2021-11-20T01:00:15.286Z</time>
      </trkpt>
      <trkpt lat="47.608976" lon="7.941180">
        <ele>754.706815</ele>
        <time>2021-11-20T01:00:15.872Z</time>
      </trkpt>
      <trkpt lat="47.608986" lon="7.941047">
        <ele>754.141805</ele>
        <time>2021-11-20T01:00:17.287Z</time>
      </trkpt>
      <trkpt lat="47.609156" lon="7.940638">
        <ele>752.113200</ele>
        <time>2021-11-20T01:00:20.161Z</time>
      </trkpt>
      <trkpt lat="47.609697" lon="7.940207">
        <ele>748.267494</ele>
        <time>2021-11-20T01:00:26.158Z</time>
      </trkpt>
      <trkpt lat="47.610427" lon="7.939448">
        <ele>743.467145</ele>
        <time>2021-11-20T01:00:35.193Z</time>
      </trkpt>
      <trkpt lat="47.610663" lon="7.939057">
        <ele>741.649419</ele>
        <time>2021-11-20T01:00:38.504Z</time>
      </trkpt>
      <trkpt lat="47.611668" lon="7.937036">
        <ele>732.282619</ele>
        <time>2021-11-20T01:00:53.791Z</time>
      </trkpt>
      <trkpt lat="47.612157" lon="7.936591">
        <ele>728.928794</ele>
        <time>2021-11-20T01:00:59.127Z</time>
      </trkpt>
      <trkpt lat="47.612760" lon="7.936192">
        <ele>725.489831</ele>
        <time>2021-11-20T01:01:05.538Z</time>
      </trkpt>
      <trkpt lat="47.613611" lon="7.935811">
        <ele>721.280308</ele>
        <time>2021-11-20T01:01:14.200Z</time>
      </trkpt>
      <trkpt lat="47.613843" lon="7.935758">
        <ele>720.168703</ele>
        <time>2021-11-20T01:01:16.452Z</time>
      </trkpt>
      <trkpt lat="47.614095" lon="7.935725">
        <ele>718.970698</ele>
        <time>2021-11-20T01:01:18.803Z</time>
      </trkpt>
      <trkpt lat="47.615166" lon="7.935713">
        <ele>710.790067</ele>
        <time>2021-11-20T01:01:28.421Z</time>
      </trkpt>
      <trkpt lat="47.615451" lon="7.935602">
        <ele>708.503777</ele>
        <time>2021-11-20T01:01:30.985Z</time>
      </trkpt>
      <trkpt lat="47.615705" lon="7.935396">
        <ele>706.257660</ele>
        <time>2021-11-20T01:01:33.490Z</time>
      </trkpt>
      <trkpt lat="47.616262" lon="7.934487">
        <ele>698.777463</ele>
        <time>2021-11-20T01:01:40.671Z</time>
      </trkpt>
      <trkpt lat="47.616672" lon="7.934051">
        <ele>694.033965</ele>
        <time>2021-11-20T01:01:45.044Z</time>
      </trkpt>
      <trkpt lat="47.616878" lon="7.934048">
        <ele>692.096826</ele>
        <time>2021-11-20T01:01:46.825Z</time>
      </trkpt>
      <trkpt lat="47.617409" lon="7.934240">
        <ele>686.892926</ele>
        <time>2021-11-20T01:01:51.576Z</time>
      </trkpt>
      <trkpt lat="47.617581" lon="7.934210">
        <ele>685.152585</ele>
        <time>2021-11-20T01:01:53.076Z</time>
      </trkpt>
      <trkpt lat="47.618969" lon="7.933585">
        <ele>670.576164</ele>
        <time>2021-11-20T01:02:05.567Z</time>
      </trkpt>
      <trkpt lat="47.619096" lon="7.933469">
        <ele>668.956743</ele>
        <time>2021-11-20T01:02:06.834Z</time>
      </trkpt>
      <trkpt lat="47.619255" lon="7.933163">
        <ele>665.916682</ele>
        <time>2021-11-20T01:02:09.066Z</time>
      </trkpt>
      <trkpt lat="47.619818" lon="7.932353">
        <ele>656.761879</ele>
        <time>2021-11-20T01:02:15.688Z</time>
      </trkpt>
      <trkpt lat="47.620106" lon="7.931975">
        <ele>652.273223</ele>
        <time>2021-11-20T01:02:18.922Z</time>
      </trkpt>
      <trkpt lat="47.620440" lon="7.931519">
        <ele>647.505799</ele>
        <time>2021-11-20T01:02:22.779Z</time>
      </trkpt>
      <trkpt lat="47.620523" lon="7.931338">
        <ele>646.276802</ele>
        <time>2021-11-20T01:02:24.020Z</time>
      </trkpt>
      <trkpt lat="47.620633" lon="7.930854">
        <ele>643.409316</ele>
        <time>2021-11-20T01:02:26.990Z</time>
      </trkpt>
      <trkpt lat="47.620770" lon="7.930392">
        <ele>640.575743</ele>
        <time>2021-11-20T01:02:29.960Z</time>
      </trkpt>
      <trkpt lat="47.621014" lon="7.929789">
        <ele>636.627342</ele>
        <time>2021-11-20T01:02:34.236Z</time>
      </trkpt>
      <trkpt lat="47.621153" lon="7.929574">
        <ele>634.954867</ele>
        <time>2021-11-20T01:02:36.083Z</time>
      </trkpt>
      <trkpt lat="47.621561" lon="7.929312">
        <ele>632.196286</ele>
        <time>2021-11-20T01:02:40.344Z</time>
      </trkpt>
      <trkpt lat="47.622199" lon="7.929159">
        <ele>628.771705</ele>
        <time>2021-11-20T01:02:46.619Z</time>
      </trkpt>
      <trkpt lat="47.622516" lon="7.929178">
        <ele>627.090582</ele>
        <time>2021-11-20T01:02:49.639Z</time>
      </trkpt>
      <trkpt lat="47.622878" lon="7.929322">
        <ele>625.104629</ele>
        <time>2021-11-20T01:02:53.135Z</time>
      </trkpt>
      <trkpt lat="47.622967" lon="7.929237">
        <ele>624.543765</ele>
        <time>2021-11-20T01:02:54.132Z</time>
      </trkpt>
      <trkpt lat="47.622989" lon="7.929175">
        <ele>624.275059</ele>
        <time>2021-11-20T01:02:54.620Z</time>
      </trkpt>
      <trkpt lat="47.622990" lon="7.929067">
        <ele>623.583402</ele>
        <time>2021-11-20T01:02:55.226Z</time>
      </trkpt>
      <trkpt lat="47.622913" lon="7.928884">
        <ele>622.201935</ele>
        <time>2021-11-20T01:02:56.569Z</time>
      </trkpt>
      <trkpt lat="47.621861" lon="7.928723">
        <ele>612.154020</ele>
        <time>2021-11-20T01:03:05.705Z</time>
      </trkpt>
      <trkpt lat="47.620569" lon="7.928919">
        <ele>599.375406</ele>
        <time>2021-11-20T01:03:16.752Z</time>
      </trkpt>
      <trkpt lat="47.619928" lon="7.929124">
        <ele>592.776107</ele>
        <time>2021-11-20T01:03:22.418Z</time>
      </trkpt>
      <trkpt lat="47.619604" lon="7.929315">
        <ele>589.267333</ele>
        <time>2021-11-20T01:03:25.457Z</time>
      </trkpt>
      <trkpt lat="47.619329" lon="7.929527">
        <ele>586.954671</ele>
        <time>2021-11-20T01:03:28.184Z</time>
      </trkpt>
      <trkpt lat="47.618921" lon="7.930073">
        <ele>582.922027</ele>
        <time>2021-11-20T01:03:33.078Z</time>
      </trkpt>
      <trkpt lat="47.618761" lon="7.930033">
        <ele>581.731199</ele>
        <time>2021-11-20T01:03:34.583Z</time>
      </trkpt>
      <trkpt lat="47.618733" lon="7.929945">
        <ele>581.249793</ele>
        <time>2021-11-20T01:03:35.173Z</time>
      </trkpt>
      <trkpt lat="47.618734" lon="7.929873">
        <ele>580.893529</ele>
        <time>2021-11-20T01:03:35.584Z</time>
      </trkpt>
      <trkpt lat="47.618861" lon="7.929607">
        <ele>579.280950</ele>
        <time>2021-11-20T01:03:37.655Z</time>
      </trkpt>
      <trkpt lat="47.619053" lon="7.929381">
        <ele>577.482164</ele>
        <time>2021-11-20T01:03:39.883Z</time>
      </trkpt>
      <trkpt lat="47.620384" lon="7.928242">
        <ele>564.400276</ele>
        <time>2021-11-20T01:03:53.557Z</time>
      </trkpt>
      <trkpt lat="47.620796" lon="7.927816">
        <ele>559.924443</ele>
        <time>2021-11-20T01:03:57.829Z</time>
      </trkpt>
      <trkpt lat="47.620873" lon="7.927631">
        <ele>558.095743</ele>
        <time>2021-11-20T01:03:59.069Z</time>
      </trkpt>
      <trkpt lat="47.620930" lon="7.927423">
        <ele>556.207289</ele>
        <time>2021-11-20T01:04:00.332Z</time>
      </trkpt>
      <trkpt lat="47.620993" lon="7.927078">
        <ele>553.201047</ele>
        <time>2021-11-20T01:04:02.367Z</time>
      </trkpt>
      <trkpt lat="47.621010" lon="7.926916">
        <ele>551.822125</ele>
        <time>2021-11-20T01:04:03.296Z</time>
      </trkpt>
      <trkpt lat="47.621008" lon="7.926716">
        <ele>550.139830</ele>
        <time>2021-11-20T01:04:04.433Z</time>
      </trkpt>
      <trkpt lat="47.621092" lon="7.926230">
        <ele>545.920061</ele>
        <time>2021-11-20T01:04:07.276Z</time>
      </trkpt>
      <trkpt lat="47.621290" lon="7.925709">
        <ele>540.889662</ele>
        <time>2021-11-20T01:04:10.661Z</time>
      </trkpt>
      <trkpt lat="47.621339" lon="7.925596">
        <ele>539.759587</ele>
        <time>2021-11-20T01:04:11.413Z</time>
      </trkpt>
      <trkpt lat="47.621723" lon="7.924936">
        <ele>533.113587</ele>
        <time>2021-11-20T01:04:16.353Z</time>
      </trkpt>
      <trkpt lat="47.623053" lon="7.924259">
        <ele>517.781370</ele>
        <time>2021-11-20T01:04:28.456Z</time>
      </trkpt>
      <trkpt lat="47.623206" lon="7.923969">
        <ele>514.973331</ele>
        <time>2021-11-20T01:04:30.621Z</time>
      </trkpt>
      <trkpt lat="47.623246" lon="7.923768">
        <ele>513.375351</ele>
        <time>2021-11-20T01:04:31.818Z</time>
      </trkpt>
      <trkpt lat="47.623227" lon="7.922954">
        <ele>507.165094</ele>
        <time>2021-11-20T01:04:36.487Z</time>
      </trkpt>
      <trkpt lat="47.623251" lon="7.922713">
        <ele>505.307583</ele>
        <time>2021-11-20T01:04:37.864Z</time>
      </trkpt>
      <trkpt lat="47.623298" lon="7.922501">
        <ele>503.605941</ele>
        <time>2021-11-20T01:04:39.147Z</time>
      </trkpt>
      <trkpt lat="47.623564" lon="7.921962">
        <ele>498.512336</ele>
        <time>2021-11-20T01:04:42.955Z</time>
      </trkpt>
      <trkpt lat="47.623626" lon="7.921633">
        <ele>495.995485</ele>
        <time>2021-11-20T01:04:44.915Z</time>
      </trkpt>
      <trkpt lat="47.623611" lon="7.921528">
        <ele>495.213337</ele>
        <time>2021-11-20T01:04:45.517Z</time>
      </trkpt>
      <trkpt lat="47.623588" lon="7.921368">
        <ele>494.021169</ele>
        <time>2021-11-20T01:04:46.451Z</time>
      </trkpt>
      <trkpt lat="47.623561" lon="7.920975">
        <ele>491.142478</ele>
        <time>2021-11-20T01:04:48.707Z</time>
      </trkpt>
      <trkpt lat="47.623430" lon="7.919875">
        <ele>483.002430</ele>
        <time>2021-11-20T01:04:55.173Z</time>
      </trkpt>
      <trkpt lat="47.623255" lon="7.919315">
        <ele>478.504314</ele>
        <time>2021-11-20T01:04:58.747Z</time>
      </trkpt>
      <trkpt lat="47.623010" lon="7.918947">
        <ele>475.119808</ele>
        <time>2021-11-20T01:05:01.730Z</time>
      </trkpt>
      <trkpt lat="47.622446" lon="7.918652">
        <ele>469.324617</ele>
        <time>2021-11-20T01:05:06.951Z</time>
      </trkpt>
      <trkpt lat="47.622366" lon="7.918470">
        <ele>467.905415</ele>
        <time>2021-11-20T01:05:08.205Z</time>
      </trkpt>
      <trkpt lat="47.622381" lon="7.918164">
        <ele>465.901468</ele>
        <time>2021-11-20T01:05:10.015Z</time>
      </trkpt>
      <trkpt lat="47.622424" lon="7.918069">
        <ele>465.154034</ele>
        <time>2021-11-20T01:05:10.672Z</time>
      </trkpt>
      <trkpt lat="47.622587" lon="7.917873">
        <ele>463.120830</ele>
        <time>2021-11-20T01:05:12.486Z</time>
      </trkpt>
      <trkpt lat="47.622656" lon="7.917625">
        <ele>461.368421</ele>
        <time>2021-11-20T01:05:14.049Z</time>
      </trkpt>
      <trkpt lat="47.622677" lon="7.917170">
        <ele>458.292622</ele>
        <time>2021-11-20T01:05:16.704Z</time>
      </trkpt>
      <trkpt lat="47.622647" lon="7.916647">
        <ele>454.737686</ele>
        <time>2021-11-20T01:05:19.740Z</time>
      </trkpt>
      <trkpt lat="47.622576" lon="7.916379">
        <ele>452.787418</ele>
        <time>2021-11-20T01:05:21.396Z</time>
      </trkpt>
      <trkpt lat="47.622393" lon="7.916077">
        <ele>450.036978</ele>
        <time>2021-11-20T01:05:23.731Z</time>
      </trkpt>
      <trkpt lat="47.621809" lon="7.915582">
        <ele>443.278579</ele>
        <time>2021-11-20T01:05:29.545Z</time>
      </trkpt>
      <trkpt lat="47.621530" lon="7.915222">
        <ele>439.585605</ele>
        <time>2021-11-20T01:05:32.751Z</time>
      </trkpt>
      <trkpt lat="47.621037" lon="7.914355">
        <ele>431.954100</ele>
        <time>2021-11-20T01:05:39.380Z</time>
      </trkpt>
      <trkpt lat="47.620869" lon="7.913635">
        <ele>426.827973</ele>
        <time>2021-11-20T01:05:43.743Z</time>
      </trkpt>
      <trkpt lat="47.620841" lon="7.913331">
        <ele>424.782204</ele>
        <time>2021-11-20T01:05:45.522Z</time>
      </trkpt>
      <trkpt lat="47.620822" lon="7.912670">
        <ele>420.696219</ele>
        <time>2021-11-20T01:05:49.351Z</time>
      </trkpt>
      <trkpt lat="47.620858" lon="7.912289">
        <ele>418.320191</ele>
        <time>2021-11-20T01:05:51.610Z</time>
      </trkpt>
      <trkpt lat="47.620910" lon="7.911951">
        <ele>416.179052</ele>
        <time>2021-11-20T01:05:53.625Z</time>
      </trkpt>
      <trkpt lat="47.620953" lon="7.911653">
        <ele>414.296935</ele>
        <time>2021-11-20T01:05:55.415Z</time>
      </trkpt>
      <trkpt lat="47.620946" lon="7.911321">
        <ele>412.245535</ele>
        <time>2021-11-20T01:05:57.386Z</time>
      </trkpt>
      <trkpt lat="47.620846" lon="7.911023">
        <ele>410.189648</ele>
        <time>2021-11-20T01:05:59.357Z</time>
      </trkpt>
      <trkpt lat="47.620625" lon="7.910808">
        <ele>408.029290</ele>
        <time>2021-11-20T01:06:01.687Z</time>
      </trkpt>
      <trkpt lat="47.620181" lon="7.910694">
        <ele>405.355427</ele>
        <time>2021-11-20T01:06:05.694Z</time>
      </trkpt>
      <trkpt lat="47.620162" lon="7.910587">
        <ele>404.912850</ele>
        <time>2021-11-20T01:06:06.362Z</time>
      </trkpt>
      <trkpt lat="47.620245" lon="7.910440">
        <ele>404.145855</ele>
        <time>2021-11-20T01:06:07.534Z</time>
      </trkpt>
      <trkpt lat="47.620712" lon="7.910483">
        <ele>401.369343</ele>
        <time>2021-11-20T01:06:11.988Z</time>
      </trkpt>
      <trkpt lat="47.621308" lon="7.910162">
        <ele>397.648394</ele>
        <time>2021-11-20T01:06:18.042Z</time>
      </trkpt>
      <trkpt lat="47.621461" lon="7.910146">
        <ele>396.903256</ele>
        <time>2021-11-20T01:06:19.454Z</time>
      </trkpt>
      <trkpt lat="47.622368" lon="7.910396">
        <ele>392.421531</ele>
        <time>2021-11-20T01:06:28.152Z</time>
      </trkpt>
      <trkpt lat="47.622666" lon="7.910254">
        <ele>390.900971</ele>
        <time>2021-11-20T01:06:31.167Z</time>
      </trkpt>
      <trkpt lat="47.622755" lon="7.910176">
        <ele>390.398797</ele>
        <time>2021-11-20T01:06:32.118Z</time>
      </trkpt>
      <trkpt lat="47.622850" lon="7.910055">
        <ele>389.790535</ele>
        <time>2021-11-20T01:06:33.331Z</time>
      </trkpt>
      <trkpt lat="47.623414" lon="7.909173">
        <ele>385.529734</ele>
        <time>2021-11-20T01:06:41.175Z</time>
      </trkpt>
      <trkpt lat="47.623851" lon="7.909030">
        <ele>383.170713</ele>
        <time>2021-11-20T01:06:45.347Z</time>
      </trkpt>
      <trkpt lat="47.624367" lon="7.909092">
        <ele>380.441701</ele>
        <time>2021-11-20T01:06:50.266Z</time>
      </trkpt>
      <trkpt lat="47.624823" lon="7.909229">
        <ele>376.968925</ele>
        <time>2021-11-20T01:06:54.478Z</time>
      </trkpt>
      <trkpt lat="47.624962" lon="7.909272">
        <ele>375.751180</ele>
        <time>2021-11-20T01:06:55.708Z</time>
      </trkpt>
      <trkpt lat="47.625366" lon="7.909623">
        <ele>371.736031</ele>
        <time>2021-11-20T01:06:59.827Z</time>
      </trkpt>
      <trkpt lat="47.625586" lon="7.909712">
        <ele>369.780363</ele>
        <time>2021-11-20T01:07:01.814Z</time>
      </trkpt>
      <trkpt lat="47.625630" lon="7.909700">
        <ele>369.396683</ele>
        <time>2021-11-20T01:07:02.187Z</time>
      </trkpt>
      <trkpt lat="47.625660" lon="7.909693">
        <ele>369.136231</ele>
        <time>2021-11-20T01:07:02.443Z</time>
      </trkpt>
      <trkpt lat="47.625738" lon="7.909657">
        <ele>368.435660</ele>
        <time>2021-11-20T01:07:03.189Z</time>
      </trkpt>
      <trkpt lat="47.625820" lon="7.909530">
        <ele>367.419071</ele>
        <time>2021-11-20T01:07:04.225Z</time>
      </trkpt>
      <trkpt lat="47.625875" lon="7.909372">
        <ele>366.391180</ele>
        <time>2021-11-20T01:07:05.231Z</time>
      </trkpt>
      <trkpt lat="47.626074" lon="7.908682">
        <ele>362.294543</ele>
        <time>2021-11-20T01:07:09.600Z</time>
      </trkpt>
      <trkpt lat="47.626373" lon="7.908242">
        <ele>359.090944</ele>
        <time>2021-11-20T01:07:13.232Z</time>
      </trkpt>
      <trkpt lat="47.626436" lon="7.907974">
        <ele>357.635700</ele>
        <time>2021-11-20T01:07:14.859Z</time>
      </trkpt>
      <trkpt lat="47.626446" lon="7.907798">
        <ele>356.730132</ele>
        <time>2021-11-20T01:07:15.941Z</time>
      </trkpt>
      <trkpt lat="47.626442" lon="7.907543">
        <ele>355.422371</ele>
        <time>2021-11-20T01:07:17.430Z</time>
      </trkpt>
      <trkpt lat="47.626436" lon="7.907187">
        <ele>353.596558</ele>
        <time>2021-11-20T01:07:19.660Z</time>
      </trkpt>
      <trkpt lat="47.626436" lon="7.907061">
        <ele>352.950545</ele>
        <time>2021-11-20T01:07:20.484Z</time>
      </trkpt>
      <trkpt lat="47.626436" lon="7.906623">
        <ele>350.704882</ele>
        <time>2021-11-20T01:07:23.350Z</time>
      </trkpt>
      <trkpt lat="47.626439" lon="7.906299">
        <ele>350.381700</ele>
        <time>2021-11-20T01:07:25.503Z</time>
      </trkpt>
      <trkpt lat="47.626443" lon="7.905945">
        <ele>350.225536</ele>
        <time>2021-11-20T01:07:28.055Z</time>
      </trkpt>
      <trkpt lat="47.626460" lon="7.905124">
        <ele>349.863239</ele>
        <time>2021-11-20T01:07:34.961Z</time>
      </trkpt>
      <trkpt lat="47.626440" lon="7.905007">
        <ele>349.809998</ele>
        <time>2021-11-20T01:07:36.758Z</time>
      </trkpt>
      <trkpt lat="47.626399" lon="7.904961">
        <ele>349.776358</ele>
        <time>2021-11-20T01:07:37.558Z</time>
      </trkpt>
      <trkpt lat="47.626221" lon="7.904920">
        <ele>349.658469</ele>
        <time>2021-11-20T01:07:40.590Z</time>
      </trkpt>
      <trkpt lat="47.626086" lon="7.904879">
        <ele>349.568286</ele>
        <time>2021-11-20T01:07:43.778Z</time>
      </trkpt>
      <trkpt lat="47.625742" lon="7.904774">
        <ele>349.338438</ele>
        <time>2021-11-20T01:07:51.402Z</time>
      </trkpt>
      <trkpt lat="47.625516" lon="7.904701">
        <ele>349.469771</ele>
        <time>2021-11-20T01:07:56.034Z</time>
      </trkpt>
      <trkpt lat="47.625088" lon="7.904563">
        <ele>349.748020</ele>
        <time>2021-11-20T01:08:05.357Z</time>
      </trkpt>
      <trkpt lat="47.624956" lon="7.904522">
        <ele>349.833695</ele>
        <time>2021-11-20T01:08:08.113Z</time>
      </trkpt>
      <trkpt lat="47.624761" lon="7.904481">
        <ele>349.958814</ele>
        <time>2021-11-20T01:08:11.284Z</time>
      </trkpt>
      <trkpt lat="47.624565" lon="7.904455">
        <ele>350.083826</ele>
        <time>2021-11-20T01:08:14.343Z</time>
      </trkpt>
      <trkpt lat="47.624472" lon="7.904367">
        <ele>350.153901</ele>
        <time>2021-11-20T01:08:16.030Z</time>
      </trkpt>
      <trkpt lat="47.624451" lon="7.904332">
        <ele>350.173965</ele>
        <time>2021-11-20T01:08:16.550Z</time>
      </trkpt>
      <trkpt lat="47.624399" lon="7.904386">
        <ele>350.214287</ele>
        <time>2021-11-20T01:08:17.468Z</time>
      </trkpt>
      <trkpt lat="47.624263" lon="7.904484">
        <ele>350.310337</ele>
        <time>2021-11-20T01:08:19.690Z</time>
      </trkpt>
      <trkpt lat="47.624120" lon="7.904530">
        <ele>350.403293</ele>
        <time>2021-11-20T01:08:21.862Z</time>
      </trkpt>
      <trkpt lat="47.623650" lon="7.904642">
        <ele>350.105314</ele>
        <time>2021-11-20T01:08:28.140Z</time>
      </trkpt>
      <trkpt lat="47.622648" lon="7.904863">
        <ele>349.087230</ele>
        <time>2021-11-20T01:08:40.550Z</time>
      </trkpt>
      <trkpt lat="47.622424" lon="7.904919">
        <ele>348.858934</ele>
        <time>2021-11-20T01:08:43.157Z</time>
      </trkpt>
      <trkpt lat="47.622235" lon="7.904957">
        <ele>348.667252</ele>
        <time>2021-11-20T01:08:45.320Z</time>
      </trkpt>
      <trkpt lat="47.621248" lon="7.905159">
        <ele>346.681144</ele>
        <time>2021-11-20T01:08:56.430Z</time>
      </trkpt>
      <trkpt lat="47.621107" lon="7.905191">
        <ele>346.396563</ele>
        <time>2021-11-20T01:08:57.997Z</time>
      </trkpt>
      <trkpt lat="47.620699" lon="7.905223">
        <ele>345.581426</ele>
        <time>2021-11-20T01:09:02.425Z</time>
      </trkpt>
      <trkpt lat="47.620426" lon="7.905244">
        <ele>345.013958</ele>
        <time>2021-11-20T01:09:05.389Z</time>
      </trkpt>
      <trkpt lat="47.619447" lon="7.905300">
        <ele>342.007426</ele>
        <time>2021-11-20T01:09:15.518Z</time>
      </trkpt>
      <trkpt lat="47.619299" lon="7.905308">
        <ele>341.552951</ele>
        <time>2021-11-20T01:09:16.920Z</time>
      </trkpt>
      <trkpt lat="47.619155" lon="7.905319">
        <ele>341.110467</ele>
        <time>2021-11-20T01:09:18.500Z</time>
      </trkpt>
      <trkpt lat="47.618976" lon="7.905535">
        <ele>340.402396</ele>
        <time>2021-11-20T01:09:20.746Z</time>
      </trkpt>
      <trkpt lat="47.618920" lon="7.906208">
        <ele>338.968172</ele>
        <time>2021-11-20T01:09:25.440Z</time>
      </trkpt>
      <trkpt lat="47.618888" lon="7.906392">
        <ele>338.552868</ele>
        <time>2021-11-20T01:09:26.699Z</time>
      </trkpt>
      <trkpt lat="47.618867" lon="7.906514">
        <ele>338.277679</ele>
        <time>2021-11-20T01:09:27.484Z</time>
      </trkpt>
      <trkpt lat="47.618719" lon="7.906838">
        <ele>337.422292</ele>
        <time>2021-11-20T01:09:30.197Z</time>
      </trkpt>
      <trkpt lat="47.618579" lon="7.906988">
        <ele>336.862363</ele>
        <time>2021-11-20T01:09:31.855Z</time>
      </trkpt>
      <trkpt lat="47.618470" lon="7.907083">
        <ele>336.452474</ele>
        <time>2021-11-20T01:09:33.155Z</time>
      </trkpt>
      <trkpt lat="47.617957" lon="7.907285">
        <ele>334.731570</ele>
        <time>2021-11-20T01:09:38.463Z</time>
      </trkpt>
      <trkpt lat="47.617238" lon="7.908130">
        <ele>332.671545</ele>
        <time>2021-11-20T01:09:48.283Z</time>
      </trkpt>
      <trkpt lat="47.617086" lon="7.908230">
        <ele>332.382801</ele>
        <time>2021-11-20T01:09:50.172Z</time>
      </trkpt>
      <trkpt lat="47.616832" lon="7.908284">
        <ele>331.937216</ele>
        <time>2021-11-20T01:09:53.050Z</time>
      </trkpt>
      <trkpt lat="47.616604" lon="7.908203">
        <ele>331.530093</ele>
        <time>2021-11-20T01:09:55.676Z</time>
      </trkpt>
      <trkpt lat="47.616124" lon="7.907729">
        <ele>330.613254</ele>
        <time>2021-11-20T01:10:02.448Z</time>
      </trkpt>
      <trkpt lat="47.616009" lon="7.907686">
        <ele>330.643936</ele>
        <time>2021-11-20T01:10:04.021Z</time>
      </trkpt>
      <trkpt lat="47.615946" lon="7.907692">
        <ele>330.660268</ele>
        <time>2021-11-20T01:10:04.838Z</time>
      </trkpt>
      <trkpt lat="47.615821" lon="7.907747">
        <ele>330.693999</ele>
        <time>2021-11-20T01:10:06.826Z</time>
      </trkpt>
      <trkpt lat="47.615669" lon="7.907870">
        <ele>330.738792</ele>
        <time>2021-11-20T01:10:09.478Z</time>
      </trkpt>
      <trkpt lat="47.615460" lon="7.908111">
        <ele>330.807276</ele>
        <time>2021-11-20T01:10:13.823Z</time>
      </trkpt>
      <trkpt lat="47.615374" lon="7.908222">
        <ele>330.836768</ele>
        <time>2021-11-20T01:10:15.736Z</time>
      </trkpt>
      <trkpt lat="47.615246" lon="7.908385">
        <ele>330.880410</ele>
        <time>2021-11-20T01:10:18.818Z</time>
      </trkpt>
      <trkpt lat="47.615085" lon="7.908567">
        <ele>330.932777</ele>
        <time>2021-11-20T01:10:22.337Z</time>
      </trkpt>
      <trkpt lat="47.614881" lon="7.908756">
        <ele>330.995001</ele>
        <time>2021-11-20T01:10:26.404Z</time>
      </trkpt>
      <trkpt lat="47.614876" lon="7.908760">
        <ele>330.996470</ele>
        <time>2021-11-20T01:10:26.655Z</time>
      </trkpt>
      <trkpt lat="47.614784" lon="7.908839">
        <ele>331.023972</ele>
        <time>2021-11-20T01:10:28.283Z</time>
      </trkpt>
      <trkpt lat="47.614784" lon="7.908839">
        <ele>331.023972</ele>
        <time>2021-11-20T01:10:28.332Z</time>
      </trkpt>
      <trkpt lat="47.614412" lon="7.909095">
        <ele>331.363139</ele>
        <time>2021-11-20T01:10:35.574Z</time>
      </trkpt>
      <trkpt lat="47.614063" lon="7.909285">
        <ele>331.818331</ele>
        <time>2021-11-20T01:10:42.645Z</time>
      </trkpt>
      <trkpt lat="47.613934" lon="7.909339">
        <ele>331.982450</ele>
        <time>2021-11-20T01:10:45.129Z</time>
      </trkpt>
      <trkpt lat="47.613360" lon="7.909602">
        <ele>332.718031</ele>
        <time>2021-11-20T01:10:58.064Z</time>
      </trkpt>
      <trkpt lat="47.613280" lon="7.909624">
        <ele>332.817654</ele>
        <time>2021-11-20T01:10:59.752Z</time>
      </trkpt>
      <trkpt lat="47.612897" lon="7.909812">
        <ele>333.293474</ele>
        <time>2021-11-20T01:11:08.309Z</time>
      </trkpt>
      <trkpt lat="47.612216" lon="7.910134">
        <ele>333.787841</ele>
        <time>2021-11-20T01:11:21.319Z</time>
      </trkpt>
      <trkpt lat="47.612131" lon="7.910214">
        <ele>333.857467</ele>
        <time>2021-11-20T01:11:23.211Z</time>
      </trkpt>
      <trkpt lat="47.612094" lon="7.910255">
        <ele>333.889410</ele>
        <time>2021-11-20T01:11:23.982Z</time>
      </trkpt>
      <trkpt lat="47.612082" lon="7.910269">
        <ele>333.899970</ele>
        <time>2021-11-20T01:11:24.291Z</time>
      </trkpt>
      <trkpt lat="47.612020" lon="7.910364">
        <ele>333.961622</ele>
        <time>2021-11-20T01:11:25.849Z</time>
      </trkpt>
      <trkpt lat="47.611986" lon="7.910466">
        <ele>334.014679</ele>
        <time>2021-11-20T01:11:27.120Z</time>
      </trkpt>
      <trkpt lat="47.611981" lon="7.910534">
        <ele>334.046574</ele>
        <time>2021-11-20T01:11:27.746Z</time>
      </trkpt>
      <trkpt lat="47.611988" lon="7.910610">
        <ele>334.082340</ele>
        <time>2021-11-20T01:11:28.705Z</time>
      </trkpt>
      <trkpt lat="47.611994" lon="7.910676">
        <ele>334.113393</ele>
        <time>2021-11-20T01:11:29.620Z</time>
      </trkpt>
      <trkpt lat="47.612005" lon="7.910790">
        <ele>334.167090</ele>
        <time>2021-11-20T01:11:30.896Z</time>
      </trkpt>
      <trkpt lat="47.612029" lon="7.910940">
        <ele>334.238975</ele>
        <time>2021-11-20T01:11:32.784Z</time>
      </trkpt>
      <trkpt lat="47.611260" lon="7.911383">
        <ele>334.240653</ele>
        <time>2021-11-20T01:11:45.932Z</time>
      </trkpt>
      <trkpt lat="47.610416" lon="7.911983">
        <ele>333.642129</ele>
        <time>2021-11-20T01:11:57.845Z</time>
      </trkpt>
      <trkpt lat="47.610054" lon="7.912196">
        <ele>333.393081</ele>
        <time>2021-11-20T01:12:02.318Z</time>
      </trkpt>
      <trkpt lat="47.609914" lon="7.912278">
        <ele>333.212411</ele>
        <time>2021-11-20T01:12:04.046Z</time>
      </trkpt>
      <trkpt lat="47.608679" lon="7.912703">
        <ele>331.378725</ele>
        <time>2021-11-20T01:12:18.773Z</time>
      </trkpt>
      <trkpt lat="47.607663" lon="7.913198">
        <ele>329.955413</ele>
        <time>2021-11-20T01:12:31.098Z</time>
      </trkpt>
      <trkpt lat="47.607292" lon="7.913435">
        <ele>329.448681</ele>
        <time>2021-11-20T01:12:35.796Z</time>
      </trkpt>
      <trkpt lat="47.606938" lon="7.913697">
        <ele>328.952388</ele>
        <time>2021-11-20T01:12:40.570Z</time>
      </trkpt>
      <trkpt lat="47.606706" lon="7.913869">
        <ele>328.627022</ele>
        <time>2021-11-20T01:12:43.758Z</time>
      </trkpt>
      <trkpt lat="47.606558" lon="7.913988">
        <ele>328.403764</ele>
        <time>2021-11-20T01:12:45.849Z</time>
      </trkpt>
      <trkpt lat="47.606450" lon="7.914067">
        <ele>328.232463</ele>
        <time>2021-11-20T01:12:47.349Z</time>
      </trkpt>
      <trkpt lat="47.606200" lon="7.914255">
        <ele>327.833733</ele>
        <time>2021-11-20T01:12:50.763Z</time>
      </trkpt>
      <trkpt lat="47.605929" lon="7.914457">
        <ele>327.402284</ele>
        <time>2021-11-20T01:12:54.446Z</time>
      </trkpt>
      <trkpt lat="47.605648" lon="7.914613">
        <ele>326.975469</ele>
        <time>2021-11-20T01:12:58.009Z</time>
      </trkpt>
      <trkpt lat="47.605408" lon="7.914750">
        <ele>326.609650</ele>
        <time>2021-11-20T01:13:00.961Z</time>
      </trkpt>
      <trkpt lat="47.605105" lon="7.914869">
        <ele>326.163769</ele>
        <time>2021-11-20T01:13:04.531Z</time>
      </trkpt>
      <trkpt lat="47.604722" lon="7.914915">
        <ele>325.079964</ele>
        <time>2021-11-20T01:13:08.703Z</time>
      </trkpt>
      <trkpt lat="47.604393" lon="7.914885">
        <ele>323.848164</ele>
        <time>2021-11-20T01:13:12.121Z</time>
      </trkpt>
      <trkpt lat="47.604062" lon="7.914772">
        <ele>322.578864</ele>
        <time>2021-11-20T01:13:15.510Z</time>
      </trkpt>
      <trkpt lat="47.603884" lon="7.914671">
        <ele>321.866656</ele>
        <time>2021-11-20T01:13:17.298Z</time>
      </trkpt>
      <trkpt lat="47.603615" lon="7.914449">
        <ele>320.716246</ele>
        <time>2021-11-20T01:13:20.246Z</time>
      </trkpt>
      <trkpt lat="47.603373" lon="7.914188">
        <ele>319.598050</ele>
        <time>2021-11-20T01:13:23.090Z</time>
      </trkpt>
      <trkpt lat="47.603038" lon="7.913754">
        <ele>317.746029</ele>
        <time>2021-11-20T01:13:27.281Z</time>
      </trkpt>
      <trkpt lat="47.602861" lon="7.913538">
        <ele>316.763439</ele>
        <time>2021-11-20T01:13:29.486Z</time>
      </trkpt>
      <trkpt lat="47.602742" lon="7.913448">
        <ele>316.190819</ele>
        <time>2021-11-20T01:13:30.722Z</time>
      </trkpt>
      <trkpt lat="47.602118" lon="7.913280">
        <ele>313.472181</ele>
        <time>2021-11-20T01:13:36.777Z</time>
      </trkpt>
      <trkpt lat="47.600086" lon="7.913316">
        <ele>306.970876</ele>
        <time>2021-11-20T01:13:57.590Z</time>
      </trkpt>
      <trkpt lat="47.599361" lon="7.913211">
        <ele>305.344493</ele>
        <time>2021-11-20T01:14:05.439Z</time>
      </trkpt>
      <trkpt lat="47.598263" lon="7.912768">
        <ele>303.130921</ele>
        <time>2021-11-20T01:14:18.075Z</time>
      </trkpt>
      <trkpt lat="47.597324" lon="7.912182">
        <ele>301.686840</ele>
        <time>2021-11-20T01:14:29.883Z</time>
      </trkpt>
      <trkpt lat="47.596928" lon="7.912047">
        <ele>301.149427</ele>
        <time>2021-11-20T01:14:34.708Z</time>
      </trkpt>
      <trkpt lat="47.596657" lon="7.912027">
        <ele>300.790558</ele>
        <time>2021-11-20T01:14:37.979Z</time>
      </trkpt>
      <trkpt lat="47.596383" lon="7.912050">
        <ele>300.438951</ele>
        <time>2021-11-20T01:14:41.308Z</time>
      </trkpt>
      <trkpt lat="47.595919" lon="7.912182">
        <ele>300.130363</ele>
        <time>2021-11-20T01:14:47.127Z</time>
      </trkpt>
      <trkpt lat="47.595049" lon="7.912419">
        <ele>299.552614</ele>
        <time>2021-11-20T01:14:58.414Z</time>
      </trkpt>
      <trkpt lat="47.594246" lon="7.912426">
        <ele>299.425085</ele>
        <time>2021-11-20T01:15:09.537Z</time>
      </trkpt>
      <trkpt lat="47.593192" lon="7.912179">
        <ele>299.847630</ele>
        <time>2021-11-20T01:15:27.423Z</time>
      </trkpt>
      <trkpt lat="47.592198" lon="7.912030">
        <ele>300.099672</ele>
        <time>2021-11-20T01:15:46.341Z</time>
      </trkpt>
      <trkpt lat="47.591524" lon="7.911777">
        <ele>300.220434</ele>
        <time>2021-11-20T01:15:57.638Z</time>
      </trkpt>
      <trkpt lat="47.591361" lon="7.911643">
        <ele>300.252806</ele>
        <time>2021-11-20T01:16:01.000Z</time>
      </trkpt>
      <trkpt lat="47.591227" lon="7.911486">
        <ele>300.282470</ele>
        <time>2021-11-20T01:16:03.010Z</time>
      </trkpt>
      <trkpt lat="47.590486" lon="7.910371">
        <ele>298.364540</ele>
        <time>2021-11-20T01:16:14.735Z</time>
      </trkpt>
      <trkpt lat="47.590199" lon="7.910097">
        <ele>297.673054</ele>
        <time>2021-11-20T01:16:18.317Z</time>
      </trkpt>
      <trkpt lat="47.589984" lon="7.909953">
        <ele>297.195143</ele>
        <time>2021-11-20T01:16:20.807Z</time>
      </trkpt>
      <trkpt lat="47.589984" lon="7.909953">
        <ele>297.195143</ele>
        <time>2021-11-20T01:16:20.818Z</time>
      </trkpt>
      <trkpt lat="47.589846" lon="7.909880">
        <ele>296.898330</ele>
        <time>2021-11-20T01:16:22.410Z</time>
      </trkpt>
      <trkpt lat="47.589453" lon="7.909790">
        <ele>296.187855</ele>
        <time>2021-11-20T01:16:26.633Z</time>
      </trkpt>
      <trkpt lat="47.589186" lon="7.909798">
        <ele>295.738153</ele>
        <time>2021-11-20T01:16:29.471Z</time>
      </trkpt>
      <trkpt lat="47.588985" lon="7.909827">
        <ele>295.398085</ele>
        <time>2021-11-20T01:16:31.757Z</time>
      </trkpt>
      <trkpt lat="47.587926" lon="7.910125">
        <ele>293.604729</ele>
        <time>2021-11-20T01:16:44.264Z</time>
      </trkpt>
      <trkpt lat="47.587479" lon="7.910228">
        <ele>293.215273</ele>
        <time>2021-11-20T01:16:50.322Z</time>
      </trkpt>
      <trkpt lat="47.587167" lon="7.910236">
        <ele>292.946622</ele>
        <time>2021-11-20T01:16:54.436Z</time>
      </trkpt>
      <trkpt lat="47.586813" lon="7.910134">
        <ele>292.636151</ele>
        <time>2021-11-20T01:16:58.869Z</time>
      </trkpt>
      <trkpt lat="47.586540" lon="7.909941">
        <ele>292.375765</ele>
        <time>2021-11-20T01:17:02.556Z</time>
      </trkpt>
      <trkpt lat="47.586265" lon="7.909589">
        <ele>292.073146</ele>
        <time>2021-11-20T01:17:06.935Z</time>
      </trkpt>
      <trkpt lat="47.586062" lon="7.909215">
        <ele>291.971452</ele>
        <time>2021-11-20T01:17:11.013Z</time>
      </trkpt>
      <trkpt lat="47.585956" lon="7.908983">
        <ele>291.912091</ele>
        <time>2021-11-20T01:17:13.457Z</time>
      </trkpt>
      <trkpt lat="47.585899" lon="7.908777">
        <ele>291.864923</ele>
        <time>2021-11-20T01:17:15.511Z</time>
      </trkpt>
      <trkpt lat="47.585750" lon="7.908439">
        <ele>291.779386</ele>
        <time>2021-11-20T01:17:19.115Z</time>
      </trkpt>
      <trkpt lat="47.585760" lon="7.908367">
        <ele>291.763813</ele>
        <time>2021-11-20T01:17:19.830Z</time>
      </trkpt>
      <trkpt lat="47.585751" lon="7.908295">
        <ele>291.748301</ele>
        <time>2021-11-20T01:17:20.608Z</time>
      </trkpt>
      <trkpt lat="47.585761" lon="7.908160">
        <ele>291.719531</ele>
        <time>2021-11-20T01:17:22.392Z</time>
      </trkpt>
      <trkpt lat="47.585759" lon="7.908093">
        <ele>291.705324</ele>
        <time>2021-11-20T01:17:23.186Z</time>
      </trkpt>
      <trkpt lat="47.585745" lon="7.907994">
        <ele>291.683896</ele>
        <time>2021-11-20T01:17:24.497Z</time>
      </trkpt>
      <trkpt lat="47.585709" lon="7.907887">
        <ele>291.658566</ele>
        <time>2021-11-20T01:17:26.041Z</time>
      </trkpt>
      <trkpt lat="47.585496" lon="7.906982">
        <ele>291.718613</ele>
        <time>2021-11-20T01:17:36.183Z</time>
      </trkpt>
      <trkpt lat="47.585477" lon="7.906769">
        <ele>291.877578</ele>
        <time>2021-11-20T01:17:38.728Z</time>
      </trkpt>
      <trkpt lat="47.585522" lon="7.905992">
        <ele>292.454574</ele>
        <time>2021-11-20T01:17:48.912Z</time>
      </trkpt>
      <trkpt lat="47.585585" lon="7.905551">
        <ele>292.788096</ele>
        <time>2021-11-20T01:17:55.242Z</time>
      </trkpt>
      <trkpt lat="47.585693" lon="7.905272">
        <ele>293.026099</ele>
        <time>2021-11-20T01:17:59.843Z</time>
      </trkpt>
      <trkpt lat="47.585762" lon="7.905099">
        <ele>293.174801</ele>
        <time>2021-11-20T01:18:02.671Z</time>
      </trkpt>
      <trkpt lat="47.585958" lon="7.904606">
        <ele>293.598281</ele>
        <time>2021-11-20T01:18:10.633Z</time>
      </trkpt>
      <trkpt lat="47.586407" lon="7.903407">
        <ele>294.613637</ele>
        <time>2021-11-20T01:18:28.567Z</time>
      </trkpt>
      <trkpt lat="47.586847" lon="7.902221">
        <ele>295.572541</ele>
        <time>2021-11-20T01:18:45.572Z</time>
      </trkpt>
      <trkpt lat="47.587029" lon="7.901746">
        <ele>295.863679</ele>
        <time>2021-11-20T01:18:52.185Z</time>
      </trkpt>
      <trkpt lat="47.587506" lon="7.900489">
        <ele>296.632318</ele>
        <time>2021-11-20T01:19:09.217Z</time>
      </trkpt>
      <trkpt lat="47.587961" lon="7.899254">
        <ele>297.488039</ele>
        <time>2021-11-20T01:19:26.658Z</time>
      </trkpt>
      <trkpt lat="47.588436" lon="7.898021">
        <ele>298.404956</ele>
        <time>2021-11-20T01:19:44.726Z</time>
      </trkpt>
      <trkpt lat="47.588506" lon="7.897839">
        <ele>298.540245</ele>
        <time>2021-11-20T01:19:47.198Z</time>
      </trkpt>
      <trkpt lat="47.588808" lon="7.897009">
        <ele>299.135363</ele>
        <time>2021-11-20T01:19:59.483Z</time>
      </trkpt>
      <trkpt lat="47.589118" lon="7.896174">
        <ele>299.735173</ele>
        <time>2021-11-20T01:20:11.879Z</time>
      </trkpt>
      <trkpt lat="47.589590" lon="7.894990">
        <ele>300.311415</ele>
        <time>2021-11-20T01:20:28.301Z</time>
      </trkpt>
      <trkpt lat="47.589932" lon="7.894260">
        <ele>300.361577</ele>
        <time>2021-11-20T01:20:37.867Z</time>
      </trkpt>
      <trkpt lat="47.589960" lon="7.894201">
        <ele>300.365649</ele>
        <time>2021-11-20T01:20:38.559Z</time>
      </trkpt>
      <trkpt lat="47.590704" lon="7.892594">
        <ele>300.053332</ele>
        <time>2021-11-20T01:20:56.655Z</time>
      </trkpt>
      <trkpt lat="47.591003" lon="7.891941">
        <ele>299.652397</ele>
        <time>2021-11-20T01:21:03.329Z</time>
      </trkpt>
      <trkpt lat="47.591247" lon="7.891264">
        <ele>299.262471</ele>
        <time>2021-11-20T01:21:09.822Z</time>
      </trkpt>
      <trkpt lat="47.591381" lon="7.890797">
        <ele>298.957136</ele>
        <time>2021-11-20T01:21:13.853Z</time>
      </trkpt>
      <trkpt lat="47.591692" lon="7.889232">
        <ele>297.596070</ele>
        <time>2021-11-20T01:21:26.736Z</time>
      </trkpt>
      <trkpt lat="47.591728" lon="7.889070">
        <ele>297.453778</ele>
        <time>2021-11-20T01:21:28.041Z</time>
      </trkpt>
      <trkpt lat="47.591763" lon="7.888925">
        <ele>297.325301</ele>
        <time>2021-11-20T01:21:29.243Z</time>
      </trkpt>
      <trkpt lat="47.591866" lon="7.888529">
        <ele>296.971231</ele>
        <time>2021-11-20T01:21:32.657Z</time>
      </trkpt>
      <trkpt lat="47.592202" lon="7.887383">
        <ele>296.351583</ele>
        <time>2021-11-20T01:21:43.134Z</time>
      </trkpt>
      <trkpt lat="47.592409" lon="7.886663">
        <ele>295.997086</ele>
        <time>2021-11-20T01:21:50.419Z</time>
      </trkpt>
      <trkpt lat="47.592450" lon="7.886523">
        <ele>295.927957</ele>
        <time>2021-11-20T01:21:52.220Z</time>
      </trkpt>
      <trkpt lat="47.592651" lon="7.885826">
        <ele>295.557362</ele>
        <time>2021-11-20T01:21:58.838Z</time>
      </trkpt>
      <trkpt lat="47.592802" lon="7.885426">
        <ele>295.257319</ele>
        <time>2021-11-20T01:22:02.659Z</time>
      </trkpt>
      <trkpt lat="47.593166" lon="7.884637">
        <ele>294.631612</ele>
        <time>2021-11-20T01:22:10.508Z</time>
      </trkpt>
      <trkpt lat="47.593037" lon="7.884537">
        <ele>294.490333</ele>
        <time>2021-11-20T01:22:12.304Z</time>
      </trkpt>
      <trkpt lat="47.592977" lon="7.884463">
        <ele>294.414589</ele>
        <time>2021-11-20T01:22:13.178Z</time>
      </trkpt>
      <trkpt lat="47.592959" lon="7.884237">
        <ele>294.265635</ele>
        <time>2021-11-20T01:22:15.071Z</time>
      </trkpt>
      <trkpt lat="47.592917" lon="7.883969">
        <ele>294.085545</ele>
        <time>2021-11-20T01:22:17.325Z</time>
      </trkpt>
      <trkpt lat="47.592842" lon="7.883686">
        <ele>293.885298</ele>
        <time>2021-11-20T01:22:19.824Z</time>
      </trkpt>
      <trkpt lat="47.592487" lon="7.882778">
        <ele>293.136789</ele>
        <time>2021-11-20T01:22:28.347Z</time>
      </trkpt>
      <trkpt lat="47.592493" lon="7.882622">
        <ele>293.025354</ele>
        <time>2021-11-20T01:22:29.621Z</time>
      </trkpt>
      <trkpt lat="47.592531" lon="7.882114">
        <ele>292.660840</ele>
        <time>2021-11-20T01:22:33.675Z</time>
      </trkpt>
      <trkpt lat="47.592592" lon="7.881680">
        <ele>292.344673</ele>
        <time>2021-11-20T01:22:37.402Z</time>
      </trkpt>
      <trkpt lat="47.592680" lon="7.881162">
        <ele>291.945432</ele>
        <time>2021-11-20T01:22:41.964Z</time>
      </trkpt>
      <trkpt lat="47.592855" lon="7.880299">
        <ele>290.961356</ele>
        <time>2021-11-20T01:22:49.344Z</time>
      </trkpt>
      <trkpt lat="47.592558" lon="7.880084">
        <ele>290.426196</ele>
        <time>2021-11-20T01:22:53.100Z</time>
      </trkpt>
      <trkpt lat="47.592176" lon="7.879859">
        <ele>289.760638</ele>
        <time>2021-11-20T01:22:57.662Z</time>
      </trkpt>
      <trkpt lat="47.591747" lon="7.879696">
        <ele>289.031637</ele>
        <time>2021-11-20T01:23:02.428Z</time>
      </trkpt>
      <trkpt lat="47.591433" lon="7.879589">
        <ele>288.362581</ele>
        <time>2021-11-20T01:23:05.861Z</time>
      </trkpt>
      <trkpt lat="47.591348" lon="7.879568">
        <ele>288.183635</ele>
        <time>2021-11-20T01:23:06.776Z</time>
      </trkpt>
      <trkpt lat="47.591318" lon="7.879563">
        <ele>288.120944</ele>
        <time>2021-11-20T01:23:07.102Z</time>
      </trkpt>
      <trkpt lat="47.591234" lon="7.879550">
        <ele>287.945560</ele>
        <time>2021-11-20T01:23:07.986Z</time>
      </trkpt>
      <trkpt lat="47.591201" lon="7.878391">
        <ele>286.320930</ele>
        <time>2021-11-20T01:23:16.422Z</time>
      </trkpt>
      <trkpt lat="47.591165" lon="7.877839">
        <ele>285.544245</ele>
        <time>2021-11-20T01:23:20.526Z</time>
      </trkpt>
      <trkpt lat="47.591021" lon="7.877714">
        <ele>285.268114</ele>
        <time>2021-11-20T01:23:22.442Z</time>
      </trkpt>
      <trkpt lat="47.590631" lon="7.877615">
        <ele>284.824708</ele>
        <time>2021-11-20T01:23:27.137Z</time>
      </trkpt>
      <trkpt lat="47.590500" lon="7.877526">
        <ele>284.663229</ele>
        <time>2021-11-20T01:23:28.816Z</time>
      </trkpt>
      <trkpt lat="47.590479" lon="7.877434">
        <ele>284.589822</ele>
        <time>2021-11-20T01:23:29.589Z</time>
      </trkpt>
      <trkpt lat="47.590532" lon="7.877177">
        <ele>284.386708</ele>
        <time>2021-11-20T01:23:31.895Z</time>
      </trkpt>
      <trkpt lat="47.590592" lon="7.876946">
        <ele>284.199623</ele>
        <time>2021-11-20T01:23:33.851Z</time>
      </trkpt>
      <trkpt lat="47.590643" lon="7.876593">
        <ele>283.926779</ele>
        <time>2021-11-20T01:23:36.921Z</time>
      </trkpt>
      <trkpt lat="47.590771" lon="7.875667">
        <ele>283.275143</ele>
        <time>2021-11-20T01:23:44.950Z</time>
      </trkpt>
      <trkpt lat="47.590851" lon="7.875195">
        <ele>283.095603</ele>
        <time>2021-11-20T01:23:49.118Z</time>
      </trkpt>
      <trkpt lat="47.591067" lon="7.874101">
        <ele>282.675079</ele>
        <time>2021-11-20T01:23:59.448Z</time>
      </trkpt>
      <trkpt lat="47.591105" lon="7.873760">
        <ele>282.547577</ele>
        <time>2021-11-20T01:24:02.636Z</time>
      </trkpt>
      <trkpt lat="47.591074" lon="7.872343">
        <ele>281.919236</ele>
        <time>2021-11-20T01:24:15.125Z</time>
      </trkpt>
      <trkpt lat="47.590993" lon="7.871168">
        <ele>281.342983</ele>
        <time>2021-11-20T01:24:25.062Z</time>
      </trkpt>
      <trkpt lat="47.590885" lon="7.870375">
        <ele>281.007505</ele>
        <time>2021-11-20T01:24:31.881Z</time>
      </trkpt>
      <trkpt lat="47.590882" lon="7.870356">
        <ele>281.003529</ele>
        <time>2021-11-20T01:24:32.063Z</time>
      </trkpt>
      <trkpt lat="47.590872" lon="7.870300">
        <ele>280.991728</ele>
        <time>2021-11-20T01:24:32.648Z</time>
      </trkpt>
      <trkpt lat="47.590870" lon="7.870288">
        <ele>280.989209</ele>
        <time>2021-11-20T01:24:32.795Z</time>
      </trkpt>
      <trkpt lat="47.590773" lon="7.869984">
        <ele>280.920696</ele>
        <time>2021-11-20T01:24:35.694Z</time>
      </trkpt>
      <trkpt lat="47.590705" lon="7.869768">
        <ele>280.872133</ele>
        <time>2021-11-20T01:24:37.913Z</time>
      </trkpt>
      <trkpt lat="47.590470" lon="7.869069">
        <ele>280.713017</ele>
        <time>2021-11-20T01:24:44.945Z</time>
      </trkpt>
      <trkpt lat="47.590421" lon="7.868927">
        <ele>280.680522</ele>
        <time>2021-11-20T01:24:46.412Z</time>
      </trkpt>
      <trkpt lat="47.590348" lon="7.868680">
        <ele>280.625582</ele>
        <time>2021-11-20T01:24:49.286Z</time>
      </trkpt>
      <trkpt lat="47.590292" lon="7.868520">
        <ele>280.588858</ele>
        <time>2021-11-20T01:24:50.914Z</time>
      </trkpt>
      <trkpt lat="47.590365" lon="7.868441">
        <ele>280.561558</ele>
        <time>2021-11-20T01:24:52.304Z</time>
      </trkpt>
      <trkpt lat="47.590348" lon="7.868400">
        <ele>280.551753</ele>
        <time>2021-11-20T01:24:52.969Z</time>
      </trkpt>
      <trkpt lat="47.590333" lon="7.867008">
        <ele>280.757934</ele>
        <time>2021-11-20T01:25:07.962Z</time>
      </trkpt>
      <trkpt lat="47.590274" lon="7.866644">
        <ele>280.838286</ele>
        <time>2021-11-20T01:25:12.460Z</time>
      </trkpt>
      <trkpt lat="47.590266" lon="7.866595">
        <ele>280.849107</ele>
        <time>2021-11-20T01:25:12.997Z</time>
      </trkpt>
      <trkpt lat="47.590251" lon="7.866509">
        <ele>280.868173</ele>
        <time>2021-11-20T01:25:13.875Z</time>
      </trkpt>
      <trkpt lat="47.589823" lon="7.864422">
        <ele>281.136887</ele>
        <time>2021-11-20T01:25:37.146Z</time>
      </trkpt>
      <trkpt lat="47.589471" lon="7.862994">
        <ele>281.204951</ele>
        <time>2021-11-20T01:25:51.892Z</time>
      </trkpt>
      <trkpt lat="47.587447" lon="7.853842">
        <ele>280.833116</ele>
        <time>2021-11-20T01:27:26.540Z</time>
      </trkpt>
      <trkpt lat="47.587300" lon="7.853345">
        <ele>280.847862</ele>
        <time>2021-11-20T01:27:32.110Z</time>
      </trkpt>
      <trkpt lat="47.586757" lon="7.850579">
        <ele>281.266580</ele>
        <time>2021-11-20T01:28:02.866Z</time>
      </trkpt>
      <trkpt lat="47.586522" lon="7.848600">
        <ele>281.711406</ele>
        <time>2021-11-20T01:28:25.017Z</time>
      </trkpt>
      <trkpt lat="47.586484" lon="7.848370">
        <ele>281.765473</ele>
        <time>2021-11-20T01:28:27.667Z</time>
      </trkpt>
      <trkpt lat="47.586486" lon="7.847936">
        <ele>281.864568</ele>
        <time>2021-11-20T01:28:32.377Z</time>
      </trkpt>
      <trkpt lat="47.586452" lon="7.845634">
        <ele>282.074016</ele>
        <time>2021-11-20T01:28:56.634Z</time>
      </trkpt>
      <trkpt lat="47.586790" lon="7.842637">
        <ele>281.871742</ele>
        <time>2021-11-20T01:29:25.928Z</time>
      </trkpt>
      <trkpt lat="47.586802" lon="7.842180">
        <ele>281.801312</ele>
        <time>2021-11-20T01:29:30.204Z</time>
      </trkpt>
      <trkpt lat="47.586809" lon="7.842018">
        <ele>281.769188</ele>
        <time>2021-11-20T01:29:31.707Z</time>
      </trkpt>
      <trkpt lat="47.586920" lon="7.841604">
        <ele>281.681024</ele>
        <time>2021-11-20T01:29:35.879Z</time>
      </trkpt>
      <trkpt lat="47.587628" lon="7.835942">
        <ele>280.494237</ele>
        <time>2021-11-20T01:30:29.289Z</time>
      </trkpt>
      <trkpt lat="47.587848" lon="7.834235">
        <ele>280.200418</ele>
        <time>2021-11-20T01:30:45.147Z</time>
      </trkpt>
      <trkpt lat="47.586496" lon="7.833050">
        <ele>280.231766</ele>
        <time>2021-11-20T01:31:07.514Z</time>
      </trkpt>
      <trkpt lat="47.586276" lon="7.833601">
        <ele>281.282829</ele>
        <time>2021-11-20T01:31:15.767Z</time>
      </trkpt>
      <trkpt lat="47.585278" lon="7.832688">
        <ele>284.136861</ele>
        <time>2021-11-20T01:31:47.203Z</time>
      </trkpt>
      <trkpt lat="47.585247" lon="7.832651">
        <ele>284.233717</ele>
        <time>2021-11-20T01:31:48.495Z</time>
      </trkpt>
      <trkpt lat="47.585195" lon="7.832588">
        <ele>284.397151</ele>
        <time>2021-11-20T01:31:50.676Z</time>
      </trkpt>
      <trkpt lat="47.585027" lon="7.832425">
        <ele>285.110991</ele>
        <time>2021-11-20T01:31:56.118Z</time>
      </trkpt>
      <trkpt lat="47.584717" lon="7.832264">
        <ele>286.499936</ele>
        <time>2021-11-20T01:32:05.789Z</time>
      </trkpt>
      <trkpt lat="47.584497" lon="7.832253">
        <ele>287.430740</ele>
        <time>2021-11-20T01:32:12.829Z</time>
      </trkpt>
      <trkpt lat="47.584427" lon="7.832250">
        <ele>287.726861</ele>
        <time>2021-11-20T01:32:14.704Z</time>
      </trkpt>
      <trkpt lat="47.584367" lon="7.832247">
        <ele>287.980717</ele>
        <time>2021-11-20T01:32:16.891Z</time>
      </trkpt>
      <trkpt lat="47.584156" lon="7.832334">
        <ele>288.906798</ele>
        <time>2021-11-20T01:32:24.553Z</time>
      </trkpt>
      <trkpt lat="47.584029" lon="7.832543">
        <ele>289.709128</ele>
        <time>2021-11-20T01:32:31.325Z</time>
      </trkpt>
      <trkpt lat="47.583849" lon="7.832883">
        <ele>290.941899</ele>
        <time>2021-11-20T01:32:41.684Z</time>
      </trkpt>
      <trkpt lat="47.583696" lon="7.833171">
        <ele>291.987515</ele>
        <time>2021-11-20T01:32:50.382Z</time>
      </trkpt>
      <trkpt lat="47.583523" lon="7.833509">
        <ele>292.817231</ele>
        <time>2021-11-20T01:32:58.857Z</time>
      </trkpt>
      <trkpt lat="47.583401" lon="7.833658">
        <ele>293.234256</ele>
        <time>2021-11-20T01:33:02.666Z</time>
      </trkpt>
      <trkpt lat="47.583327" lon="7.833750">
        <ele>293.489052</ele>
        <time>2021-11-20T01:33:05.887Z</time>
      </trkpt>
      <trkpt lat="47.583163" lon="7.833942">
        <ele>294.040375</ele>
        <time>2021-11-20T01:33:11.380Z</time>
      </trkpt>
      <trkpt lat="47.582828" lon="7.834117">
        <ele>294.977467</ele>
        <time>2021-11-20T01:33:19.826Z</time>
      </trkpt>
      <trkpt lat="47.580816" lon="7.834599">
        <ele>298.442733</ele>
        <time>2021-11-20T01:34:03.706Z</time>
      </trkpt>
      <trkpt lat="47.580667" lon="7.834627">
        <ele>298.617679</ele>
        <time>2021-11-20T01:34:06.088Z</time>
      </trkpt>
      <trkpt lat="47.579073" lon="7.834987">
        <ele>298.520965</ele>
        <time>2021-11-20T01:34:30.049Z</time>
      </trkpt>
      <trkpt lat="47.576219" lon="7.835650">
        <ele>295.453052</ele>
        <time>2021-11-20T01:35:03.709Z</time>
      </trkpt>
      <trkpt lat="47.575959" lon="7.835718">
        <ele>295.251455</ele>
        <time>2021-11-20T01:35:06.864Z</time>
      </trkpt>
      <trkpt lat="47.575033" lon="7.835907">
        <ele>294.537710</ele>
        <time>2021-11-20T01:35:19.318Z</time>
      </trkpt>
      <trkpt lat="47.574568" lon="7.836025">
        <ele>294.621781</ele>
        <time>2021-11-20T01:35:26.304Z</time>
      </trkpt>
      <trkpt lat="47.574158" lon="7.836106">
        <ele>294.738492</ele>
        <time>2021-11-20T01:35:32.977Z</time>
      </trkpt>
      <trkpt lat="47.573815" lon="7.836215">
        <ele>294.837474</ele>
        <time>2021-11-20T01:35:40.657Z</time>
      </trkpt>
      <trkpt lat="47.573348" lon="7.836386">
        <ele>294.973207</ele>
        <time>2021-11-20T01:35:51.508Z</time>
      </trkpt>
      <trkpt lat="47.572760" lon="7.836606">
        <ele>295.275491</ele>
        <time>2021-11-20T01:36:05.119Z</time>
      </trkpt>
      <trkpt lat="47.572296" lon="7.836777">
        <ele>295.541569</ele>
        <time>2021-11-20T01:36:15.545Z</time>
      </trkpt>
      <trkpt lat="47.572139" lon="7.836834">
        <ele>295.631522</ele>
        <time>2021-11-20T01:36:19.031Z</time>
      </trkpt>
      <trkpt lat="47.571871" lon="7.836932">
        <ele>295.785136</ele>
        <time>2021-11-20T01:36:25.068Z</time>
      </trkpt>
      <trkpt lat="47.571771" lon="7.836971">
        <ele>295.842681</ele>
        <time>2021-11-20T01:36:27.304Z</time>
      </trkpt>
      <trkpt lat="47.571254" lon="7.837161">
        <ele>296.300344</ele>
        <time>2021-11-20T01:36:39.755Z</time>
      </trkpt>
      <trkpt lat="47.570985" lon="7.837265">
        <ele>296.648813</ele>
        <time>2021-11-20T01:36:46.708Z</time>
      </trkpt>
      <trkpt lat="47.570872" lon="7.837307">
        <ele>296.794842</ele>
        <time>2021-11-20T01:36:49.725Z</time>
      </trkpt>
      <trkpt lat="47.570298" lon="7.837528">
        <ele>297.538219</ele>
        <time>2021-11-20T01:37:05.046Z</time>
      </trkpt>
      <trkpt lat="47.570038" lon="7.837643">
        <ele>297.878327</ele>
        <time>2021-11-20T01:37:12.170Z</time>
      </trkpt>
      <trkpt lat="47.569907" lon="7.837696">
        <ele>298.048541</ele>
        <time>2021-11-20T01:37:15.691Z</time>
      </trkpt>
      <trkpt lat="47.569814" lon="7.837733">
        <ele>298.169241</ele>
        <time>2021-11-20T01:37:18.253Z</time>
      </trkpt>
      <trkpt lat="47.569665" lon="7.837789">
        <ele>298.365996</ele>
        <time>2021-11-20T01:37:22.216Z</time>
      </trkpt>
      <trkpt lat="47.569522" lon="7.837844">
        <ele>298.558962</ele>
        <time>2021-11-20T01:37:26.071Z</time>
      </trkpt>
      <trkpt lat="47.569310" lon="7.837922">
        <ele>298.844270</ele>
        <time>2021-11-20T01:37:31.819Z</time>
      </trkpt>
      <trkpt lat="47.568988" lon="7.838054">
        <ele>299.280640</ele>
        <time>2021-11-20T01:37:40.596Z</time>
      </trkpt>
      <trkpt lat="47.568420" lon="7.838300">
        <ele>300.053558</ele>
        <time>2021-11-20T01:37:55.853Z</time>
      </trkpt>
      <trkpt lat="47.568160" lon="7.838415">
        <ele>300.407957</ele>
        <time>2021-11-20T01:38:02.614Z</time>
      </trkpt>
      <trkpt lat="47.568042" lon="7.838436">
        <ele>300.563189</ele>
        <time>2021-11-20T01:38:05.362Z</time>
      </trkpt>
      <trkpt lat="47.567936" lon="7.838380">
        <ele>300.669143</ele>
        <time>2021-11-20T01:38:08.177Z</time>
      </trkpt>
      <trkpt lat="47.567846" lon="7.838609">
        <ele>300.802822</ele>
        <time>2021-11-20T01:38:11.057Z</time>
      </trkpt>
      <trkpt lat="47.567823" lon="7.838648">
        <ele>300.828949</ele>
        <time>2021-11-20T01:38:11.675Z</time>
      </trkpt>
      <trkpt lat="47.567634" lon="7.839037">
        <ele>301.070748</ele>
        <time>2021-11-20T01:38:17.130Z</time>
      </trkpt>
      <trkpt lat="47.567626" lon="7.839064">
        <ele>301.085622</ele>
        <time>2021-11-20T01:38:17.521Z</time>
      </trkpt>
      <trkpt lat="47.567564" lon="7.839283">
        <ele>301.205421</ele>
        <time>2021-11-20T01:38:20.403Z</time>
      </trkpt>
      <trkpt lat="47.567530" lon="7.839459">
        <ele>301.297766</ele>
        <time>2021-11-20T01:38:22.512Z</time>
      </trkpt>
      <trkpt lat="47.567510" lon="7.839548">
        <ele>301.345084</ele>
        <time>2021-11-20T01:38:23.564Z</time>
      </trkpt>
      <trkpt lat="47.567481" lon="7.839664">
        <ele>301.407484</ele>
        <time>2021-11-20T01:38:24.814Z</time>
      </trkpt>
      <trkpt lat="47.567406" lon="7.839778">
        <ele>301.487799</ele>
        <time>2021-11-20T01:38:27.140Z</time>
      </trkpt>
      <trkpt lat="47.567111" lon="7.839998">
        <ele>301.734687</ele>
        <time>2021-11-20T01:38:33.065Z</time>
      </trkpt>
      <trkpt lat="47.566826" lon="7.840179">
        <ele>301.969521</ele>
        <time>2021-11-20T01:38:38.424Z</time>
      </trkpt>
      <trkpt lat="47.566592" lon="7.840279">
        <ele>302.224144</ele>
        <time>2021-11-20T01:38:43.092Z</time>
      </trkpt>
      <trkpt lat="47.566515" lon="7.840312">
        <ele>302.307949</ele>
        <time>2021-11-20T01:38:44.293Z</time>
      </trkpt>
      <trkpt lat="47.566450" lon="7.840326">
        <ele>302.376623</ele>
        <time>2021-11-20T01:38:45.676Z</time>
      </trkpt>
      <trkpt lat="47.566350" lon="7.840350">
        <ele>302.482539</ele>
        <time>2021-11-20T01:38:47.650Z</time>
      </trkpt>
      <trkpt lat="47.566221" lon="7.840340">
        <ele>302.617598</ele>
        <time>2021-11-20T01:38:49.842Z</time>
      </trkpt>
      <trkpt lat="47.566142" lon="7.840322">
        <ele>302.701166</ele>
        <time>2021-11-20T01:38:51.014Z</time>
      </trkpt>
      <trkpt lat="47.566081" lon="7.840309">
        <ele>302.765599</ele>
        <time>2021-11-20T01:38:52.404Z</time>
      </trkpt>
      <trkpt lat="47.565906" lon="7.840272">
        <ele>302.950421</ele>
        <time>2021-11-20T01:38:55.784Z</time>
      </trkpt>
      <trkpt lat="47.565343" lon="7.840185">
        <ele>303.542250</ele>
        <time>2021-11-20T01:39:06.577Z</time>
      </trkpt>
      <trkpt lat="47.565233" lon="7.840176">
        <ele>303.657434</ele>
        <time>2021-11-20T01:39:08.909Z</time>
      </trkpt>
      <trkpt lat="47.565168" lon="7.840179">
        <ele>303.725427</ele>
        <time>2021-11-20T01:39:10.276Z</time>
      </trkpt>
      <trkpt lat="47.565057" lon="7.840213">
        <ele>303.844118</ele>
        <time>2021-11-20T01:39:12.537Z</time>
      </trkpt>
      <trkpt lat="47.564936" lon="7.840261">
        <ele>303.980414</ele>
        <time>2021-11-20T01:39:15.247Z</time>
      </trkpt>
      <trkpt lat="47.564558" lon="7.840516">
        <ele>304.432327</ele>
        <time>2021-11-20T01:39:23.526Z</time>
      </trkpt>
      <trkpt lat="47.564534" lon="7.840532">
        <ele>304.460962</ele>
        <time>2021-11-20T01:39:24.022Z</time>
      </trkpt>
      <trkpt lat="47.564463" lon="7.840580">
        <ele>304.545876</ele>
        <time>2021-11-20T01:39:25.621Z</time>
      </trkpt>
      <trkpt lat="47.564209" lon="7.840758">
        <ele>304.851598</ele>
        <time>2021-11-20T01:39:30.922Z</time>
      </trkpt>
      <trkpt lat="47.564105" lon="7.840831">
        <ele>304.976812</ele>
        <time>2021-11-20T01:39:33.083Z</time>
      </trkpt>
      <trkpt lat="47.564094" lon="7.840838">
        <ele>304.989838</ele>
        <time>2021-11-20T01:39:33.318Z</time>
      </trkpt>
      <trkpt lat="47.563986" lon="7.840916">
        <ele>305.120566</ele>
        <time>2021-11-20T01:39:35.595Z</time>
      </trkpt>
      <trkpt lat="47.563941" lon="7.840948">
        <ele>305.174876</ele>
        <time>2021-11-20T01:39:36.517Z</time>
      </trkpt>
      <trkpt lat="47.563805" lon="7.841046">
        <ele>305.339425</ele>
        <time>2021-11-20T01:39:39.309Z</time>
      </trkpt>
      <trkpt lat="47.563659" lon="7.841150">
        <ele>305.515687</ele>
        <time>2021-11-20T01:39:42.218Z</time>
      </trkpt>
      <trkpt lat="47.563483" lon="7.841269">
        <ele>305.726185</ele>
        <time>2021-11-20T01:39:45.931Z</time>
      </trkpt>
      <trkpt lat="47.563300" lon="7.841391">
        <ele>305.956575</ele>
        <time>2021-11-20T01:39:49.504Z</time>
      </trkpt>
      <trkpt lat="47.563016" lon="7.841568">
        <ele>306.319104</ele>
        <time>2021-11-20T01:39:55.365Z</time>
      </trkpt>
      <trkpt lat="47.562965" lon="7.841597">
        <ele>306.383382</ele>
        <time>2021-11-20T01:39:56.339Z</time>
      </trkpt>
      <trkpt lat="47.562904" lon="7.841632">
        <ele>306.460352</ele>
        <time>2021-11-20T01:39:57.576Z</time>
      </trkpt>
      <trkpt lat="47.562574" lon="7.841873">
        <ele>306.893250</ele>
        <time>2021-11-20T01:40:04.555Z</time>
      </trkpt>
      <trkpt lat="47.562440" lon="7.842083">
        <ele>307.122739</ele>
        <time>2021-11-20T01:40:08.167Z</time>
      </trkpt>
      <trkpt lat="47.562385" lon="7.842183">
        <ele>307.225174</ele>
        <time>2021-11-20T01:40:09.730Z</time>
      </trkpt>
      <trkpt lat="47.562300" lon="7.842326">
        <ele>307.376489</ele>
        <time>2021-11-20T01:40:12.639Z</time>
      </trkpt>
      <trkpt lat="47.562179" lon="7.842500">
        <ele>307.574882</ele>
        <time>2021-11-20T01:40:16.111Z</time>
      </trkpt>
      <trkpt lat="47.561498" lon="7.843130">
        <ele>308.476754</ele>
        <time>2021-11-20T01:40:32.819Z</time>
      </trkpt>
      <trkpt lat="47.561434" lon="7.843181">
        <ele>308.556229</ele>
        <time>2021-11-20T01:40:34.622Z</time>
      </trkpt>
      <trkpt lat="47.561038" lon="7.843502">
        <ele>309.049896</ele>
        <time>2021-11-20T01:40:43.323Z</time>
      </trkpt>
      <trkpt lat="47.560934" lon="7.843550">
        <ele>309.169030</ele>
        <time>2021-11-20T01:40:45.478Z</time>
      </trkpt>
      <trkpt lat="47.560812" lon="7.843560">
        <ele>309.302666</ele>
        <time>2021-11-20T01:40:47.722Z</time>
      </trkpt>
      <trkpt lat="47.560515" lon="7.843379">
        <ele>309.653891</ele>
        <time>2021-11-20T01:40:53.458Z</time>
      </trkpt>
      <trkpt lat="47.560430" lon="7.843341">
        <ele>309.750994</ele>
        <time>2021-11-20T01:40:55.260Z</time>
      </trkpt>
      <trkpt lat="47.560338" lon="7.843341">
        <ele>309.851615</ele>
        <time>2021-11-20T01:40:56.483Z</time>
      </trkpt>
      <trkpt lat="47.560209" lon="7.843393">
        <ele>309.881240</ele>
        <time>2021-11-20T01:40:58.958Z</time>
      </trkpt>
      <trkpt lat="47.560139" lon="7.843433">
        <ele>309.881973</ele>
        <time>2021-11-20T01:41:00.278Z</time>
      </trkpt>
      <trkpt lat="47.559847" lon="7.843604">
        <ele>309.885042</ele>
        <time>2021-11-20T01:41:05.446Z</time>
      </trkpt>
      <trkpt lat="47.559583" lon="7.843813">
        <ele>309.887968</ele>
        <time>2021-11-20T01:41:09.936Z</time>
      </trkpt>
      <trkpt lat="47.559158" lon="7.844233">
        <ele>309.892962</ele>
        <time>2021-11-20T01:41:17.146Z</time>
      </trkpt>
      <trkpt lat="47.559109" lon="7.844229">
        <ele>309.893441</ele>
        <time>2021-11-20T01:41:17.736Z</time>
      </trkpt>
      <trkpt lat="47.559060" lon="7.844197">
        <ele>309.893965</ele>
        <time>2021-11-20T01:41:18.367Z</time>
      </trkpt>
      <trkpt lat="47.558884" lon="7.843836">
        <ele>309.896903</ele>
        <time>2021-11-20T01:41:22.519Z</time>
      </trkpt>
      <trkpt lat="47.558555" lon="7.843392">
        <ele>309.905882</ele>
        <time>2021-11-20T01:41:28.555Z</time>
      </trkpt>
      <trkpt lat="47.558471" lon="7.843365">
        <ele>309.907839</ele>
        <time>2021-11-20T01:41:29.812Z</time>
      </trkpt>
      <trkpt lat="47.558405" lon="7.843371">
        <ele>309.909344</ele>
        <time>2021-11-20T01:41:30.981Z</time>
      </trkpt>
      <trkpt lat="47.558136" lon="7.843582">
        <ele>309.916275</ele>
        <time>2021-11-20T01:41:35.188Z</time>
      </trkpt>
      <trkpt lat="47.557967" lon="7.843683">
        <ele>309.920424</ele>
        <time>2021-11-20T01:41:37.907Z</time>
      </trkpt>
      <trkpt lat="47.557846" lon="7.843756">
        <ele>309.923399</ele>
        <time>2021-11-20T01:41:39.751Z</time>
      </trkpt>
      <trkpt lat="47.557759" lon="7.843839">
        <ele>309.925755</ele>
        <time>2021-11-20T01:41:41.527Z</time>
      </trkpt>
      <trkpt lat="47.557715" lon="7.843940">
        <ele>309.927602</ele>
        <time>2021-11-20T01:41:42.756Z</time>
      </trkpt>
      <trkpt lat="47.557560" lon="7.844433">
        <ele>309.935959</ele>
        <time>2021-11-20T01:41:48.715Z</time>
      </trkpt>
      <trkpt lat="47.557282" lon="7.844832">
        <ele>310.117699</ele>
        <time>2021-11-20T01:41:55.147Z</time>
      </trkpt>
      <trkpt lat="47.557134" lon="7.845095">
        <ele>310.273454</ele>
        <time>2021-11-20T01:41:58.923Z</time>
      </trkpt>
      <trkpt lat="47.556636" lon="7.845928">
        <ele>310.779628</ele>
        <time>2021-11-20T01:42:11.773Z</time>
      </trkpt>
      <trkpt lat="47.556060" lon="7.846859">
        <ele>311.511579</ele>
        <time>2021-11-20T01:42:27.900Z</time>
      </trkpt>
      <trkpt lat="47.555990" lon="7.846965">
        <ele>311.631329</ele>
        <time>2021-11-20T01:42:29.876Z</time>
      </trkpt>
      <trkpt lat="47.555966" lon="7.846932">
        <ele>311.670502</ele>
        <time>2021-11-20T01:42:30.461Z</time>
      </trkpt>
      <trkpt lat="47.555892" lon="7.846856">
        <ele>311.778228</ele>
        <time>2021-11-20T01:42:32.028Z</time>
      </trkpt>
      <trkpt lat="47.555855" lon="7.846815">
        <ele>311.833506</ele>
        <time>2021-11-20T01:42:32.938Z</time>
      </trkpt>
      <trkpt lat="47.555727" lon="7.846715">
        <ele>312.006636</ele>
        <time>2021-11-20T01:42:35.936Z</time>
      </trkpt>
      <trkpt lat="47.555199" lon="7.846687">
        <ele>312.638770</ele>
        <time>2021-11-20T01:42:45.908Z</time>
      </trkpt>
      <trkpt lat="47.555068" lon="7.846672">
        <ele>312.795974</ele>
        <time>2021-11-20T01:42:48.770Z</time>
      </trkpt>
      <trkpt lat="47.555004" lon="7.846886">
        <ele>312.984978</ele>
        <time>2021-11-20T01:42:52.059Z</time>
      </trkpt>
      <trkpt lat="47.554995" lon="7.846915">
        <ele>313.010752</ele>
        <time>2021-11-20T01:42:52.494Z</time>
      </trkpt>
      <trkpt lat="47.554963" lon="7.846988">
        <ele>313.081040</ele>
        <time>2021-11-20T01:42:53.625Z</time>
      </trkpt>
      <trkpt lat="47.554892" lon="7.847148">
        <ele>313.235661</ele>
        <time>2021-11-20T01:42:56.463Z</time>
      </trkpt>
      <trkpt lat="47.554759" lon="7.847388">
        <ele>313.516805</ele>
        <time>2021-11-20T01:43:00.785Z</time>
      </trkpt>
      <trkpt lat="47.554618" lon="7.847626">
        <ele>313.814891</ele>
        <time>2021-11-20T01:43:05.338Z</time>
      </trkpt>
      <trkpt lat="47.554465" lon="7.847858">
        <ele>314.120210</ele>
        <time>2021-11-20T01:43:09.980Z</time>
      </trkpt>
      <trkpt lat="47.554351" lon="7.848049">
        <ele>314.360210</ele>
        <time>2021-11-20T01:43:13.266Z</time>
      </trkpt>
      <trkpt lat="47.554269" lon="7.848188">
        <ele>314.533983</ele>
        <time>2021-11-20T01:43:15.765Z</time>
      </trkpt>
      <trkpt lat="47.554209" lon="7.848300">
        <ele>314.668579</ele>
        <time>2021-11-20T01:43:17.905Z</time>
      </trkpt>
      <trkpt lat="47.554055" lon="7.848586">
        <ele>315.012962</ele>
        <time>2021-11-20T01:43:22.704Z</time>
      </trkpt>
      <trkpt lat="47.553725" lon="7.849291">
        <ele>315.823995</ele>
        <time>2021-11-20T01:43:34.078Z</time>
      </trkpt>
      <trkpt lat="47.553605" lon="7.849629">
        <ele>316.321237</ele>
        <time>2021-11-20T01:43:39.597Z</time>
      </trkpt>
      <trkpt lat="47.553537" lon="7.849904">
        <ele>316.702556</ele>
        <time>2021-11-20T01:43:43.663Z</time>
      </trkpt>
      <trkpt lat="47.553380" lon="7.850453">
        <ele>317.478864</ele>
        <time>2021-11-20T01:43:52.567Z</time>
      </trkpt>
      <trkpt lat="47.553344" lon="7.850525">
        <ele>317.595529</ele>
        <time>2021-11-20T01:43:53.870Z</time>
      </trkpt>
      <trkpt lat="47.553283" lon="7.850634">
        <ele>317.779888</ele>
        <time>2021-11-20T01:43:55.937Z</time>
      </trkpt>
      <trkpt lat="47.552876" lon="7.851300">
        <ele>318.949667</ele>
        <time>2021-11-20T01:44:09.746Z</time>
      </trkpt>
      <trkpt lat="47.552678" lon="7.851709">
        <ele>319.821267</ele>
        <time>2021-11-20T01:44:18.416Z</time>
      </trkpt>
      <trkpt lat="47.552449" lon="7.852231">
        <ele>321.173498</ele>
        <time>2021-11-20T01:44:29.920Z</time>
      </trkpt>
      <trkpt lat="47.552272" lon="7.852167">
        <ele>321.759825</ele>
        <time>2021-11-20T01:44:35.320Z</time>
      </trkpt>
      <trkpt lat="47.552097" lon="7.852063">
        <ele>322.366612</ele>
        <time>2021-11-20T01:44:40.568Z</time>
      </trkpt>
      <trkpt lat="47.552042" lon="7.852007">
        <ele>322.581373</ele>
        <time>2021-11-20T01:44:42.967Z</time>
      </trkpt>
      <trkpt lat="47.551925" lon="7.851845">
        <ele>323.096714</ele>
        <time>2021-11-20T01:44:47.233Z</time>
      </trkpt>
      <trkpt lat="47.551830" lon="7.851603">
        <ele>323.704782</ele>
        <time>2021-11-20T01:44:53.055Z</time>
      </trkpt>
      <trkpt lat="47.551660" lon="7.851725">
        <ele>324.312662</ele>
        <time>2021-11-20T01:44:58.289Z</time>
      </trkpt>
      <trkpt lat="47.551516" lon="7.851950">
        <ele>324.986145</ele>
        <time>2021-11-20T01:45:04.847Z</time>
      </trkpt>
      <trkpt lat="47.550221" lon="7.853833">
        <ele>329.889746</ele>
        <time>2021-11-20T01:45:52.139Z</time>
      </trkpt>
      <trkpt lat="47.549883" lon="7.854434">
        <ele>330.257027</ele>
        <time>2021-11-20T01:46:02.259Z</time>
      </trkpt>
      <trkpt lat="47.549566" lon="7.855225">
        <ele>330.664614</ele>
        <time>2021-11-20T01:46:16.118Z</time>
      </trkpt>
      <trkpt lat="47.549362" lon="7.855774">
        <ele>330.942283</ele>
        <time>2021-11-20T01:46:24.607Z</time>
      </trkpt>
      <trkpt lat="47.548887" lon="7.857308">
        <ele>331.171677</ele>
        <time>2021-11-20T01:46:46.715Z</time>
      </trkpt>
      <trkpt lat="47.548743" lon="7.857692">
        <ele>331.195960</ele>
        <time>2021-11-20T01:46:52.686Z</time>
      </trkpt>
      <trkpt lat="47.548701" lon="7.857893">
        <ele>331.207591</ele>
        <time>2021-11-20T01:46:55.658Z</time>
      </trkpt>
      <trkpt lat="47.548686" lon="7.857973">
        <ele>331.212181</ele>
        <time>2021-11-20T01:46:56.781Z</time>
      </trkpt>
      <trkpt lat="47.548611" lon="7.858381">
        <ele>331.235557</ele>
        <time>2021-11-20T01:47:02.995Z</time>
      </trkpt>
      <trkpt lat="47.548334" lon="7.859801">
        <ele>332.195429</ele>
        <time>2021-11-20T01:47:26.033Z</time>
      </trkpt>
      <trkpt lat="47.548049" lon="7.860929">
        <ele>333.072101</ele>
        <time>2021-11-20T01:47:47.051Z</time>
      </trkpt>
      <trkpt lat="47.547930" lon="7.861711">
        <ele>333.912603</ele>
        <time>2021-11-20T01:48:01.814Z</time>
      </trkpt>
      <trkpt lat="47.547568" lon="7.863151">
        <ele>335.641563</ele>
        <time>2021-11-20T01:48:30.942Z</time>
      </trkpt>
      <trkpt lat="47.547320" lon="7.863864">
        <ele>336.211165</ele>
        <time>2021-11-20T01:48:44.882Z</time>
      </trkpt>
      <trkpt lat="47.546974" lon="7.864423">
        <ele>336.277790</ele>
        <time>2021-11-20T01:48:55.706Z</time>
      </trkpt>
      <trkpt lat="47.546885" lon="7.864500">
        <ele>336.291203</ele>
        <time>2021-11-20T01:48:58.791Z</time>
      </trkpt>
      <trkpt lat="47.546894" lon="7.864837">
        <ele>336.320830</ele>
        <time>2021-11-20T01:49:02.674Z</time>
      </trkpt>
      <trkpt lat="47.546889" lon="7.865225">
        <ele>336.354920</ele>
        <time>2021-11-20T01:49:08.100Z</time>
      </trkpt>
      <trkpt lat="47.546819" lon="7.865489">
        <ele>336.379836</ele>
        <time>2021-11-20T01:49:12.044Z</time>
      </trkpt>
      <trkpt lat="47.546510" lon="7.865766">
        <ele>336.357563</ele>
        <time>2021-11-20T01:49:18.678Z</time>
      </trkpt>
      <trkpt lat="47.546327" lon="7.865959">
        <ele>336.179812</ele>
        <time>2021-11-20T01:49:22.193Z</time>
      </trkpt>
      <trkpt lat="47.546096" lon="7.866147">
        <ele>335.971258</ele>
        <time>2021-11-20T01:49:26.749Z</time>
      </trkpt>
      <trkpt lat="47.545240" lon="7.866887">
        <ele>335.187025</ele>
        <time>2021-11-20T01:49:43.423Z</time>
      </trkpt>
      <trkpt lat="47.545160" lon="7.866985">
        <ele>335.104883</ele>
        <time>2021-11-20T01:49:45.378Z</time>
      </trkpt>
      <trkpt lat="47.545003" lon="7.867278">
        <ele>334.993802</ele>
        <time>2021-11-20T01:49:51.047Z</time>
      </trkpt>
      <trkpt lat="47.544568" lon="7.867693">
        <ele>334.993802</ele>
        <time>2021-11-20T01:50:03.856Z</time>
      </trkpt>
      <trkpt lat="47.544469" lon="7.867776">
        <ele>334.993802</ele>
        <time>2021-11-20T01:50:06.325Z</time>
      </trkpt>
      <trkpt lat="47.544410" lon="7.867825">
        <ele>334.993802</ele>
        <time>2021-11-20T01:50:08.048Z</time>
      </trkpt>
      <trkpt lat="47.544246" lon="7.867967">
        <ele>334.993802</ele>
        <time>2021-11-20T01:50:12.863Z</time>
      </trkpt>
      <trkpt lat="47.544214" lon="7.867988">
        <ele>334.993802</ele>
        <time>2021-11-20T01:50:13.631Z</time>
      </trkpt>
      <trkpt lat="47.543801" lon="7.868269">
        <ele>334.993802</ele>
        <time>2021-11-20T01:50:24.570Z</time>
      </trkpt>
      <trkpt lat="47.543657" lon="7.868359">
        <ele>334.993802</ele>
        <time>2021-11-20T01:50:28.741Z</time>
      </trkpt>
      <trkpt lat="47.543609" lon="7.868391">
        <ele>334.993802</ele>
        <time>2021-11-20T01:50:30.044Z</time>
      </trkpt>
      <trkpt lat="47.543546" lon="7.868432">
        <ele>334.993802</ele>
        <time>2021-11-20T01:50:31.299Z</time>
      </trkpt>
    </trkseg>
  </trk>
</gpx>